<?xml version="1.0" encoding="UTF-8" standalone="no" ?>
<gpx xmlns="http://www.topografix.com/GPX/1/1" xmlns:xsi="http://www.w3.org/2001/XMLSchema-instance" xsi:schemaLocation="http://www.topografix.com/GPX/1/1 http://www.topografix.com/GPX/1/1/gpx.xsd" version="1.1" creator="VisuGPX - https://www.visugpx.com">
  <metadata>
    <name>Chateau Chalon</name>
  </metadata>
  <trk>
    <name><![CDATA[Chateau Chalon]]></name>
    <trkseg>
      <trkpt lat="46.75769" lon="5.61514">
        <ele>245.4</ele>
        <time>2020-06-09T09:25:55Z</time>
      </trkpt>
      <trkpt lat="46.75771" lon="5.61519">
        <ele>245.4</ele>
        <time>2020-06-09T09:25:56Z</time>
      </trkpt>
      <trkpt lat="46.75774" lon="5.61523">
        <ele>245.4</ele>
        <time>2020-06-09T09:25:57Z</time>
      </trkpt>
      <trkpt lat="46.75776" lon="5.61527">
        <ele>245.6</ele>
        <time>2020-06-09T09:25:58Z</time>
      </trkpt>
      <trkpt lat="46.75779" lon="5.61532">
        <ele>245.6</ele>
        <time>2020-06-09T09:25:59Z</time>
      </trkpt>
      <trkpt lat="46.75781" lon="5.61537">
        <ele>245.6</ele>
        <time>2020-06-09T09:26:00Z</time>
      </trkpt>
      <trkpt lat="46.75784" lon="5.61542">
        <ele>245.6</ele>
        <time>2020-06-09T09:26:01Z</time>
      </trkpt>
      <trkpt lat="46.75787" lon="5.61547">
        <ele>245.6</ele>
        <time>2020-06-09T09:26:02Z</time>
      </trkpt>
      <trkpt lat="46.7579" lon="5.61552">
        <ele>245.6</ele>
        <time>2020-06-09T09:26:03Z</time>
      </trkpt>
      <trkpt lat="46.75793" lon="5.61558">
        <ele>245.6</ele>
        <time>2020-06-09T09:26:04Z</time>
      </trkpt>
      <trkpt lat="46.75797" lon="5.61563">
        <ele>245.6</ele>
        <time>2020-06-09T09:26:05Z</time>
      </trkpt>
      <trkpt lat="46.75801" lon="5.61568">
        <ele>245.6</ele>
        <time>2020-06-09T09:26:06Z</time>
      </trkpt>
      <trkpt lat="46.75806" lon="5.61573">
        <ele>245.4</ele>
        <time>2020-06-09T09:26:07Z</time>
      </trkpt>
      <trkpt lat="46.75811" lon="5.61578">
        <ele>245.4</ele>
        <time>2020-06-09T09:26:08Z</time>
      </trkpt>
      <trkpt lat="46.75816" lon="5.61582">
        <ele>245.4</ele>
        <time>2020-06-09T09:26:09Z</time>
      </trkpt>
      <trkpt lat="46.75821" lon="5.61587">
        <ele>245.4</ele>
        <time>2020-06-09T09:26:10Z</time>
      </trkpt>
      <trkpt lat="46.75825" lon="5.61592">
        <ele>245.4</ele>
        <time>2020-06-09T09:26:11Z</time>
      </trkpt>
      <trkpt lat="46.7583" lon="5.61597">
        <ele>245.4</ele>
        <time>2020-06-09T09:26:12Z</time>
      </trkpt>
      <trkpt lat="46.75834" lon="5.61602">
        <ele>245.4</ele>
        <time>2020-06-09T09:26:13Z</time>
      </trkpt>
      <trkpt lat="46.75837" lon="5.61609">
        <ele>245.4</ele>
        <time>2020-06-09T09:26:14Z</time>
      </trkpt>
      <trkpt lat="46.75841" lon="5.61615">
        <ele>245.4</ele>
        <time>2020-06-09T09:26:15Z</time>
      </trkpt>
      <trkpt lat="46.75844" lon="5.61622">
        <ele>245.4</ele>
        <time>2020-06-09T09:26:16Z</time>
      </trkpt>
      <trkpt lat="46.75847" lon="5.61628">
        <ele>245.4</ele>
        <time>2020-06-09T09:26:17Z</time>
      </trkpt>
      <trkpt lat="46.7585" lon="5.61634">
        <ele>245.6</ele>
        <time>2020-06-09T09:26:18Z</time>
      </trkpt>
      <trkpt lat="46.75852" lon="5.61639">
        <ele>245.8</ele>
        <time>2020-06-09T09:26:19Z</time>
      </trkpt>
      <trkpt lat="46.75854" lon="5.61644">
        <ele>246</ele>
        <time>2020-06-09T09:26:20Z</time>
      </trkpt>
      <trkpt lat="46.75857" lon="5.61649">
        <ele>246</ele>
        <time>2020-06-09T09:26:21Z</time>
      </trkpt>
      <trkpt lat="46.75859" lon="5.61654">
        <ele>246.2</ele>
        <time>2020-06-09T09:26:22Z</time>
      </trkpt>
      <trkpt lat="46.75861" lon="5.61659">
        <ele>246.2</ele>
        <time>2020-06-09T09:26:23Z</time>
      </trkpt>
      <trkpt lat="46.75864" lon="5.61664">
        <ele>246.4</ele>
        <time>2020-06-09T09:26:24Z</time>
      </trkpt>
      <trkpt lat="46.75866" lon="5.61669">
        <ele>246.4</ele>
        <time>2020-06-09T09:26:25Z</time>
      </trkpt>
      <trkpt lat="46.75868" lon="5.61673">
        <ele>246.8</ele>
        <time>2020-06-09T09:26:26Z</time>
      </trkpt>
      <trkpt lat="46.7587" lon="5.61677">
        <ele>246.8</ele>
        <time>2020-06-09T09:26:27Z</time>
      </trkpt>
      <trkpt lat="46.75872" lon="5.61681">
        <ele>247.2</ele>
        <time>2020-06-09T09:26:28Z</time>
      </trkpt>
      <trkpt lat="46.75874" lon="5.61684">
        <ele>247.2</ele>
        <time>2020-06-09T09:26:29Z</time>
      </trkpt>
      <trkpt lat="46.75876" lon="5.61688">
        <ele>247.4</ele>
        <time>2020-06-09T09:26:30Z</time>
      </trkpt>
      <trkpt lat="46.75877" lon="5.61692">
        <ele>247.4</ele>
        <time>2020-06-09T09:26:31Z</time>
      </trkpt>
      <trkpt lat="46.75878" lon="5.61696">
        <ele>247.6</ele>
        <time>2020-06-09T09:26:32Z</time>
      </trkpt>
      <trkpt lat="46.7588" lon="5.617">
        <ele>248</ele>
        <time>2020-06-09T09:26:33Z</time>
      </trkpt>
      <trkpt lat="46.75882" lon="5.61704">
        <ele>248.2</ele>
        <time>2020-06-09T09:26:34Z</time>
      </trkpt>
      <trkpt lat="46.75884" lon="5.61708">
        <ele>248.4</ele>
        <time>2020-06-09T09:26:35Z</time>
      </trkpt>
      <trkpt lat="46.75885" lon="5.61712">
        <ele>248.4</ele>
        <time>2020-06-09T09:26:36Z</time>
      </trkpt>
      <trkpt lat="46.75886" lon="5.61716">
        <ele>248.8</ele>
        <time>2020-06-09T09:26:37Z</time>
      </trkpt>
      <trkpt lat="46.75888" lon="5.6172">
        <ele>249</ele>
        <time>2020-06-09T09:26:38Z</time>
      </trkpt>
      <trkpt lat="46.75889" lon="5.61724">
        <ele>249.4</ele>
        <time>2020-06-09T09:26:39Z</time>
      </trkpt>
      <trkpt lat="46.75891" lon="5.61728">
        <ele>249.6</ele>
        <time>2020-06-09T09:26:40Z</time>
      </trkpt>
      <trkpt lat="46.75892" lon="5.61732">
        <ele>250</ele>
        <time>2020-06-09T09:26:41Z</time>
      </trkpt>
      <trkpt lat="46.75893" lon="5.61736">
        <ele>250.2</ele>
        <time>2020-06-09T09:26:42Z</time>
      </trkpt>
      <trkpt lat="46.75894" lon="5.61741">
        <ele>250.6</ele>
        <time>2020-06-09T09:26:43Z</time>
      </trkpt>
      <trkpt lat="46.75895" lon="5.61745">
        <ele>250.8</ele>
        <time>2020-06-09T09:26:44Z</time>
      </trkpt>
      <trkpt lat="46.75896" lon="5.61749">
        <ele>251.2</ele>
        <time>2020-06-09T09:26:45Z</time>
      </trkpt>
      <trkpt lat="46.75897" lon="5.61753">
        <ele>251.4</ele>
        <time>2020-06-09T09:26:46Z</time>
      </trkpt>
      <trkpt lat="46.75897" lon="5.61757">
        <ele>251.8</ele>
        <time>2020-06-09T09:26:47Z</time>
      </trkpt>
      <trkpt lat="46.75898" lon="5.61761">
        <ele>252</ele>
        <time>2020-06-09T09:26:48Z</time>
      </trkpt>
      <trkpt lat="46.75898" lon="5.61766">
        <ele>252.2</ele>
        <time>2020-06-09T09:26:49Z</time>
      </trkpt>
      <trkpt lat="46.75898" lon="5.6177">
        <ele>252.6</ele>
        <time>2020-06-09T09:26:50Z</time>
      </trkpt>
      <trkpt lat="46.75898" lon="5.61775">
        <ele>252.6</ele>
        <time>2020-06-09T09:26:51Z</time>
      </trkpt>
      <trkpt lat="46.75897" lon="5.61779">
        <ele>253</ele>
        <time>2020-06-09T09:26:52Z</time>
      </trkpt>
      <trkpt lat="46.75896" lon="5.61784">
        <ele>253</ele>
        <time>2020-06-09T09:26:53Z</time>
      </trkpt>
      <trkpt lat="46.75894" lon="5.61788">
        <ele>253.2</ele>
        <time>2020-06-09T09:26:54Z</time>
      </trkpt>
      <trkpt lat="46.75892" lon="5.61791">
        <ele>253.2</ele>
        <time>2020-06-09T09:26:55Z</time>
      </trkpt>
      <trkpt lat="46.75889" lon="5.61795">
        <ele>253.6</ele>
        <time>2020-06-09T09:26:56Z</time>
      </trkpt>
      <trkpt lat="46.75886" lon="5.61797">
        <ele>253.6</ele>
        <time>2020-06-09T09:26:57Z</time>
      </trkpt>
      <trkpt lat="46.75883" lon="5.618">
        <ele>254</ele>
        <time>2020-06-09T09:26:58Z</time>
      </trkpt>
      <trkpt lat="46.7588" lon="5.61801">
        <ele>254.2</ele>
        <time>2020-06-09T09:26:59Z</time>
      </trkpt>
      <trkpt lat="46.75877" lon="5.61803">
        <ele>254.4</ele>
        <time>2020-06-09T09:27:00Z</time>
      </trkpt>
      <trkpt lat="46.75873" lon="5.61804">
        <ele>254.4</ele>
        <time>2020-06-09T09:27:01Z</time>
      </trkpt>
      <trkpt lat="46.7587" lon="5.61805">
        <ele>254.8</ele>
        <time>2020-06-09T09:27:02Z</time>
      </trkpt>
      <trkpt lat="46.75866" lon="5.61807">
        <ele>254.8</ele>
        <time>2020-06-09T09:27:03Z</time>
      </trkpt>
      <trkpt lat="46.75862" lon="5.61807">
        <ele>255</ele>
        <time>2020-06-09T09:27:04Z</time>
      </trkpt>
      <trkpt lat="46.75859" lon="5.61808">
        <ele>255.4</ele>
        <time>2020-06-09T09:27:05Z</time>
      </trkpt>
      <trkpt lat="46.75855" lon="5.61809">
        <ele>255.4</ele>
        <time>2020-06-09T09:27:06Z</time>
      </trkpt>
      <trkpt lat="46.75851" lon="5.61809">
        <ele>255.8</ele>
        <time>2020-06-09T09:27:07Z</time>
      </trkpt>
      <trkpt lat="46.75847" lon="5.61809">
        <ele>255.8</ele>
        <time>2020-06-09T09:27:08Z</time>
      </trkpt>
      <trkpt lat="46.75843" lon="5.6181">
        <ele>256</ele>
        <time>2020-06-09T09:27:09Z</time>
      </trkpt>
      <trkpt lat="46.75839" lon="5.6181">
        <ele>256.2</ele>
        <time>2020-06-09T09:27:10Z</time>
      </trkpt>
      <trkpt lat="46.75835" lon="5.6181">
        <ele>256.2</ele>
        <time>2020-06-09T09:27:11Z</time>
      </trkpt>
      <trkpt lat="46.75831" lon="5.6181">
        <ele>256.8</ele>
        <time>2020-06-09T09:27:12Z</time>
      </trkpt>
      <trkpt lat="46.75827" lon="5.6181">
        <ele>257</ele>
        <time>2020-06-09T09:27:13Z</time>
      </trkpt>
      <trkpt lat="46.75823" lon="5.6181">
        <ele>257</ele>
        <time>2020-06-09T09:27:14Z</time>
      </trkpt>
      <trkpt lat="46.7582" lon="5.6181">
        <ele>257.4</ele>
        <time>2020-06-09T09:27:15Z</time>
      </trkpt>
      <trkpt lat="46.75816" lon="5.6181">
        <ele>257.6</ele>
        <time>2020-06-09T09:27:16Z</time>
      </trkpt>
      <trkpt lat="46.75812" lon="5.6181">
        <ele>257.8</ele>
        <time>2020-06-09T09:27:17Z</time>
      </trkpt>
      <trkpt lat="46.75808" lon="5.6181">
        <ele>257.8</ele>
        <time>2020-06-09T09:27:18Z</time>
      </trkpt>
      <trkpt lat="46.75805" lon="5.6181">
        <ele>258.2</ele>
        <time>2020-06-09T09:27:19Z</time>
      </trkpt>
      <trkpt lat="46.75801" lon="5.61811">
        <ele>258.4</ele>
        <time>2020-06-09T09:27:20Z</time>
      </trkpt>
      <trkpt lat="46.75797" lon="5.61811">
        <ele>258.4</ele>
        <time>2020-06-09T09:27:21Z</time>
      </trkpt>
      <trkpt lat="46.75794" lon="5.6181">
        <ele>258.8</ele>
        <time>2020-06-09T09:27:22Z</time>
      </trkpt>
      <trkpt lat="46.7579" lon="5.6181">
        <ele>258.8</ele>
        <time>2020-06-09T09:27:23Z</time>
      </trkpt>
      <trkpt lat="46.75786" lon="5.6181">
        <ele>259.2</ele>
        <time>2020-06-09T09:27:24Z</time>
      </trkpt>
      <trkpt lat="46.75783" lon="5.6181">
        <ele>259.6</ele>
        <time>2020-06-09T09:27:25Z</time>
      </trkpt>
      <trkpt lat="46.75779" lon="5.6181">
        <ele>259.8</ele>
        <time>2020-06-09T09:27:26Z</time>
      </trkpt>
      <trkpt lat="46.75776" lon="5.6181">
        <ele>259.8</ele>
        <time>2020-06-09T09:27:27Z</time>
      </trkpt>
      <trkpt lat="46.75772" lon="5.61811">
        <ele>260.2</ele>
        <time>2020-06-09T09:27:28Z</time>
      </trkpt>
      <trkpt lat="46.75769" lon="5.61811">
        <ele>260.2</ele>
        <time>2020-06-09T09:27:29Z</time>
      </trkpt>
      <trkpt lat="46.75765" lon="5.61811">
        <ele>260.6</ele>
        <time>2020-06-09T09:27:30Z</time>
      </trkpt>
      <trkpt lat="46.75761" lon="5.61811">
        <ele>260.8</ele>
        <time>2020-06-09T09:27:31Z</time>
      </trkpt>
      <trkpt lat="46.75757" lon="5.61811">
        <ele>260.8</ele>
        <time>2020-06-09T09:27:32Z</time>
      </trkpt>
      <trkpt lat="46.75754" lon="5.61811">
        <ele>261.2</ele>
        <time>2020-06-09T09:27:33Z</time>
      </trkpt>
      <trkpt lat="46.7575" lon="5.61811">
        <ele>261.2</ele>
        <time>2020-06-09T09:27:34Z</time>
      </trkpt>
      <trkpt lat="46.75746" lon="5.6181">
        <ele>261.4</ele>
        <time>2020-06-09T09:27:35Z</time>
      </trkpt>
      <trkpt lat="46.75742" lon="5.6181">
        <ele>261.6</ele>
        <time>2020-06-09T09:27:36Z</time>
      </trkpt>
      <trkpt lat="46.75738" lon="5.6181">
        <ele>261.6</ele>
        <time>2020-06-09T09:27:37Z</time>
      </trkpt>
      <trkpt lat="46.75734" lon="5.61809">
        <ele>262</ele>
        <time>2020-06-09T09:27:38Z</time>
      </trkpt>
      <trkpt lat="46.7573" lon="5.61809">
        <ele>262</ele>
        <time>2020-06-09T09:27:39Z</time>
      </trkpt>
      <trkpt lat="46.75726" lon="5.61809">
        <ele>262.4</ele>
        <time>2020-06-09T09:27:40Z</time>
      </trkpt>
      <trkpt lat="46.75723" lon="5.61808">
        <ele>262.4</ele>
        <time>2020-06-09T09:27:41Z</time>
      </trkpt>
      <trkpt lat="46.75719" lon="5.61808">
        <ele>262.8</ele>
        <time>2020-06-09T09:27:42Z</time>
      </trkpt>
      <trkpt lat="46.75715" lon="5.61807">
        <ele>263</ele>
        <time>2020-06-09T09:27:43Z</time>
      </trkpt>
      <trkpt lat="46.75711" lon="5.61807">
        <ele>263</ele>
        <time>2020-06-09T09:27:44Z</time>
      </trkpt>
      <trkpt lat="46.75707" lon="5.61806">
        <ele>263.4</ele>
        <time>2020-06-09T09:27:45Z</time>
      </trkpt>
      <trkpt lat="46.75704" lon="5.61806">
        <ele>263.6</ele>
        <time>2020-06-09T09:27:46Z</time>
      </trkpt>
      <trkpt lat="46.757" lon="5.61806">
        <ele>263.6</ele>
        <time>2020-06-09T09:27:47Z</time>
      </trkpt>
      <trkpt lat="46.75696" lon="5.61806">
        <ele>264</ele>
        <time>2020-06-09T09:27:48Z</time>
      </trkpt>
      <trkpt lat="46.75692" lon="5.61806">
        <ele>264.2</ele>
        <time>2020-06-09T09:27:49Z</time>
      </trkpt>
      <trkpt lat="46.75688" lon="5.61806">
        <ele>264.2</ele>
        <time>2020-06-09T09:27:50Z</time>
      </trkpt>
      <trkpt lat="46.75684" lon="5.61807">
        <ele>264.6</ele>
        <time>2020-06-09T09:27:51Z</time>
      </trkpt>
      <trkpt lat="46.75681" lon="5.61807">
        <ele>264.6</ele>
        <time>2020-06-09T09:27:52Z</time>
      </trkpt>
      <trkpt lat="46.75677" lon="5.61808">
        <ele>265</ele>
        <time>2020-06-09T09:27:53Z</time>
      </trkpt>
      <trkpt lat="46.75673" lon="5.61808">
        <ele>265</ele>
        <time>2020-06-09T09:27:54Z</time>
      </trkpt>
      <trkpt lat="46.75669" lon="5.61808">
        <ele>265.2</ele>
        <time>2020-06-09T09:27:55Z</time>
      </trkpt>
      <trkpt lat="46.75665" lon="5.61808">
        <ele>265.2</ele>
        <time>2020-06-09T09:27:56Z</time>
      </trkpt>
      <trkpt lat="46.75662" lon="5.61809">
        <ele>265.6</ele>
        <time>2020-06-09T09:27:57Z</time>
      </trkpt>
      <trkpt lat="46.75658" lon="5.6181">
        <ele>265.6</ele>
        <time>2020-06-09T09:27:58Z</time>
      </trkpt>
      <trkpt lat="46.75655" lon="5.61811">
        <ele>266</ele>
        <time>2020-06-09T09:27:59Z</time>
      </trkpt>
      <trkpt lat="46.75651" lon="5.61812">
        <ele>266</ele>
        <time>2020-06-09T09:28:00Z</time>
      </trkpt>
      <trkpt lat="46.75647" lon="5.61813">
        <ele>266.2</ele>
        <time>2020-06-09T09:28:01Z</time>
      </trkpt>
      <trkpt lat="46.75643" lon="5.61813">
        <ele>266.2</ele>
        <time>2020-06-09T09:28:02Z</time>
      </trkpt>
      <trkpt lat="46.75639" lon="5.61814">
        <ele>266.4</ele>
        <time>2020-06-09T09:28:03Z</time>
      </trkpt>
      <trkpt lat="46.75635" lon="5.61815">
        <ele>266.4</ele>
        <time>2020-06-09T09:28:04Z</time>
      </trkpt>
      <trkpt lat="46.75632" lon="5.61816">
        <ele>266.8</ele>
        <time>2020-06-09T09:28:05Z</time>
      </trkpt>
      <trkpt lat="46.75628" lon="5.61817">
        <ele>266.8</ele>
        <time>2020-06-09T09:28:06Z</time>
      </trkpt>
      <trkpt lat="46.75624" lon="5.61817">
        <ele>267.2</ele>
        <time>2020-06-09T09:28:07Z</time>
      </trkpt>
      <trkpt lat="46.7562" lon="5.61818">
        <ele>267.2</ele>
        <time>2020-06-09T09:28:08Z</time>
      </trkpt>
      <trkpt lat="46.75617" lon="5.6182">
        <ele>267.4</ele>
        <time>2020-06-09T09:28:09Z</time>
      </trkpt>
      <trkpt lat="46.75613" lon="5.61821">
        <ele>267.4</ele>
        <time>2020-06-09T09:28:10Z</time>
      </trkpt>
      <trkpt lat="46.75609" lon="5.61822">
        <ele>267.8</ele>
        <time>2020-06-09T09:28:11Z</time>
      </trkpt>
      <trkpt lat="46.75605" lon="5.61823">
        <ele>267.8</ele>
        <time>2020-06-09T09:28:12Z</time>
      </trkpt>
      <trkpt lat="46.75602" lon="5.61824">
        <ele>268</ele>
        <time>2020-06-09T09:28:13Z</time>
      </trkpt>
      <trkpt lat="46.75598" lon="5.61825">
        <ele>268</ele>
        <time>2020-06-09T09:28:14Z</time>
      </trkpt>
      <trkpt lat="46.75595" lon="5.61827">
        <ele>268.4</ele>
        <time>2020-06-09T09:28:15Z</time>
      </trkpt>
      <trkpt lat="46.75591" lon="5.61829">
        <ele>268.6</ele>
        <time>2020-06-09T09:28:16Z</time>
      </trkpt>
      <trkpt lat="46.75588" lon="5.61832">
        <ele>268.6</ele>
        <time>2020-06-09T09:28:17Z</time>
      </trkpt>
      <trkpt lat="46.75585" lon="5.61835">
        <ele>269</ele>
        <time>2020-06-09T09:28:18Z</time>
      </trkpt>
      <trkpt lat="46.75583" lon="5.6184">
        <ele>269</ele>
        <time>2020-06-09T09:28:19Z</time>
      </trkpt>
      <trkpt lat="46.75582" lon="5.61844">
        <ele>269.4</ele>
        <time>2020-06-09T09:28:20Z</time>
      </trkpt>
      <trkpt lat="46.75582" lon="5.6185">
        <ele>269.4</ele>
        <time>2020-06-09T09:28:21Z</time>
      </trkpt>
      <trkpt lat="46.75582" lon="5.61855">
        <ele>269.6</ele>
        <time>2020-06-09T09:28:22Z</time>
      </trkpt>
      <trkpt lat="46.75584" lon="5.6186">
        <ele>269.6</ele>
        <time>2020-06-09T09:28:23Z</time>
      </trkpt>
      <trkpt lat="46.75586" lon="5.61864">
        <ele>270</ele>
        <time>2020-06-09T09:28:24Z</time>
      </trkpt>
      <trkpt lat="46.75589" lon="5.61868">
        <ele>270</ele>
        <time>2020-06-09T09:28:25Z</time>
      </trkpt>
      <trkpt lat="46.75592" lon="5.61871">
        <ele>270.4</ele>
        <time>2020-06-09T09:28:26Z</time>
      </trkpt>
      <trkpt lat="46.75595" lon="5.61873">
        <ele>270.4</ele>
        <time>2020-06-09T09:28:27Z</time>
      </trkpt>
      <trkpt lat="46.75599" lon="5.61873">
        <ele>270.6</ele>
        <time>2020-06-09T09:28:28Z</time>
      </trkpt>
      <trkpt lat="46.75603" lon="5.61872">
        <ele>270.6</ele>
        <time>2020-06-09T09:28:29Z</time>
      </trkpt>
      <trkpt lat="46.75607" lon="5.6187">
        <ele>271</ele>
        <time>2020-06-09T09:28:30Z</time>
      </trkpt>
      <trkpt lat="46.75611" lon="5.61867">
        <ele>271</ele>
        <time>2020-06-09T09:28:31Z</time>
      </trkpt>
      <trkpt lat="46.75614" lon="5.61865">
        <ele>271.2</ele>
        <time>2020-06-09T09:28:32Z</time>
      </trkpt>
      <trkpt lat="46.75618" lon="5.61862">
        <ele>271.2</ele>
        <time>2020-06-09T09:28:33Z</time>
      </trkpt>
      <trkpt lat="46.75622" lon="5.6186">
        <ele>271.4</ele>
        <time>2020-06-09T09:28:34Z</time>
      </trkpt>
      <trkpt lat="46.75626" lon="5.61857">
        <ele>271.4</ele>
        <time>2020-06-09T09:28:35Z</time>
      </trkpt>
      <trkpt lat="46.7563" lon="5.61856">
        <ele>271.8</ele>
        <time>2020-06-09T09:28:36Z</time>
      </trkpt>
      <trkpt lat="46.75634" lon="5.61854">
        <ele>271.8</ele>
        <time>2020-06-09T09:28:37Z</time>
      </trkpt>
      <trkpt lat="46.75639" lon="5.61853">
        <ele>272</ele>
        <time>2020-06-09T09:28:38Z</time>
      </trkpt>
      <trkpt lat="46.75643" lon="5.61852">
        <ele>272</ele>
        <time>2020-06-09T09:28:39Z</time>
      </trkpt>
      <trkpt lat="46.75647" lon="5.61851">
        <ele>272.4</ele>
        <time>2020-06-09T09:28:40Z</time>
      </trkpt>
      <trkpt lat="46.75651" lon="5.61851">
        <ele>272.4</ele>
        <time>2020-06-09T09:28:41Z</time>
      </trkpt>
      <trkpt lat="46.75655" lon="5.61851">
        <ele>272.8</ele>
        <time>2020-06-09T09:28:42Z</time>
      </trkpt>
      <trkpt lat="46.75659" lon="5.6185">
        <ele>273</ele>
        <time>2020-06-09T09:28:43Z</time>
      </trkpt>
      <trkpt lat="46.75663" lon="5.6185">
        <ele>273</ele>
        <time>2020-06-09T09:28:44Z</time>
      </trkpt>
      <trkpt lat="46.75667" lon="5.6185">
        <ele>273.4</ele>
        <time>2020-06-09T09:28:45Z</time>
      </trkpt>
      <trkpt lat="46.75671" lon="5.61849">
        <ele>273.6</ele>
        <time>2020-06-09T09:28:46Z</time>
      </trkpt>
      <trkpt lat="46.75675" lon="5.61849">
        <ele>273.6</ele>
        <time>2020-06-09T09:28:47Z</time>
      </trkpt>
      <trkpt lat="46.75679" lon="5.61849">
        <ele>274</ele>
        <time>2020-06-09T09:28:48Z</time>
      </trkpt>
      <trkpt lat="46.75683" lon="5.61849">
        <ele>274.2</ele>
        <time>2020-06-09T09:28:49Z</time>
      </trkpt>
      <trkpt lat="46.75688" lon="5.6185">
        <ele>274.4</ele>
        <time>2020-06-09T09:28:50Z</time>
      </trkpt>
      <trkpt lat="46.75692" lon="5.61851">
        <ele>274.6</ele>
        <time>2020-06-09T09:28:51Z</time>
      </trkpt>
      <trkpt lat="46.75695" lon="5.61852">
        <ele>274.6</ele>
        <time>2020-06-09T09:28:52Z</time>
      </trkpt>
      <trkpt lat="46.75699" lon="5.61854">
        <ele>275</ele>
        <time>2020-06-09T09:28:53Z</time>
      </trkpt>
      <trkpt lat="46.75703" lon="5.61856">
        <ele>275</ele>
        <time>2020-06-09T09:28:54Z</time>
      </trkpt>
      <trkpt lat="46.75706" lon="5.61859">
        <ele>275</ele>
        <time>2020-06-09T09:28:55Z</time>
      </trkpt>
      <trkpt lat="46.75709" lon="5.61862">
        <ele>275.6</ele>
        <time>2020-06-09T09:28:56Z</time>
      </trkpt>
      <trkpt lat="46.75712" lon="5.61865">
        <ele>275.6</ele>
        <time>2020-06-09T09:28:57Z</time>
      </trkpt>
      <trkpt lat="46.75715" lon="5.61869">
        <ele>275.6</ele>
        <time>2020-06-09T09:28:58Z</time>
      </trkpt>
      <trkpt lat="46.75719" lon="5.61872">
        <ele>275.8</ele>
        <time>2020-06-09T09:28:59Z</time>
      </trkpt>
      <trkpt lat="46.75722" lon="5.61875">
        <ele>276</ele>
        <time>2020-06-09T09:29:00Z</time>
      </trkpt>
      <trkpt lat="46.75725" lon="5.61878">
        <ele>276</ele>
        <time>2020-06-09T09:29:01Z</time>
      </trkpt>
      <trkpt lat="46.75728" lon="5.61881">
        <ele>276.4</ele>
        <time>2020-06-09T09:29:02Z</time>
      </trkpt>
      <trkpt lat="46.75731" lon="5.61884">
        <ele>276.6</ele>
        <time>2020-06-09T09:29:03Z</time>
      </trkpt>
      <trkpt lat="46.75734" lon="5.61888">
        <ele>276.6</ele>
        <time>2020-06-09T09:29:04Z</time>
      </trkpt>
      <trkpt lat="46.75737" lon="5.61891">
        <ele>277</ele>
        <time>2020-06-09T09:29:05Z</time>
      </trkpt>
      <trkpt lat="46.75739" lon="5.61894">
        <ele>277</ele>
        <time>2020-06-09T09:29:06Z</time>
      </trkpt>
      <trkpt lat="46.75742" lon="5.61898">
        <ele>277.4</ele>
        <time>2020-06-09T09:29:07Z</time>
      </trkpt>
      <trkpt lat="46.75745" lon="5.61901">
        <ele>277.4</ele>
        <time>2020-06-09T09:29:08Z</time>
      </trkpt>
      <trkpt lat="46.75748" lon="5.61905">
        <ele>277.8</ele>
        <time>2020-06-09T09:29:09Z</time>
      </trkpt>
      <trkpt lat="46.75751" lon="5.61908">
        <ele>278</ele>
        <time>2020-06-09T09:29:10Z</time>
      </trkpt>
      <trkpt lat="46.75754" lon="5.61912">
        <ele>278</ele>
        <time>2020-06-09T09:29:11Z</time>
      </trkpt>
      <trkpt lat="46.75756" lon="5.61915">
        <ele>278.4</ele>
        <time>2020-06-09T09:29:12Z</time>
      </trkpt>
      <trkpt lat="46.75759" lon="5.61918">
        <ele>278.4</ele>
        <time>2020-06-09T09:29:13Z</time>
      </trkpt>
      <trkpt lat="46.75762" lon="5.61922">
        <ele>278.8</ele>
        <time>2020-06-09T09:29:14Z</time>
      </trkpt>
      <trkpt lat="46.75764" lon="5.61925">
        <ele>278.8</ele>
        <time>2020-06-09T09:29:15Z</time>
      </trkpt>
      <trkpt lat="46.75767" lon="5.61929">
        <ele>279.2</ele>
        <time>2020-06-09T09:29:16Z</time>
      </trkpt>
      <trkpt lat="46.75769" lon="5.61932">
        <ele>279.2</ele>
        <time>2020-06-09T09:29:17Z</time>
      </trkpt>
      <trkpt lat="46.75772" lon="5.61936">
        <ele>279.8</ele>
        <time>2020-06-09T09:29:18Z</time>
      </trkpt>
      <trkpt lat="46.75774" lon="5.61939">
        <ele>280</ele>
        <time>2020-06-09T09:29:19Z</time>
      </trkpt>
      <trkpt lat="46.75777" lon="5.61943">
        <ele>280</ele>
        <time>2020-06-09T09:29:20Z</time>
      </trkpt>
      <trkpt lat="46.75779" lon="5.61947">
        <ele>280.2</ele>
        <time>2020-06-09T09:29:21Z</time>
      </trkpt>
      <trkpt lat="46.75782" lon="5.61951">
        <ele>280.2</ele>
        <time>2020-06-09T09:29:22Z</time>
      </trkpt>
      <trkpt lat="46.75784" lon="5.61956">
        <ele>280.4</ele>
        <time>2020-06-09T09:29:23Z</time>
      </trkpt>
      <trkpt lat="46.75786" lon="5.6196">
        <ele>280.4</ele>
        <time>2020-06-09T09:29:24Z</time>
      </trkpt>
      <trkpt lat="46.75788" lon="5.61964">
        <ele>280.8</ele>
        <time>2020-06-09T09:29:25Z</time>
      </trkpt>
      <trkpt lat="46.7579" lon="5.61969">
        <ele>280.8</ele>
        <time>2020-06-09T09:29:26Z</time>
      </trkpt>
      <trkpt lat="46.75792" lon="5.61973">
        <ele>281.2</ele>
        <time>2020-06-09T09:29:27Z</time>
      </trkpt>
      <trkpt lat="46.75794" lon="5.61978">
        <ele>281.2</ele>
        <time>2020-06-09T09:29:28Z</time>
      </trkpt>
      <trkpt lat="46.75796" lon="5.61983">
        <ele>281.4</ele>
        <time>2020-06-09T09:29:29Z</time>
      </trkpt>
      <trkpt lat="46.75798" lon="5.61987">
        <ele>281.6</ele>
        <time>2020-06-09T09:29:30Z</time>
      </trkpt>
      <trkpt lat="46.75799" lon="5.61992">
        <ele>282</ele>
        <time>2020-06-09T09:29:31Z</time>
      </trkpt>
      <trkpt lat="46.75801" lon="5.61997">
        <ele>282</ele>
        <time>2020-06-09T09:29:32Z</time>
      </trkpt>
      <trkpt lat="46.75803" lon="5.62001">
        <ele>282.2</ele>
        <time>2020-06-09T09:29:33Z</time>
      </trkpt>
      <trkpt lat="46.75805" lon="5.62006">
        <ele>282.4</ele>
        <time>2020-06-09T09:29:34Z</time>
      </trkpt>
      <trkpt lat="46.75807" lon="5.62011">
        <ele>282.4</ele>
        <time>2020-06-09T09:29:35Z</time>
      </trkpt>
      <trkpt lat="46.75808" lon="5.62016">
        <ele>282.8</ele>
        <time>2020-06-09T09:29:36Z</time>
      </trkpt>
      <trkpt lat="46.7581" lon="5.62021">
        <ele>282.8</ele>
        <time>2020-06-09T09:29:37Z</time>
      </trkpt>
      <trkpt lat="46.75811" lon="5.62026">
        <ele>283.2</ele>
        <time>2020-06-09T09:29:38Z</time>
      </trkpt>
      <trkpt lat="46.75813" lon="5.62031">
        <ele>283.4</ele>
        <time>2020-06-09T09:29:39Z</time>
      </trkpt>
      <trkpt lat="46.75814" lon="5.62036">
        <ele>283.6</ele>
        <time>2020-06-09T09:29:40Z</time>
      </trkpt>
      <trkpt lat="46.75816" lon="5.62041">
        <ele>283.6</ele>
        <time>2020-06-09T09:29:41Z</time>
      </trkpt>
      <trkpt lat="46.75817" lon="5.62046">
        <ele>284</ele>
        <time>2020-06-09T09:29:42Z</time>
      </trkpt>
      <trkpt lat="46.75819" lon="5.62051">
        <ele>284</ele>
        <time>2020-06-09T09:29:43Z</time>
      </trkpt>
      <trkpt lat="46.7582" lon="5.62056">
        <ele>284.2</ele>
        <time>2020-06-09T09:29:44Z</time>
      </trkpt>
      <trkpt lat="46.75821" lon="5.62061">
        <ele>284.2</ele>
        <time>2020-06-09T09:29:45Z</time>
      </trkpt>
      <trkpt lat="46.75822" lon="5.62067">
        <ele>284.6</ele>
        <time>2020-06-09T09:29:46Z</time>
      </trkpt>
      <trkpt lat="46.75824" lon="5.62072">
        <ele>284.6</ele>
        <time>2020-06-09T09:29:47Z</time>
      </trkpt>
      <trkpt lat="46.75825" lon="5.62077">
        <ele>284.8</ele>
        <time>2020-06-09T09:29:48Z</time>
      </trkpt>
      <trkpt lat="46.75826" lon="5.62082">
        <ele>285</ele>
        <time>2020-06-09T09:29:49Z</time>
      </trkpt>
      <trkpt lat="46.75828" lon="5.62087">
        <ele>285</ele>
        <time>2020-06-09T09:29:50Z</time>
      </trkpt>
      <trkpt lat="46.75829" lon="5.62092">
        <ele>285.4</ele>
        <time>2020-06-09T09:29:51Z</time>
      </trkpt>
      <trkpt lat="46.7583" lon="5.62097">
        <ele>285.4</ele>
        <time>2020-06-09T09:29:52Z</time>
      </trkpt>
      <trkpt lat="46.75831" lon="5.62102">
        <ele>285.8</ele>
        <time>2020-06-09T09:29:53Z</time>
      </trkpt>
      <trkpt lat="46.75832" lon="5.62107">
        <ele>286</ele>
        <time>2020-06-09T09:29:54Z</time>
      </trkpt>
      <trkpt lat="46.75834" lon="5.62112">
        <ele>286</ele>
        <time>2020-06-09T09:29:55Z</time>
      </trkpt>
      <trkpt lat="46.75835" lon="5.62117">
        <ele>286.4</ele>
        <time>2020-06-09T09:29:56Z</time>
      </trkpt>
      <trkpt lat="46.75836" lon="5.62122">
        <ele>286.4</ele>
        <time>2020-06-09T09:29:57Z</time>
      </trkpt>
      <trkpt lat="46.75838" lon="5.62127">
        <ele>286.6</ele>
        <time>2020-06-09T09:29:58Z</time>
      </trkpt>
      <trkpt lat="46.75839" lon="5.62133">
        <ele>286.6</ele>
        <time>2020-06-09T09:29:59Z</time>
      </trkpt>
      <trkpt lat="46.7584" lon="5.62138">
        <ele>287</ele>
        <time>2020-06-09T09:30:00Z</time>
      </trkpt>
      <trkpt lat="46.75842" lon="5.62143">
        <ele>287.2</ele>
        <time>2020-06-09T09:30:01Z</time>
      </trkpt>
      <trkpt lat="46.75843" lon="5.62148">
        <ele>287.2</ele>
        <time>2020-06-09T09:30:02Z</time>
      </trkpt>
      <trkpt lat="46.75845" lon="5.62153">
        <ele>287.6</ele>
        <time>2020-06-09T09:30:03Z</time>
      </trkpt>
      <trkpt lat="46.75846" lon="5.62158">
        <ele>287.8</ele>
        <time>2020-06-09T09:30:04Z</time>
      </trkpt>
      <trkpt lat="46.75847" lon="5.62162">
        <ele>288</ele>
        <time>2020-06-09T09:30:05Z</time>
      </trkpt>
      <trkpt lat="46.75849" lon="5.62167">
        <ele>288.4</ele>
        <time>2020-06-09T09:30:06Z</time>
      </trkpt>
      <trkpt lat="46.7585" lon="5.62172">
        <ele>288.4</ele>
        <time>2020-06-09T09:30:07Z</time>
      </trkpt>
      <trkpt lat="46.75851" lon="5.62177">
        <ele>288.6</ele>
        <time>2020-06-09T09:30:08Z</time>
      </trkpt>
      <trkpt lat="46.75852" lon="5.62182">
        <ele>288.6</ele>
        <time>2020-06-09T09:30:09Z</time>
      </trkpt>
      <trkpt lat="46.75854" lon="5.62187">
        <ele>289</ele>
        <time>2020-06-09T09:30:10Z</time>
      </trkpt>
      <trkpt lat="46.75855" lon="5.62192">
        <ele>289</ele>
        <time>2020-06-09T09:30:11Z</time>
      </trkpt>
      <trkpt lat="46.75856" lon="5.62197">
        <ele>289.2</ele>
        <time>2020-06-09T09:30:12Z</time>
      </trkpt>
      <trkpt lat="46.75858" lon="5.62202">
        <ele>289.2</ele>
        <time>2020-06-09T09:30:13Z</time>
      </trkpt>
      <trkpt lat="46.75859" lon="5.62207">
        <ele>289.6</ele>
        <time>2020-06-09T09:30:14Z</time>
      </trkpt>
      <trkpt lat="46.7586" lon="5.62212">
        <ele>289.6</ele>
        <time>2020-06-09T09:30:15Z</time>
      </trkpt>
      <trkpt lat="46.75861" lon="5.62217">
        <ele>290</ele>
        <time>2020-06-09T09:30:16Z</time>
      </trkpt>
      <trkpt lat="46.75863" lon="5.62222">
        <ele>290</ele>
        <time>2020-06-09T09:30:17Z</time>
      </trkpt>
      <trkpt lat="46.75864" lon="5.62227">
        <ele>290.2</ele>
        <time>2020-06-09T09:30:18Z</time>
      </trkpt>
      <trkpt lat="46.75865" lon="5.62232">
        <ele>290.6</ele>
        <time>2020-06-09T09:30:19Z</time>
      </trkpt>
      <trkpt lat="46.75866" lon="5.62237">
        <ele>290.8</ele>
        <time>2020-06-09T09:30:20Z</time>
      </trkpt>
      <trkpt lat="46.75867" lon="5.62242">
        <ele>291</ele>
        <time>2020-06-09T09:30:21Z</time>
      </trkpt>
      <trkpt lat="46.75868" lon="5.62247">
        <ele>291.4</ele>
        <time>2020-06-09T09:30:22Z</time>
      </trkpt>
      <trkpt lat="46.75869" lon="5.62253">
        <ele>291.4</ele>
        <time>2020-06-09T09:30:23Z</time>
      </trkpt>
      <trkpt lat="46.7587" lon="5.62258">
        <ele>291.8</ele>
        <time>2020-06-09T09:30:24Z</time>
      </trkpt>
      <trkpt lat="46.75871" lon="5.62263">
        <ele>292</ele>
        <time>2020-06-09T09:30:25Z</time>
      </trkpt>
      <trkpt lat="46.75872" lon="5.62268">
        <ele>292.2</ele>
        <time>2020-06-09T09:30:26Z</time>
      </trkpt>
      <trkpt lat="46.75873" lon="5.62273">
        <ele>292.4</ele>
        <time>2020-06-09T09:30:27Z</time>
      </trkpt>
      <trkpt lat="46.75874" lon="5.62278">
        <ele>292.6</ele>
        <time>2020-06-09T09:30:28Z</time>
      </trkpt>
      <trkpt lat="46.75875" lon="5.62283">
        <ele>292.8</ele>
        <time>2020-06-09T09:30:29Z</time>
      </trkpt>
      <trkpt lat="46.75877" lon="5.62288">
        <ele>292.8</ele>
        <time>2020-06-09T09:30:30Z</time>
      </trkpt>
      <trkpt lat="46.75878" lon="5.62293">
        <ele>293.2</ele>
        <time>2020-06-09T09:30:31Z</time>
      </trkpt>
      <trkpt lat="46.75878" lon="5.62297">
        <ele>293.4</ele>
        <time>2020-06-09T09:30:32Z</time>
      </trkpt>
      <trkpt lat="46.75879" lon="5.62302">
        <ele>293.4</ele>
        <time>2020-06-09T09:30:33Z</time>
      </trkpt>
      <trkpt lat="46.7588" lon="5.62307">
        <ele>293.8</ele>
        <time>2020-06-09T09:30:34Z</time>
      </trkpt>
      <trkpt lat="46.75881" lon="5.62312">
        <ele>294</ele>
        <time>2020-06-09T09:30:35Z</time>
      </trkpt>
      <trkpt lat="46.75882" lon="5.62317">
        <ele>294.2</ele>
        <time>2020-06-09T09:30:36Z</time>
      </trkpt>
      <trkpt lat="46.75883" lon="5.62322">
        <ele>294.2</ele>
        <time>2020-06-09T09:30:37Z</time>
      </trkpt>
      <trkpt lat="46.75883" lon="5.62327">
        <ele>294.4</ele>
        <time>2020-06-09T09:30:38Z</time>
      </trkpt>
      <trkpt lat="46.75884" lon="5.62332">
        <ele>294.4</ele>
        <time>2020-06-09T09:30:39Z</time>
      </trkpt>
      <trkpt lat="46.75885" lon="5.62337">
        <ele>294.8</ele>
        <time>2020-06-09T09:30:40Z</time>
      </trkpt>
      <trkpt lat="46.75885" lon="5.62342">
        <ele>294.8</ele>
        <time>2020-06-09T09:30:41Z</time>
      </trkpt>
      <trkpt lat="46.75886" lon="5.62347">
        <ele>295.2</ele>
        <time>2020-06-09T09:30:42Z</time>
      </trkpt>
      <trkpt lat="46.75887" lon="5.62352">
        <ele>295.2</ele>
        <time>2020-06-09T09:30:43Z</time>
      </trkpt>
      <trkpt lat="46.75887" lon="5.62357">
        <ele>295.6</ele>
        <time>2020-06-09T09:30:44Z</time>
      </trkpt>
      <trkpt lat="46.75888" lon="5.62361">
        <ele>295.8</ele>
        <time>2020-06-09T09:30:45Z</time>
      </trkpt>
      <trkpt lat="46.75889" lon="5.62366">
        <ele>296</ele>
        <time>2020-06-09T09:30:46Z</time>
      </trkpt>
      <trkpt lat="46.7589" lon="5.62371">
        <ele>296.4</ele>
        <time>2020-06-09T09:30:47Z</time>
      </trkpt>
      <trkpt lat="46.75891" lon="5.62376">
        <ele>296.6</ele>
        <time>2020-06-09T09:30:48Z</time>
      </trkpt>
      <trkpt lat="46.75891" lon="5.62382">
        <ele>296.8</ele>
        <time>2020-06-09T09:30:49Z</time>
      </trkpt>
      <trkpt lat="46.75892" lon="5.62386">
        <ele>297.2</ele>
        <time>2020-06-09T09:30:50Z</time>
      </trkpt>
      <trkpt lat="46.75892" lon="5.62391">
        <ele>297.4</ele>
        <time>2020-06-09T09:30:51Z</time>
      </trkpt>
      <trkpt lat="46.75893" lon="5.62397">
        <ele>297.4</ele>
        <time>2020-06-09T09:30:52Z</time>
      </trkpt>
      <trkpt lat="46.75893" lon="5.62402">
        <ele>297.8</ele>
        <time>2020-06-09T09:30:53Z</time>
      </trkpt>
      <trkpt lat="46.75894" lon="5.62406">
        <ele>298</ele>
        <time>2020-06-09T09:30:54Z</time>
      </trkpt>
      <trkpt lat="46.75895" lon="5.62411">
        <ele>298</ele>
        <time>2020-06-09T09:30:55Z</time>
      </trkpt>
      <trkpt lat="46.75896" lon="5.62416">
        <ele>298.6</ele>
        <time>2020-06-09T09:30:56Z</time>
      </trkpt>
      <trkpt lat="46.75896" lon="5.62421">
        <ele>298.8</ele>
        <time>2020-06-09T09:30:57Z</time>
      </trkpt>
      <trkpt lat="46.75897" lon="5.62426">
        <ele>298.8</ele>
        <time>2020-06-09T09:30:58Z</time>
      </trkpt>
      <trkpt lat="46.75897" lon="5.62431">
        <ele>299.2</ele>
        <time>2020-06-09T09:30:59Z</time>
      </trkpt>
      <trkpt lat="46.75898" lon="5.62436">
        <ele>299.4</ele>
        <time>2020-06-09T09:31:00Z</time>
      </trkpt>
      <trkpt lat="46.75898" lon="5.62442">
        <ele>299.4</ele>
        <time>2020-06-09T09:31:01Z</time>
      </trkpt>
      <trkpt lat="46.75899" lon="5.62447">
        <ele>299.6</ele>
        <time>2020-06-09T09:31:02Z</time>
      </trkpt>
      <trkpt lat="46.759" lon="5.62452">
        <ele>299.6</ele>
        <time>2020-06-09T09:31:03Z</time>
      </trkpt>
      <trkpt lat="46.75901" lon="5.62457">
        <ele>300</ele>
        <time>2020-06-09T09:31:04Z</time>
      </trkpt>
      <trkpt lat="46.75901" lon="5.62463">
        <ele>300.2</ele>
        <time>2020-06-09T09:31:05Z</time>
      </trkpt>
      <trkpt lat="46.75902" lon="5.62468">
        <ele>300.2</ele>
        <time>2020-06-09T09:31:06Z</time>
      </trkpt>
      <trkpt lat="46.75902" lon="5.62473">
        <ele>300.6</ele>
        <time>2020-06-09T09:31:07Z</time>
      </trkpt>
      <trkpt lat="46.75903" lon="5.62478">
        <ele>300.8</ele>
        <time>2020-06-09T09:31:08Z</time>
      </trkpt>
      <trkpt lat="46.75904" lon="5.62484">
        <ele>300.8</ele>
        <time>2020-06-09T09:31:09Z</time>
      </trkpt>
      <trkpt lat="46.75904" lon="5.62489">
        <ele>301.2</ele>
        <time>2020-06-09T09:31:10Z</time>
      </trkpt>
      <trkpt lat="46.75904" lon="5.62495">
        <ele>301.4</ele>
        <time>2020-06-09T09:31:11Z</time>
      </trkpt>
      <trkpt lat="46.75905" lon="5.625">
        <ele>301.6</ele>
        <time>2020-06-09T09:31:12Z</time>
      </trkpt>
      <trkpt lat="46.75906" lon="5.62505">
        <ele>301.6</ele>
        <time>2020-06-09T09:31:13Z</time>
      </trkpt>
      <trkpt lat="46.75906" lon="5.62511">
        <ele>302</ele>
        <time>2020-06-09T09:31:14Z</time>
      </trkpt>
      <trkpt lat="46.75907" lon="5.62516">
        <ele>302</ele>
        <time>2020-06-09T09:31:15Z</time>
      </trkpt>
      <trkpt lat="46.75908" lon="5.62522">
        <ele>302.4</ele>
        <time>2020-06-09T09:31:16Z</time>
      </trkpt>
      <trkpt lat="46.75908" lon="5.62527">
        <ele>302.4</ele>
        <time>2020-06-09T09:31:17Z</time>
      </trkpt>
      <trkpt lat="46.75909" lon="5.62532">
        <ele>302.6</ele>
        <time>2020-06-09T09:31:18Z</time>
      </trkpt>
      <trkpt lat="46.7591" lon="5.62538">
        <ele>303</ele>
        <time>2020-06-09T09:31:19Z</time>
      </trkpt>
      <trkpt lat="46.7591" lon="5.62543">
        <ele>303.2</ele>
        <time>2020-06-09T09:31:20Z</time>
      </trkpt>
      <trkpt lat="46.75911" lon="5.62548">
        <ele>303.4</ele>
        <time>2020-06-09T09:31:21Z</time>
      </trkpt>
      <trkpt lat="46.75912" lon="5.62553">
        <ele>303.4</ele>
        <time>2020-06-09T09:31:22Z</time>
      </trkpt>
      <trkpt lat="46.75912" lon="5.62559">
        <ele>303.8</ele>
        <time>2020-06-09T09:31:23Z</time>
      </trkpt>
      <trkpt lat="46.75912" lon="5.62564">
        <ele>304</ele>
        <time>2020-06-09T09:31:24Z</time>
      </trkpt>
      <trkpt lat="46.75913" lon="5.62569">
        <ele>304.2</ele>
        <time>2020-06-09T09:31:25Z</time>
      </trkpt>
      <trkpt lat="46.75913" lon="5.62574">
        <ele>304.6</ele>
        <time>2020-06-09T09:31:26Z</time>
      </trkpt>
      <trkpt lat="46.75914" lon="5.62579">
        <ele>304.8</ele>
        <time>2020-06-09T09:31:27Z</time>
      </trkpt>
      <trkpt lat="46.75914" lon="5.62583">
        <ele>305.2</ele>
        <time>2020-06-09T09:31:28Z</time>
      </trkpt>
      <trkpt lat="46.75914" lon="5.62588">
        <ele>305.4</ele>
        <time>2020-06-09T09:31:29Z</time>
      </trkpt>
      <trkpt lat="46.75915" lon="5.62593">
        <ele>305.6</ele>
        <time>2020-06-09T09:31:30Z</time>
      </trkpt>
      <trkpt lat="46.75916" lon="5.62598">
        <ele>305.8</ele>
        <time>2020-06-09T09:31:31Z</time>
      </trkpt>
      <trkpt lat="46.75916" lon="5.62603">
        <ele>306.2</ele>
        <time>2020-06-09T09:31:32Z</time>
      </trkpt>
      <trkpt lat="46.75917" lon="5.62609">
        <ele>306.2</ele>
        <time>2020-06-09T09:31:33Z</time>
      </trkpt>
      <trkpt lat="46.75918" lon="5.62614">
        <ele>306.6</ele>
        <time>2020-06-09T09:31:34Z</time>
      </trkpt>
      <trkpt lat="46.75918" lon="5.62619">
        <ele>306.8</ele>
        <time>2020-06-09T09:31:35Z</time>
      </trkpt>
      <trkpt lat="46.75919" lon="5.62624">
        <ele>306.8</ele>
        <time>2020-06-09T09:31:36Z</time>
      </trkpt>
      <trkpt lat="46.7592" lon="5.6263">
        <ele>307</ele>
        <time>2020-06-09T09:31:37Z</time>
      </trkpt>
      <trkpt lat="46.75921" lon="5.62635">
        <ele>307</ele>
        <time>2020-06-09T09:31:38Z</time>
      </trkpt>
      <trkpt lat="46.75922" lon="5.62641">
        <ele>307.4</ele>
        <time>2020-06-09T09:31:39Z</time>
      </trkpt>
      <trkpt lat="46.75923" lon="5.62646">
        <ele>307.8</ele>
        <time>2020-06-09T09:31:40Z</time>
      </trkpt>
      <trkpt lat="46.75925" lon="5.62652">
        <ele>308</ele>
        <time>2020-06-09T09:31:41Z</time>
      </trkpt>
      <trkpt lat="46.75926" lon="5.62657">
        <ele>308.2</ele>
        <time>2020-06-09T09:31:42Z</time>
      </trkpt>
      <trkpt lat="46.75927" lon="5.62663">
        <ele>308.4</ele>
        <time>2020-06-09T09:31:43Z</time>
      </trkpt>
      <trkpt lat="46.75927" lon="5.62668">
        <ele>308.8</ele>
        <time>2020-06-09T09:31:44Z</time>
      </trkpt>
      <trkpt lat="46.75928" lon="5.62673">
        <ele>308.8</ele>
        <time>2020-06-09T09:31:45Z</time>
      </trkpt>
      <trkpt lat="46.75929" lon="5.62678">
        <ele>309.2</ele>
        <time>2020-06-09T09:31:46Z</time>
      </trkpt>
      <trkpt lat="46.7593" lon="5.62683">
        <ele>309.4</ele>
        <time>2020-06-09T09:31:47Z</time>
      </trkpt>
      <trkpt lat="46.75931" lon="5.62688">
        <ele>309.6</ele>
        <time>2020-06-09T09:31:48Z</time>
      </trkpt>
      <trkpt lat="46.75931" lon="5.62693">
        <ele>309.8</ele>
        <time>2020-06-09T09:31:49Z</time>
      </trkpt>
      <trkpt lat="46.75932" lon="5.62698">
        <ele>309.8</ele>
        <time>2020-06-09T09:31:50Z</time>
      </trkpt>
      <trkpt lat="46.75932" lon="5.62703">
        <ele>310.2</ele>
        <time>2020-06-09T09:31:51Z</time>
      </trkpt>
      <trkpt lat="46.75933" lon="5.62708">
        <ele>310.2</ele>
        <time>2020-06-09T09:31:52Z</time>
      </trkpt>
      <trkpt lat="46.75934" lon="5.62714">
        <ele>310.8</ele>
        <time>2020-06-09T09:31:53Z</time>
      </trkpt>
      <trkpt lat="46.75935" lon="5.62719">
        <ele>311</ele>
        <time>2020-06-09T09:31:54Z</time>
      </trkpt>
      <trkpt lat="46.75933" lon="5.62725">
        <ele>311.2</ele>
        <time>2020-06-09T09:31:55Z</time>
      </trkpt>
      <trkpt lat="46.75934" lon="5.62731">
        <ele>311.4</ele>
        <time>2020-06-09T09:31:56Z</time>
      </trkpt>
      <trkpt lat="46.75935" lon="5.62736">
        <ele>311.4</ele>
        <time>2020-06-09T09:31:57Z</time>
      </trkpt>
      <trkpt lat="46.75935" lon="5.62741">
        <ele>311.8</ele>
        <time>2020-06-09T09:31:58Z</time>
      </trkpt>
      <trkpt lat="46.75936" lon="5.62746">
        <ele>312</ele>
        <time>2020-06-09T09:31:59Z</time>
      </trkpt>
      <trkpt lat="46.75938" lon="5.62751">
        <ele>312.2</ele>
        <time>2020-06-09T09:32:00Z</time>
      </trkpt>
      <trkpt lat="46.75939" lon="5.62756">
        <ele>312.4</ele>
        <time>2020-06-09T09:32:01Z</time>
      </trkpt>
      <trkpt lat="46.75939" lon="5.62761">
        <ele>312.4</ele>
        <time>2020-06-09T09:32:02Z</time>
      </trkpt>
      <trkpt lat="46.75942" lon="5.62766">
        <ele>312.8</ele>
        <time>2020-06-09T09:32:03Z</time>
      </trkpt>
      <trkpt lat="46.75943" lon="5.62771">
        <ele>312.8</ele>
        <time>2020-06-09T09:32:04Z</time>
      </trkpt>
      <trkpt lat="46.75944" lon="5.62776">
        <ele>313.2</ele>
        <time>2020-06-09T09:32:05Z</time>
      </trkpt>
      <trkpt lat="46.75945" lon="5.62781">
        <ele>313.2</ele>
        <time>2020-06-09T09:32:06Z</time>
      </trkpt>
      <trkpt lat="46.75947" lon="5.62786">
        <ele>313.6</ele>
        <time>2020-06-09T09:32:07Z</time>
      </trkpt>
      <trkpt lat="46.75949" lon="5.62791">
        <ele>313.8</ele>
        <time>2020-06-09T09:32:08Z</time>
      </trkpt>
      <trkpt lat="46.7595" lon="5.62796">
        <ele>313.8</ele>
        <time>2020-06-09T09:32:09Z</time>
      </trkpt>
      <trkpt lat="46.75952" lon="5.628">
        <ele>314.2</ele>
        <time>2020-06-09T09:32:10Z</time>
      </trkpt>
      <trkpt lat="46.75952" lon="5.62805">
        <ele>314.2</ele>
        <time>2020-06-09T09:32:11Z</time>
      </trkpt>
      <trkpt lat="46.75954" lon="5.6281">
        <ele>314.4</ele>
        <time>2020-06-09T09:32:12Z</time>
      </trkpt>
      <trkpt lat="46.75955" lon="5.62814">
        <ele>314.6</ele>
        <time>2020-06-09T09:32:13Z</time>
      </trkpt>
      <trkpt lat="46.75957" lon="5.62819">
        <ele>314.6</ele>
        <time>2020-06-09T09:32:14Z</time>
      </trkpt>
      <trkpt lat="46.75959" lon="5.62823">
        <ele>315.2</ele>
        <time>2020-06-09T09:32:15Z</time>
      </trkpt>
      <trkpt lat="46.7596" lon="5.62827">
        <ele>315.4</ele>
        <time>2020-06-09T09:32:16Z</time>
      </trkpt>
      <trkpt lat="46.75962" lon="5.62831">
        <ele>315.8</ele>
        <time>2020-06-09T09:32:17Z</time>
      </trkpt>
      <trkpt lat="46.75964" lon="5.62835">
        <ele>315.8</ele>
        <time>2020-06-09T09:32:18Z</time>
      </trkpt>
      <trkpt lat="46.75967" lon="5.62839">
        <ele>316</ele>
        <time>2020-06-09T09:32:19Z</time>
      </trkpt>
      <trkpt lat="46.75969" lon="5.62843">
        <ele>316</ele>
        <time>2020-06-09T09:32:20Z</time>
      </trkpt>
      <trkpt lat="46.75971" lon="5.62847">
        <ele>316.6</ele>
        <time>2020-06-09T09:32:21Z</time>
      </trkpt>
      <trkpt lat="46.75973" lon="5.62851">
        <ele>316.8</ele>
        <time>2020-06-09T09:32:22Z</time>
      </trkpt>
      <trkpt lat="46.75974" lon="5.62855">
        <ele>317</ele>
        <time>2020-06-09T09:32:23Z</time>
      </trkpt>
      <trkpt lat="46.75976" lon="5.62859">
        <ele>317.2</ele>
        <time>2020-06-09T09:32:24Z</time>
      </trkpt>
      <trkpt lat="46.75978" lon="5.62863">
        <ele>317.6</ele>
        <time>2020-06-09T09:32:25Z</time>
      </trkpt>
      <trkpt lat="46.75979" lon="5.62867">
        <ele>317.8</ele>
        <time>2020-06-09T09:32:26Z</time>
      </trkpt>
      <trkpt lat="46.75981" lon="5.62871">
        <ele>318</ele>
        <time>2020-06-09T09:32:27Z</time>
      </trkpt>
      <trkpt lat="46.75982" lon="5.62876">
        <ele>318.2</ele>
        <time>2020-06-09T09:32:28Z</time>
      </trkpt>
      <trkpt lat="46.75984" lon="5.6288">
        <ele>318.2</ele>
        <time>2020-06-09T09:32:29Z</time>
      </trkpt>
      <trkpt lat="46.75985" lon="5.62885">
        <ele>318.6</ele>
        <time>2020-06-09T09:32:30Z</time>
      </trkpt>
      <trkpt lat="46.75986" lon="5.6289">
        <ele>318.6</ele>
        <time>2020-06-09T09:32:31Z</time>
      </trkpt>
      <trkpt lat="46.75987" lon="5.62895">
        <ele>318.8</ele>
        <time>2020-06-09T09:32:32Z</time>
      </trkpt>
      <trkpt lat="46.75988" lon="5.62899">
        <ele>318.8</ele>
        <time>2020-06-09T09:32:33Z</time>
      </trkpt>
      <trkpt lat="46.75988" lon="5.62904">
        <ele>319.2</ele>
        <time>2020-06-09T09:32:34Z</time>
      </trkpt>
      <trkpt lat="46.75989" lon="5.62909">
        <ele>319.2</ele>
        <time>2020-06-09T09:32:35Z</time>
      </trkpt>
      <trkpt lat="46.7599" lon="5.62913">
        <ele>319.2</ele>
        <time>2020-06-09T09:32:36Z</time>
      </trkpt>
      <trkpt lat="46.7599" lon="5.62918">
        <ele>319.6</ele>
        <time>2020-06-09T09:32:37Z</time>
      </trkpt>
      <trkpt lat="46.75991" lon="5.62923">
        <ele>319.8</ele>
        <time>2020-06-09T09:32:38Z</time>
      </trkpt>
      <trkpt lat="46.75991" lon="5.62928">
        <ele>319.8</ele>
        <time>2020-06-09T09:32:39Z</time>
      </trkpt>
      <trkpt lat="46.75992" lon="5.62933">
        <ele>320</ele>
        <time>2020-06-09T09:32:40Z</time>
      </trkpt>
      <trkpt lat="46.75992" lon="5.62938">
        <ele>320</ele>
        <time>2020-06-09T09:32:41Z</time>
      </trkpt>
      <trkpt lat="46.75992" lon="5.62942">
        <ele>320.2</ele>
        <time>2020-06-09T09:32:42Z</time>
      </trkpt>
      <trkpt lat="46.75992" lon="5.62947">
        <ele>320.4</ele>
        <time>2020-06-09T09:32:43Z</time>
      </trkpt>
      <trkpt lat="46.75993" lon="5.62952">
        <ele>320.8</ele>
        <time>2020-06-09T09:32:44Z</time>
      </trkpt>
      <trkpt lat="46.75994" lon="5.62957">
        <ele>321</ele>
        <time>2020-06-09T09:32:45Z</time>
      </trkpt>
      <trkpt lat="46.75995" lon="5.62962">
        <ele>321</ele>
        <time>2020-06-09T09:32:46Z</time>
      </trkpt>
      <trkpt lat="46.75996" lon="5.62966">
        <ele>321.2</ele>
        <time>2020-06-09T09:32:47Z</time>
      </trkpt>
      <trkpt lat="46.75996" lon="5.62971">
        <ele>321.2</ele>
        <time>2020-06-09T09:32:48Z</time>
      </trkpt>
      <trkpt lat="46.75997" lon="5.62976">
        <ele>321.6</ele>
        <time>2020-06-09T09:32:49Z</time>
      </trkpt>
      <trkpt lat="46.75998" lon="5.62981">
        <ele>321.6</ele>
        <time>2020-06-09T09:32:50Z</time>
      </trkpt>
      <trkpt lat="46.75999" lon="5.62986">
        <ele>322</ele>
        <time>2020-06-09T09:32:51Z</time>
      </trkpt>
      <trkpt lat="46.76" lon="5.62991">
        <ele>322</ele>
        <time>2020-06-09T09:32:52Z</time>
      </trkpt>
      <trkpt lat="46.76001" lon="5.62995">
        <ele>322.2</ele>
        <time>2020-06-09T09:32:53Z</time>
      </trkpt>
      <trkpt lat="46.76003" lon="5.63">
        <ele>322.6</ele>
        <time>2020-06-09T09:32:54Z</time>
      </trkpt>
      <trkpt lat="46.76004" lon="5.63004">
        <ele>322.8</ele>
        <time>2020-06-09T09:32:55Z</time>
      </trkpt>
      <trkpt lat="46.76005" lon="5.63009">
        <ele>323</ele>
        <time>2020-06-09T09:32:56Z</time>
      </trkpt>
      <trkpt lat="46.76006" lon="5.63013">
        <ele>323.2</ele>
        <time>2020-06-09T09:32:57Z</time>
      </trkpt>
      <trkpt lat="46.76007" lon="5.63018">
        <ele>323.4</ele>
        <time>2020-06-09T09:32:58Z</time>
      </trkpt>
      <trkpt lat="46.76008" lon="5.63022">
        <ele>323.4</ele>
        <time>2020-06-09T09:32:59Z</time>
      </trkpt>
      <trkpt lat="46.76009" lon="5.63027">
        <ele>323.8</ele>
        <time>2020-06-09T09:33:00Z</time>
      </trkpt>
      <trkpt lat="46.7601" lon="5.63031">
        <ele>323.8</ele>
        <time>2020-06-09T09:33:01Z</time>
      </trkpt>
      <trkpt lat="46.76012" lon="5.63035">
        <ele>324.2</ele>
        <time>2020-06-09T09:33:02Z</time>
      </trkpt>
      <trkpt lat="46.76013" lon="5.63039">
        <ele>324.2</ele>
        <time>2020-06-09T09:33:03Z</time>
      </trkpt>
      <trkpt lat="46.76014" lon="5.63043">
        <ele>324.4</ele>
        <time>2020-06-09T09:33:04Z</time>
      </trkpt>
      <trkpt lat="46.76016" lon="5.63047">
        <ele>324.4</ele>
        <time>2020-06-09T09:33:05Z</time>
      </trkpt>
      <trkpt lat="46.76017" lon="5.63051">
        <ele>324.8</ele>
        <time>2020-06-09T09:33:06Z</time>
      </trkpt>
      <trkpt lat="46.76019" lon="5.63055">
        <ele>324.8</ele>
        <time>2020-06-09T09:33:07Z</time>
      </trkpt>
      <trkpt lat="46.76021" lon="5.63059">
        <ele>325.2</ele>
        <time>2020-06-09T09:33:08Z</time>
      </trkpt>
      <trkpt lat="46.76022" lon="5.63063">
        <ele>325.2</ele>
        <time>2020-06-09T09:33:09Z</time>
      </trkpt>
      <trkpt lat="46.76024" lon="5.63067">
        <ele>325.4</ele>
        <time>2020-06-09T09:33:10Z</time>
      </trkpt>
      <trkpt lat="46.76026" lon="5.63071">
        <ele>325.6</ele>
        <time>2020-06-09T09:33:11Z</time>
      </trkpt>
      <trkpt lat="46.76028" lon="5.63075">
        <ele>326</ele>
        <time>2020-06-09T09:33:12Z</time>
      </trkpt>
      <trkpt lat="46.7603" lon="5.63079">
        <ele>326</ele>
        <time>2020-06-09T09:33:13Z</time>
      </trkpt>
      <trkpt lat="46.76032" lon="5.63082">
        <ele>326.2</ele>
        <time>2020-06-09T09:33:14Z</time>
      </trkpt>
      <trkpt lat="46.76035" lon="5.63086">
        <ele>326.2</ele>
        <time>2020-06-09T09:33:15Z</time>
      </trkpt>
      <trkpt lat="46.76037" lon="5.63089">
        <ele>326.6</ele>
        <time>2020-06-09T09:33:16Z</time>
      </trkpt>
      <trkpt lat="46.76039" lon="5.63093">
        <ele>326.6</ele>
        <time>2020-06-09T09:33:17Z</time>
      </trkpt>
      <trkpt lat="46.76041" lon="5.63096">
        <ele>326.8</ele>
        <time>2020-06-09T09:33:18Z</time>
      </trkpt>
      <trkpt lat="46.76043" lon="5.631">
        <ele>326.8</ele>
        <time>2020-06-09T09:33:19Z</time>
      </trkpt>
      <trkpt lat="46.76045" lon="5.63103">
        <ele>327.2</ele>
        <time>2020-06-09T09:33:20Z</time>
      </trkpt>
      <trkpt lat="46.76047" lon="5.63107">
        <ele>327.2</ele>
        <time>2020-06-09T09:33:21Z</time>
      </trkpt>
      <trkpt lat="46.76049" lon="5.6311">
        <ele>327.4</ele>
        <time>2020-06-09T09:33:22Z</time>
      </trkpt>
      <trkpt lat="46.76051" lon="5.63114">
        <ele>327.4</ele>
        <time>2020-06-09T09:33:23Z</time>
      </trkpt>
      <trkpt lat="46.76053" lon="5.63117">
        <ele>327.6</ele>
        <time>2020-06-09T09:33:24Z</time>
      </trkpt>
      <trkpt lat="46.76055" lon="5.63121">
        <ele>327.6</ele>
        <time>2020-06-09T09:33:25Z</time>
      </trkpt>
      <trkpt lat="46.76058" lon="5.63125">
        <ele>328</ele>
        <time>2020-06-09T09:33:26Z</time>
      </trkpt>
      <trkpt lat="46.7606" lon="5.63128">
        <ele>328</ele>
        <time>2020-06-09T09:33:27Z</time>
      </trkpt>
      <trkpt lat="46.76063" lon="5.63132">
        <ele>328</ele>
        <time>2020-06-09T09:33:28Z</time>
      </trkpt>
      <trkpt lat="46.76066" lon="5.63136">
        <ele>328</ele>
        <time>2020-06-09T09:33:29Z</time>
      </trkpt>
      <trkpt lat="46.76068" lon="5.6314">
        <ele>328.2</ele>
        <time>2020-06-09T09:33:30Z</time>
      </trkpt>
      <trkpt lat="46.76071" lon="5.63144">
        <ele>328.2</ele>
        <time>2020-06-09T09:33:31Z</time>
      </trkpt>
      <trkpt lat="46.76073" lon="5.63149">
        <ele>328.6</ele>
        <time>2020-06-09T09:33:32Z</time>
      </trkpt>
      <trkpt lat="46.76076" lon="5.63153">
        <ele>328.6</ele>
        <time>2020-06-09T09:33:33Z</time>
      </trkpt>
      <trkpt lat="46.76078" lon="5.63157">
        <ele>329</ele>
        <time>2020-06-09T09:33:34Z</time>
      </trkpt>
      <trkpt lat="46.7608" lon="5.63162">
        <ele>329</ele>
        <time>2020-06-09T09:33:35Z</time>
      </trkpt>
      <trkpt lat="46.76082" lon="5.63166">
        <ele>329.2</ele>
        <time>2020-06-09T09:33:36Z</time>
      </trkpt>
      <trkpt lat="46.76084" lon="5.63171">
        <ele>329.4</ele>
        <time>2020-06-09T09:33:37Z</time>
      </trkpt>
      <trkpt lat="46.76085" lon="5.63176">
        <ele>329.4</ele>
        <time>2020-06-09T09:33:38Z</time>
      </trkpt>
      <trkpt lat="46.76086" lon="5.63182">
        <ele>329.6</ele>
        <time>2020-06-09T09:33:39Z</time>
      </trkpt>
      <trkpt lat="46.76086" lon="5.63187">
        <ele>329.6</ele>
        <time>2020-06-09T09:33:40Z</time>
      </trkpt>
      <trkpt lat="46.76087" lon="5.63192">
        <ele>330</ele>
        <time>2020-06-09T09:33:41Z</time>
      </trkpt>
      <trkpt lat="46.76087" lon="5.63197">
        <ele>330.2</ele>
        <time>2020-06-09T09:33:42Z</time>
      </trkpt>
      <trkpt lat="46.76088" lon="5.63202">
        <ele>330.2</ele>
        <time>2020-06-09T09:33:43Z</time>
      </trkpt>
      <trkpt lat="46.76089" lon="5.63207">
        <ele>330.6</ele>
        <time>2020-06-09T09:33:44Z</time>
      </trkpt>
      <trkpt lat="46.7609" lon="5.63213">
        <ele>330.6</ele>
        <time>2020-06-09T09:33:45Z</time>
      </trkpt>
      <trkpt lat="46.76091" lon="5.63217">
        <ele>331</ele>
        <time>2020-06-09T09:33:46Z</time>
      </trkpt>
      <trkpt lat="46.76092" lon="5.63222">
        <ele>331</ele>
        <time>2020-06-09T09:33:47Z</time>
      </trkpt>
      <trkpt lat="46.76094" lon="5.63227">
        <ele>331.2</ele>
        <time>2020-06-09T09:33:48Z</time>
      </trkpt>
      <trkpt lat="46.76096" lon="5.63232">
        <ele>331.6</ele>
        <time>2020-06-09T09:33:49Z</time>
      </trkpt>
      <trkpt lat="46.76098" lon="5.63236">
        <ele>331.6</ele>
        <time>2020-06-09T09:33:50Z</time>
      </trkpt>
      <trkpt lat="46.761" lon="5.63241">
        <ele>331.8</ele>
        <time>2020-06-09T09:33:51Z</time>
      </trkpt>
      <trkpt lat="46.76102" lon="5.63245">
        <ele>331.8</ele>
        <time>2020-06-09T09:33:52Z</time>
      </trkpt>
      <trkpt lat="46.76105" lon="5.63248">
        <ele>331.8</ele>
        <time>2020-06-09T09:33:53Z</time>
      </trkpt>
      <trkpt lat="46.76107" lon="5.63252">
        <ele>332</ele>
        <time>2020-06-09T09:33:54Z</time>
      </trkpt>
      <trkpt lat="46.7611" lon="5.63256">
        <ele>332</ele>
        <time>2020-06-09T09:33:55Z</time>
      </trkpt>
      <trkpt lat="46.76113" lon="5.63259">
        <ele>332.2</ele>
        <time>2020-06-09T09:33:56Z</time>
      </trkpt>
      <trkpt lat="46.76116" lon="5.63263">
        <ele>332.2</ele>
        <time>2020-06-09T09:33:57Z</time>
      </trkpt>
      <trkpt lat="46.76119" lon="5.63266">
        <ele>332.6</ele>
        <time>2020-06-09T09:33:58Z</time>
      </trkpt>
      <trkpt lat="46.76121" lon="5.63269">
        <ele>332.6</ele>
        <time>2020-06-09T09:33:59Z</time>
      </trkpt>
      <trkpt lat="46.76124" lon="5.63272">
        <ele>332.8</ele>
        <time>2020-06-09T09:34:00Z</time>
      </trkpt>
      <trkpt lat="46.76127" lon="5.63275">
        <ele>332.8</ele>
        <time>2020-06-09T09:34:01Z</time>
      </trkpt>
      <trkpt lat="46.7613" lon="5.63278">
        <ele>332.8</ele>
        <time>2020-06-09T09:34:02Z</time>
      </trkpt>
      <trkpt lat="46.76133" lon="5.6328">
        <ele>333</ele>
        <time>2020-06-09T09:34:03Z</time>
      </trkpt>
      <trkpt lat="46.76136" lon="5.63283">
        <ele>333</ele>
        <time>2020-06-09T09:34:04Z</time>
      </trkpt>
      <trkpt lat="46.7614" lon="5.63285">
        <ele>333.4</ele>
        <time>2020-06-09T09:34:05Z</time>
      </trkpt>
      <trkpt lat="46.76143" lon="5.63287">
        <ele>333.4</ele>
        <time>2020-06-09T09:34:06Z</time>
      </trkpt>
      <trkpt lat="46.76146" lon="5.63289">
        <ele>333.6</ele>
        <time>2020-06-09T09:34:07Z</time>
      </trkpt>
      <trkpt lat="46.7615" lon="5.63291">
        <ele>333.8</ele>
        <time>2020-06-09T09:34:08Z</time>
      </trkpt>
      <trkpt lat="46.76153" lon="5.63293">
        <ele>333.8</ele>
        <time>2020-06-09T09:34:09Z</time>
      </trkpt>
      <trkpt lat="46.76156" lon="5.63294">
        <ele>334</ele>
        <time>2020-06-09T09:34:10Z</time>
      </trkpt>
      <trkpt lat="46.7616" lon="5.63296">
        <ele>334</ele>
        <time>2020-06-09T09:34:11Z</time>
      </trkpt>
      <trkpt lat="46.76163" lon="5.63297">
        <ele>334.2</ele>
        <time>2020-06-09T09:34:12Z</time>
      </trkpt>
      <trkpt lat="46.76167" lon="5.63298">
        <ele>334.2</ele>
        <time>2020-06-09T09:34:13Z</time>
      </trkpt>
      <trkpt lat="46.76171" lon="5.633">
        <ele>334.6</ele>
        <time>2020-06-09T09:34:14Z</time>
      </trkpt>
      <trkpt lat="46.76175" lon="5.63301">
        <ele>334.6</ele>
        <time>2020-06-09T09:34:15Z</time>
      </trkpt>
      <trkpt lat="46.76178" lon="5.63303">
        <ele>334.8</ele>
        <time>2020-06-09T09:34:16Z</time>
      </trkpt>
      <trkpt lat="46.76182" lon="5.63305">
        <ele>334.8</ele>
        <time>2020-06-09T09:34:17Z</time>
      </trkpt>
      <trkpt lat="46.76186" lon="5.63306">
        <ele>335</ele>
        <time>2020-06-09T09:34:18Z</time>
      </trkpt>
      <trkpt lat="46.7619" lon="5.63308">
        <ele>335.2</ele>
        <time>2020-06-09T09:34:19Z</time>
      </trkpt>
      <trkpt lat="46.76194" lon="5.6331">
        <ele>335.2</ele>
        <time>2020-06-09T09:34:20Z</time>
      </trkpt>
      <trkpt lat="46.76197" lon="5.63312">
        <ele>335.6</ele>
        <time>2020-06-09T09:34:21Z</time>
      </trkpt>
      <trkpt lat="46.76201" lon="5.63315">
        <ele>335.6</ele>
        <time>2020-06-09T09:34:22Z</time>
      </trkpt>
      <trkpt lat="46.76205" lon="5.63318">
        <ele>336</ele>
        <time>2020-06-09T09:34:23Z</time>
      </trkpt>
      <trkpt lat="46.76208" lon="5.63322">
        <ele>336.2</ele>
        <time>2020-06-09T09:34:24Z</time>
      </trkpt>
      <trkpt lat="46.76211" lon="5.63325">
        <ele>336.2</ele>
        <time>2020-06-09T09:34:25Z</time>
      </trkpt>
      <trkpt lat="46.76215" lon="5.63328">
        <ele>336.6</ele>
        <time>2020-06-09T09:34:26Z</time>
      </trkpt>
      <trkpt lat="46.76218" lon="5.63332">
        <ele>336.6</ele>
        <time>2020-06-09T09:34:27Z</time>
      </trkpt>
      <trkpt lat="46.76221" lon="5.63336">
        <ele>337</ele>
        <time>2020-06-09T09:34:28Z</time>
      </trkpt>
      <trkpt lat="46.76224" lon="5.6334">
        <ele>337</ele>
        <time>2020-06-09T09:34:29Z</time>
      </trkpt>
      <trkpt lat="46.76226" lon="5.63344">
        <ele>337.4</ele>
        <time>2020-06-09T09:34:30Z</time>
      </trkpt>
      <trkpt lat="46.76229" lon="5.63347">
        <ele>337.6</ele>
        <time>2020-06-09T09:34:31Z</time>
      </trkpt>
      <trkpt lat="46.76231" lon="5.63351">
        <ele>337.8</ele>
        <time>2020-06-09T09:34:32Z</time>
      </trkpt>
      <trkpt lat="46.76234" lon="5.63355">
        <ele>337.8</ele>
        <time>2020-06-09T09:34:33Z</time>
      </trkpt>
      <trkpt lat="46.76237" lon="5.63358">
        <ele>338.4</ele>
        <time>2020-06-09T09:34:34Z</time>
      </trkpt>
      <trkpt lat="46.76239" lon="5.63362">
        <ele>338.4</ele>
        <time>2020-06-09T09:34:35Z</time>
      </trkpt>
      <trkpt lat="46.76242" lon="5.63366">
        <ele>338.6</ele>
        <time>2020-06-09T09:34:36Z</time>
      </trkpt>
      <trkpt lat="46.76245" lon="5.63369">
        <ele>338.6</ele>
        <time>2020-06-09T09:34:37Z</time>
      </trkpt>
      <trkpt lat="46.76248" lon="5.63373">
        <ele>339</ele>
        <time>2020-06-09T09:34:38Z</time>
      </trkpt>
      <trkpt lat="46.76251" lon="5.63377">
        <ele>339</ele>
        <time>2020-06-09T09:34:39Z</time>
      </trkpt>
      <trkpt lat="46.76254" lon="5.6338">
        <ele>339.4</ele>
        <time>2020-06-09T09:34:40Z</time>
      </trkpt>
      <trkpt lat="46.76257" lon="5.63383">
        <ele>339.6</ele>
        <time>2020-06-09T09:34:41Z</time>
      </trkpt>
      <trkpt lat="46.7626" lon="5.63387">
        <ele>339.6</ele>
        <time>2020-06-09T09:34:42Z</time>
      </trkpt>
      <trkpt lat="46.76263" lon="5.63389">
        <ele>340</ele>
        <time>2020-06-09T09:34:43Z</time>
      </trkpt>
      <trkpt lat="46.76266" lon="5.63392">
        <ele>340</ele>
        <time>2020-06-09T09:34:44Z</time>
      </trkpt>
      <trkpt lat="46.76269" lon="5.63395">
        <ele>340.2</ele>
        <time>2020-06-09T09:34:45Z</time>
      </trkpt>
      <trkpt lat="46.76272" lon="5.63399">
        <ele>340.2</ele>
        <time>2020-06-09T09:34:46Z</time>
      </trkpt>
      <trkpt lat="46.76275" lon="5.63402">
        <ele>340.6</ele>
        <time>2020-06-09T09:34:47Z</time>
      </trkpt>
      <trkpt lat="46.76278" lon="5.63405">
        <ele>340.6</ele>
        <time>2020-06-09T09:34:48Z</time>
      </trkpt>
      <trkpt lat="46.76281" lon="5.63408">
        <ele>341</ele>
        <time>2020-06-09T09:34:49Z</time>
      </trkpt>
      <trkpt lat="46.76283" lon="5.63412">
        <ele>341</ele>
        <time>2020-06-09T09:34:50Z</time>
      </trkpt>
      <trkpt lat="46.76286" lon="5.63416">
        <ele>341.2</ele>
        <time>2020-06-09T09:34:51Z</time>
      </trkpt>
      <trkpt lat="46.76289" lon="5.63421">
        <ele>341.2</ele>
        <time>2020-06-09T09:34:52Z</time>
      </trkpt>
      <trkpt lat="46.76291" lon="5.63425">
        <ele>341.2</ele>
        <time>2020-06-09T09:34:53Z</time>
      </trkpt>
      <trkpt lat="46.76293" lon="5.6343">
        <ele>341.4</ele>
        <time>2020-06-09T09:34:54Z</time>
      </trkpt>
      <trkpt lat="46.76295" lon="5.63435">
        <ele>341.4</ele>
        <time>2020-06-09T09:34:55Z</time>
      </trkpt>
      <trkpt lat="46.76297" lon="5.63441">
        <ele>341.8</ele>
        <time>2020-06-09T09:34:56Z</time>
      </trkpt>
      <trkpt lat="46.76299" lon="5.63446">
        <ele>341.8</ele>
        <time>2020-06-09T09:34:57Z</time>
      </trkpt>
      <trkpt lat="46.76301" lon="5.63451">
        <ele>342</ele>
        <time>2020-06-09T09:34:58Z</time>
      </trkpt>
      <trkpt lat="46.76302" lon="5.63457">
        <ele>342</ele>
        <time>2020-06-09T09:34:59Z</time>
      </trkpt>
      <trkpt lat="46.76304" lon="5.63463">
        <ele>342.2</ele>
        <time>2020-06-09T09:35:00Z</time>
      </trkpt>
      <trkpt lat="46.76305" lon="5.63469">
        <ele>342.2</ele>
        <time>2020-06-09T09:35:01Z</time>
      </trkpt>
      <trkpt lat="46.76307" lon="5.63475">
        <ele>342.2</ele>
        <time>2020-06-09T09:35:02Z</time>
      </trkpt>
      <trkpt lat="46.76309" lon="5.63481">
        <ele>342.2</ele>
        <time>2020-06-09T09:35:03Z</time>
      </trkpt>
      <trkpt lat="46.76311" lon="5.63487">
        <ele>342.2</ele>
        <time>2020-06-09T09:35:04Z</time>
      </trkpt>
      <trkpt lat="46.76313" lon="5.63492">
        <ele>342.4</ele>
        <time>2020-06-09T09:35:05Z</time>
      </trkpt>
      <trkpt lat="46.76316" lon="5.63497">
        <ele>342.4</ele>
        <time>2020-06-09T09:35:06Z</time>
      </trkpt>
      <trkpt lat="46.76318" lon="5.63501">
        <ele>342.8</ele>
        <time>2020-06-09T09:35:07Z</time>
      </trkpt>
      <trkpt lat="46.76321" lon="5.63506">
        <ele>342.8</ele>
        <time>2020-06-09T09:35:08Z</time>
      </trkpt>
      <trkpt lat="46.76323" lon="5.6351">
        <ele>343</ele>
        <time>2020-06-09T09:35:09Z</time>
      </trkpt>
      <trkpt lat="46.76326" lon="5.63514">
        <ele>343</ele>
        <time>2020-06-09T09:35:10Z</time>
      </trkpt>
      <trkpt lat="46.76328" lon="5.63518">
        <ele>343.4</ele>
        <time>2020-06-09T09:35:11Z</time>
      </trkpt>
      <trkpt lat="46.76331" lon="5.63523">
        <ele>343.4</ele>
        <time>2020-06-09T09:35:12Z</time>
      </trkpt>
      <trkpt lat="46.76333" lon="5.63527">
        <ele>343.8</ele>
        <time>2020-06-09T09:35:13Z</time>
      </trkpt>
      <trkpt lat="46.76334" lon="5.63532">
        <ele>343.8</ele>
        <time>2020-06-09T09:35:14Z</time>
      </trkpt>
      <trkpt lat="46.76336" lon="5.63536">
        <ele>344.2</ele>
        <time>2020-06-09T09:35:15Z</time>
      </trkpt>
      <trkpt lat="46.76336" lon="5.63541">
        <ele>344.4</ele>
        <time>2020-06-09T09:35:16Z</time>
      </trkpt>
      <trkpt lat="46.76338" lon="5.63546">
        <ele>344.8</ele>
        <time>2020-06-09T09:35:17Z</time>
      </trkpt>
      <trkpt lat="46.76339" lon="5.6355">
        <ele>345</ele>
        <time>2020-06-09T09:35:18Z</time>
      </trkpt>
      <trkpt lat="46.76341" lon="5.63555">
        <ele>345</ele>
        <time>2020-06-09T09:35:19Z</time>
      </trkpt>
      <trkpt lat="46.76342" lon="5.63561">
        <ele>345.4</ele>
        <time>2020-06-09T09:35:20Z</time>
      </trkpt>
      <trkpt lat="46.76344" lon="5.63566">
        <ele>345.6</ele>
        <time>2020-06-09T09:35:21Z</time>
      </trkpt>
      <trkpt lat="46.76346" lon="5.63571">
        <ele>345.6</ele>
        <time>2020-06-09T09:35:22Z</time>
      </trkpt>
      <trkpt lat="46.76348" lon="5.63576">
        <ele>345.8</ele>
        <time>2020-06-09T09:35:23Z</time>
      </trkpt>
      <trkpt lat="46.7635" lon="5.63581">
        <ele>345.8</ele>
        <time>2020-06-09T09:35:24Z</time>
      </trkpt>
      <trkpt lat="46.76352" lon="5.63585">
        <ele>346.2</ele>
        <time>2020-06-09T09:35:25Z</time>
      </trkpt>
      <trkpt lat="46.76354" lon="5.6359">
        <ele>346.4</ele>
        <time>2020-06-09T09:35:26Z</time>
      </trkpt>
      <trkpt lat="46.76357" lon="5.63594">
        <ele>346.6</ele>
        <time>2020-06-09T09:35:27Z</time>
      </trkpt>
      <trkpt lat="46.7636" lon="5.63597">
        <ele>346.6</ele>
        <time>2020-06-09T09:35:28Z</time>
      </trkpt>
      <trkpt lat="46.76363" lon="5.63601">
        <ele>347</ele>
        <time>2020-06-09T09:35:29Z</time>
      </trkpt>
      <trkpt lat="46.76366" lon="5.63604">
        <ele>347.2</ele>
        <time>2020-06-09T09:35:30Z</time>
      </trkpt>
      <trkpt lat="46.7637" lon="5.63607">
        <ele>347.2</ele>
        <time>2020-06-09T09:35:31Z</time>
      </trkpt>
      <trkpt lat="46.76373" lon="5.63611">
        <ele>347.6</ele>
        <time>2020-06-09T09:35:32Z</time>
      </trkpt>
      <trkpt lat="46.76376" lon="5.63613">
        <ele>347.8</ele>
        <time>2020-06-09T09:35:33Z</time>
      </trkpt>
      <trkpt lat="46.7638" lon="5.63616">
        <ele>347.8</ele>
        <time>2020-06-09T09:35:34Z</time>
      </trkpt>
      <trkpt lat="46.76383" lon="5.63618">
        <ele>348.2</ele>
        <time>2020-06-09T09:35:35Z</time>
      </trkpt>
      <trkpt lat="46.76387" lon="5.63619">
        <ele>348.2</ele>
        <time>2020-06-09T09:35:36Z</time>
      </trkpt>
      <trkpt lat="46.7639" lon="5.63621">
        <ele>348.4</ele>
        <time>2020-06-09T09:35:37Z</time>
      </trkpt>
      <trkpt lat="46.76394" lon="5.63622">
        <ele>348.4</ele>
        <time>2020-06-09T09:35:38Z</time>
      </trkpt>
      <trkpt lat="46.76398" lon="5.63622">
        <ele>348.8</ele>
        <time>2020-06-09T09:35:39Z</time>
      </trkpt>
      <trkpt lat="46.76402" lon="5.63621">
        <ele>348.8</ele>
        <time>2020-06-09T09:35:40Z</time>
      </trkpt>
      <trkpt lat="46.76406" lon="5.63621">
        <ele>349.2</ele>
        <time>2020-06-09T09:35:41Z</time>
      </trkpt>
      <trkpt lat="46.76409" lon="5.6362">
        <ele>349.2</ele>
        <time>2020-06-09T09:35:42Z</time>
      </trkpt>
      <trkpt lat="46.76413" lon="5.63618">
        <ele>349.4</ele>
        <time>2020-06-09T09:35:43Z</time>
      </trkpt>
      <trkpt lat="46.76417" lon="5.63617">
        <ele>349.4</ele>
        <time>2020-06-09T09:35:44Z</time>
      </trkpt>
      <trkpt lat="46.76421" lon="5.63616">
        <ele>349.8</ele>
        <time>2020-06-09T09:35:45Z</time>
      </trkpt>
      <trkpt lat="46.76425" lon="5.63615">
        <ele>349.8</ele>
        <time>2020-06-09T09:35:46Z</time>
      </trkpt>
      <trkpt lat="46.76428" lon="5.63614">
        <ele>350</ele>
        <time>2020-06-09T09:35:47Z</time>
      </trkpt>
      <trkpt lat="46.76432" lon="5.63614">
        <ele>350</ele>
        <time>2020-06-09T09:35:48Z</time>
      </trkpt>
      <trkpt lat="46.76436" lon="5.63615">
        <ele>350.4</ele>
        <time>2020-06-09T09:35:49Z</time>
      </trkpt>
      <trkpt lat="46.76439" lon="5.63615">
        <ele>350.4</ele>
        <time>2020-06-09T09:35:50Z</time>
      </trkpt>
      <trkpt lat="46.76443" lon="5.63615">
        <ele>350.6</ele>
        <time>2020-06-09T09:35:51Z</time>
      </trkpt>
      <trkpt lat="46.76446" lon="5.63615">
        <ele>350.6</ele>
        <time>2020-06-09T09:35:52Z</time>
      </trkpt>
      <trkpt lat="46.7645" lon="5.63616">
        <ele>350.8</ele>
        <time>2020-06-09T09:35:53Z</time>
      </trkpt>
      <trkpt lat="46.76453" lon="5.63616">
        <ele>350.8</ele>
        <time>2020-06-09T09:35:54Z</time>
      </trkpt>
      <trkpt lat="46.76457" lon="5.63617">
        <ele>351.2</ele>
        <time>2020-06-09T09:35:55Z</time>
      </trkpt>
      <trkpt lat="46.7646" lon="5.63618">
        <ele>351.2</ele>
        <time>2020-06-09T09:35:56Z</time>
      </trkpt>
      <trkpt lat="46.76464" lon="5.63619">
        <ele>351.6</ele>
        <time>2020-06-09T09:35:57Z</time>
      </trkpt>
      <trkpt lat="46.76468" lon="5.6362">
        <ele>351.6</ele>
        <time>2020-06-09T09:35:58Z</time>
      </trkpt>
      <trkpt lat="46.76471" lon="5.6362">
        <ele>351.8</ele>
        <time>2020-06-09T09:35:59Z</time>
      </trkpt>
      <trkpt lat="46.76475" lon="5.63621">
        <ele>351.8</ele>
        <time>2020-06-09T09:36:00Z</time>
      </trkpt>
      <trkpt lat="46.76478" lon="5.63622">
        <ele>352.2</ele>
        <time>2020-06-09T09:36:01Z</time>
      </trkpt>
      <trkpt lat="46.76482" lon="5.63623">
        <ele>352.4</ele>
        <time>2020-06-09T09:36:02Z</time>
      </trkpt>
      <trkpt lat="46.76485" lon="5.63623">
        <ele>352.6</ele>
        <time>2020-06-09T09:36:03Z</time>
      </trkpt>
      <trkpt lat="46.76488" lon="5.63624">
        <ele>352.6</ele>
        <time>2020-06-09T09:36:04Z</time>
      </trkpt>
      <trkpt lat="46.76492" lon="5.63625">
        <ele>353</ele>
        <time>2020-06-09T09:36:05Z</time>
      </trkpt>
      <trkpt lat="46.76495" lon="5.63626">
        <ele>353</ele>
        <time>2020-06-09T09:36:06Z</time>
      </trkpt>
      <trkpt lat="46.76498" lon="5.63627">
        <ele>353.2</ele>
        <time>2020-06-09T09:36:07Z</time>
      </trkpt>
      <trkpt lat="46.76502" lon="5.63628">
        <ele>353.2</ele>
        <time>2020-06-09T09:36:08Z</time>
      </trkpt>
      <trkpt lat="46.76505" lon="5.6363">
        <ele>353.6</ele>
        <time>2020-06-09T09:36:09Z</time>
      </trkpt>
      <trkpt lat="46.76508" lon="5.63633">
        <ele>353.6</ele>
        <time>2020-06-09T09:36:10Z</time>
      </trkpt>
      <trkpt lat="46.7651" lon="5.63636">
        <ele>354</ele>
        <time>2020-06-09T09:36:11Z</time>
      </trkpt>
      <trkpt lat="46.76513" lon="5.6364">
        <ele>354</ele>
        <time>2020-06-09T09:36:12Z</time>
      </trkpt>
      <trkpt lat="46.76514" lon="5.63645">
        <ele>354.4</ele>
        <time>2020-06-09T09:36:13Z</time>
      </trkpt>
      <trkpt lat="46.76515" lon="5.6365">
        <ele>354.4</ele>
        <time>2020-06-09T09:36:14Z</time>
      </trkpt>
      <trkpt lat="46.76515" lon="5.63655">
        <ele>354.8</ele>
        <time>2020-06-09T09:36:15Z</time>
      </trkpt>
      <trkpt lat="46.76514" lon="5.6366">
        <ele>355</ele>
        <time>2020-06-09T09:36:16Z</time>
      </trkpt>
      <trkpt lat="46.76513" lon="5.63665">
        <ele>355.2</ele>
        <time>2020-06-09T09:36:17Z</time>
      </trkpt>
      <trkpt lat="46.76511" lon="5.63669">
        <ele>355.4</ele>
        <time>2020-06-09T09:36:18Z</time>
      </trkpt>
      <trkpt lat="46.76508" lon="5.63671">
        <ele>355.8</ele>
        <time>2020-06-09T09:36:19Z</time>
      </trkpt>
      <trkpt lat="46.76505" lon="5.63673">
        <ele>356</ele>
        <time>2020-06-09T09:36:20Z</time>
      </trkpt>
      <trkpt lat="46.76501" lon="5.63675">
        <ele>356.2</ele>
        <time>2020-06-09T09:36:21Z</time>
      </trkpt>
      <trkpt lat="46.76498" lon="5.63675">
        <ele>356.2</ele>
        <time>2020-06-09T09:36:22Z</time>
      </trkpt>
      <trkpt lat="46.76494" lon="5.63676">
        <ele>356.6</ele>
        <time>2020-06-09T09:36:23Z</time>
      </trkpt>
      <trkpt lat="46.76491" lon="5.63677">
        <ele>356.6</ele>
        <time>2020-06-09T09:36:24Z</time>
      </trkpt>
      <trkpt lat="46.76487" lon="5.63678">
        <ele>357</ele>
        <time>2020-06-09T09:36:25Z</time>
      </trkpt>
      <trkpt lat="46.76484" lon="5.63679">
        <ele>357</ele>
        <time>2020-06-09T09:36:26Z</time>
      </trkpt>
      <trkpt lat="46.7648" lon="5.6368">
        <ele>357.4</ele>
        <time>2020-06-09T09:36:27Z</time>
      </trkpt>
      <trkpt lat="46.76477" lon="5.63681">
        <ele>357.6</ele>
        <time>2020-06-09T09:36:28Z</time>
      </trkpt>
      <trkpt lat="46.76473" lon="5.63682">
        <ele>357.8</ele>
        <time>2020-06-09T09:36:29Z</time>
      </trkpt>
      <trkpt lat="46.7647" lon="5.63683">
        <ele>357.8</ele>
        <time>2020-06-09T09:36:30Z</time>
      </trkpt>
      <trkpt lat="46.76467" lon="5.63685">
        <ele>358.2</ele>
        <time>2020-06-09T09:36:31Z</time>
      </trkpt>
      <trkpt lat="46.76463" lon="5.63685">
        <ele>358.2</ele>
        <time>2020-06-09T09:36:32Z</time>
      </trkpt>
      <trkpt lat="46.76459" lon="5.63686">
        <ele>358.6</ele>
        <time>2020-06-09T09:36:33Z</time>
      </trkpt>
      <trkpt lat="46.76456" lon="5.63687">
        <ele>358.6</ele>
        <time>2020-06-09T09:36:34Z</time>
      </trkpt>
      <trkpt lat="46.76452" lon="5.63688">
        <ele>359</ele>
        <time>2020-06-09T09:36:35Z</time>
      </trkpt>
      <trkpt lat="46.76448" lon="5.63689">
        <ele>359.2</ele>
        <time>2020-06-09T09:36:36Z</time>
      </trkpt>
      <trkpt lat="46.76445" lon="5.6369">
        <ele>359.4</ele>
        <time>2020-06-09T09:36:37Z</time>
      </trkpt>
      <trkpt lat="46.76441" lon="5.63691">
        <ele>359.6</ele>
        <time>2020-06-09T09:36:38Z</time>
      </trkpt>
      <trkpt lat="46.76437" lon="5.63691">
        <ele>359.8</ele>
        <time>2020-06-09T09:36:39Z</time>
      </trkpt>
      <trkpt lat="46.76434" lon="5.63691">
        <ele>360.2</ele>
        <time>2020-06-09T09:36:40Z</time>
      </trkpt>
      <trkpt lat="46.7643" lon="5.63691">
        <ele>360.4</ele>
        <time>2020-06-09T09:36:41Z</time>
      </trkpt>
      <trkpt lat="46.76427" lon="5.6369">
        <ele>360.6</ele>
        <time>2020-06-09T09:36:42Z</time>
      </trkpt>
      <trkpt lat="46.76424" lon="5.6369">
        <ele>360.8</ele>
        <time>2020-06-09T09:36:43Z</time>
      </trkpt>
      <trkpt lat="46.76421" lon="5.63689">
        <ele>361</ele>
        <time>2020-06-09T09:36:44Z</time>
      </trkpt>
      <trkpt lat="46.76418" lon="5.63688">
        <ele>361</ele>
        <time>2020-06-09T09:36:45Z</time>
      </trkpt>
      <trkpt lat="46.76416" lon="5.63687">
        <ele>361.4</ele>
        <time>2020-06-09T09:36:46Z</time>
      </trkpt>
      <trkpt lat="46.76413" lon="5.63686">
        <ele>361.6</ele>
        <time>2020-06-09T09:36:47Z</time>
      </trkpt>
      <trkpt lat="46.76411" lon="5.63685">
        <ele>362</ele>
        <time>2020-06-09T09:36:48Z</time>
      </trkpt>
      <trkpt lat="46.7641" lon="5.63684">
        <ele>362</ele>
        <time>2020-06-09T09:36:49Z</time>
      </trkpt>
      <trkpt lat="46.76408" lon="5.63683">
        <ele>362.2</ele>
        <time>2020-06-09T09:36:50Z</time>
      </trkpt>
      <trkpt lat="46.76406" lon="5.63682">
        <ele>362.4</ele>
        <time>2020-06-09T09:36:51Z</time>
      </trkpt>
      <trkpt lat="46.76404" lon="5.6368">
        <ele>362.6</ele>
        <time>2020-06-09T09:36:52Z</time>
      </trkpt>
      <trkpt lat="46.76402" lon="5.63679">
        <ele>362.8</ele>
        <time>2020-06-09T09:36:53Z</time>
      </trkpt>
      <trkpt lat="46.76401" lon="5.63678">
        <ele>363</ele>
        <time>2020-06-09T09:36:54Z</time>
      </trkpt>
      <trkpt lat="46.76399" lon="5.63676">
        <ele>363.2</ele>
        <time>2020-06-09T09:36:55Z</time>
      </trkpt>
      <trkpt lat="46.76398" lon="5.63674">
        <ele>363.6</ele>
        <time>2020-06-09T09:36:56Z</time>
      </trkpt>
      <trkpt lat="46.76397" lon="5.63672">
        <ele>363.8</ele>
        <time>2020-06-09T09:36:57Z</time>
      </trkpt>
      <trkpt lat="46.76395" lon="5.63669">
        <ele>364</ele>
        <time>2020-06-09T09:36:58Z</time>
      </trkpt>
      <trkpt lat="46.76393" lon="5.63667">
        <ele>364.2</ele>
        <time>2020-06-09T09:36:59Z</time>
      </trkpt>
      <trkpt lat="46.76391" lon="5.63665">
        <ele>364.2</ele>
        <time>2020-06-09T09:37:00Z</time>
      </trkpt>
      <trkpt lat="46.76389" lon="5.63662">
        <ele>364.8</ele>
        <time>2020-06-09T09:37:01Z</time>
      </trkpt>
      <trkpt lat="46.76387" lon="5.6366">
        <ele>364.8</ele>
        <time>2020-06-09T09:37:02Z</time>
      </trkpt>
      <trkpt lat="46.76385" lon="5.63658">
        <ele>365</ele>
        <time>2020-06-09T09:37:03Z</time>
      </trkpt>
      <trkpt lat="46.76382" lon="5.63656">
        <ele>365</ele>
        <time>2020-06-09T09:37:04Z</time>
      </trkpt>
      <trkpt lat="46.7638" lon="5.63653">
        <ele>365.4</ele>
        <time>2020-06-09T09:37:05Z</time>
      </trkpt>
      <trkpt lat="46.76377" lon="5.63651">
        <ele>365.6</ele>
        <time>2020-06-09T09:37:06Z</time>
      </trkpt>
      <trkpt lat="46.76375" lon="5.63649">
        <ele>365.8</ele>
        <time>2020-06-09T09:37:07Z</time>
      </trkpt>
      <trkpt lat="46.7637" lon="5.63645">
        <ele>366</ele>
        <time>2020-06-09T09:37:08Z</time>
      </trkpt>
      <trkpt lat="46.76367" lon="5.63642">
        <ele>366.4</ele>
        <time>2020-06-09T09:37:09Z</time>
      </trkpt>
      <trkpt lat="46.76365" lon="5.63639">
        <ele>366.4</ele>
        <time>2020-06-09T09:37:10Z</time>
      </trkpt>
      <trkpt lat="46.76361" lon="5.63636">
        <ele>366.6</ele>
        <time>2020-06-09T09:37:11Z</time>
      </trkpt>
      <trkpt lat="46.76358" lon="5.63633">
        <ele>366.6</ele>
        <time>2020-06-09T09:37:12Z</time>
      </trkpt>
      <trkpt lat="46.76355" lon="5.63631">
        <ele>367.2</ele>
        <time>2020-06-09T09:37:13Z</time>
      </trkpt>
      <trkpt lat="46.76352" lon="5.63628">
        <ele>367.2</ele>
        <time>2020-06-09T09:37:14Z</time>
      </trkpt>
      <trkpt lat="46.76346" lon="5.63626">
        <ele>367.4</ele>
        <time>2020-06-09T09:37:15Z</time>
      </trkpt>
      <trkpt lat="46.76343" lon="5.63623">
        <ele>367.4</ele>
        <time>2020-06-09T09:37:16Z</time>
      </trkpt>
      <trkpt lat="46.76341" lon="5.63621">
        <ele>367.8</ele>
        <time>2020-06-09T09:37:17Z</time>
      </trkpt>
      <trkpt lat="46.76336" lon="5.63618">
        <ele>368</ele>
        <time>2020-06-09T09:37:18Z</time>
      </trkpt>
      <trkpt lat="46.76331" lon="5.63616">
        <ele>368.2</ele>
        <time>2020-06-09T09:37:19Z</time>
      </trkpt>
      <trkpt lat="46.76328" lon="5.63614">
        <ele>368.2</ele>
        <time>2020-06-09T09:37:20Z</time>
      </trkpt>
      <trkpt lat="46.76326" lon="5.63612">
        <ele>368.6</ele>
        <time>2020-06-09T09:37:21Z</time>
      </trkpt>
      <trkpt lat="46.76323" lon="5.6361">
        <ele>368.8</ele>
        <time>2020-06-09T09:37:22Z</time>
      </trkpt>
      <trkpt lat="46.76322" lon="5.63608">
        <ele>369</ele>
        <time>2020-06-09T09:37:23Z</time>
      </trkpt>
      <trkpt lat="46.7632" lon="5.63606">
        <ele>369</ele>
        <time>2020-06-09T09:37:24Z</time>
      </trkpt>
      <trkpt lat="46.76318" lon="5.63605">
        <ele>369.2</ele>
        <time>2020-06-09T09:37:25Z</time>
      </trkpt>
      <trkpt lat="46.76316" lon="5.63603">
        <ele>369.6</ele>
        <time>2020-06-09T09:37:26Z</time>
      </trkpt>
      <trkpt lat="46.76314" lon="5.63602">
        <ele>369.6</ele>
        <time>2020-06-09T09:37:27Z</time>
      </trkpt>
      <trkpt lat="46.76312" lon="5.636">
        <ele>369.8</ele>
        <time>2020-06-09T09:37:28Z</time>
      </trkpt>
      <trkpt lat="46.7631" lon="5.63599">
        <ele>369.8</ele>
        <time>2020-06-09T09:37:29Z</time>
      </trkpt>
      <trkpt lat="46.76308" lon="5.63597">
        <ele>370.2</ele>
        <time>2020-06-09T09:37:30Z</time>
      </trkpt>
      <trkpt lat="46.76306" lon="5.63596">
        <ele>370.2</ele>
        <time>2020-06-09T09:37:31Z</time>
      </trkpt>
      <trkpt lat="46.76304" lon="5.63595">
        <ele>370.6</ele>
        <time>2020-06-09T09:37:32Z</time>
      </trkpt>
      <trkpt lat="46.76302" lon="5.63593">
        <ele>370.8</ele>
        <time>2020-06-09T09:37:33Z</time>
      </trkpt>
      <trkpt lat="46.763" lon="5.63592">
        <ele>370.8</ele>
        <time>2020-06-09T09:37:34Z</time>
      </trkpt>
      <trkpt lat="46.76298" lon="5.63591">
        <ele>371</ele>
        <time>2020-06-09T09:37:35Z</time>
      </trkpt>
      <trkpt lat="46.76296" lon="5.6359">
        <ele>371</ele>
        <time>2020-06-09T09:37:36Z</time>
      </trkpt>
      <trkpt lat="46.76293" lon="5.63588">
        <ele>371</ele>
        <time>2020-06-09T09:37:37Z</time>
      </trkpt>
      <trkpt lat="46.76287" lon="5.63584">
        <ele>371.4</ele>
        <time>2020-06-09T09:37:38Z</time>
      </trkpt>
      <trkpt lat="46.76282" lon="5.63581">
        <ele>371.6</ele>
        <time>2020-06-09T09:37:39Z</time>
      </trkpt>
      <trkpt lat="46.76276" lon="5.63579">
        <ele>371.6</ele>
        <time>2020-06-09T09:37:40Z</time>
      </trkpt>
      <trkpt lat="46.7627" lon="5.63578">
        <ele>372</ele>
        <time>2020-06-09T09:37:41Z</time>
      </trkpt>
      <trkpt lat="46.76265" lon="5.63575">
        <ele>372</ele>
        <time>2020-06-09T09:37:42Z</time>
      </trkpt>
      <trkpt lat="46.76259" lon="5.63573">
        <ele>372.4</ele>
        <time>2020-06-09T09:37:43Z</time>
      </trkpt>
      <trkpt lat="46.76254" lon="5.6357">
        <ele>372.4</ele>
        <time>2020-06-09T09:37:44Z</time>
      </trkpt>
      <trkpt lat="46.7625" lon="5.63568">
        <ele>372.8</ele>
        <time>2020-06-09T09:37:45Z</time>
      </trkpt>
      <trkpt lat="46.76246" lon="5.63566">
        <ele>372.8</ele>
        <time>2020-06-09T09:37:46Z</time>
      </trkpt>
      <trkpt lat="46.76243" lon="5.63563">
        <ele>373</ele>
        <time>2020-06-09T09:37:47Z</time>
      </trkpt>
      <trkpt lat="46.76239" lon="5.6356">
        <ele>373</ele>
        <time>2020-06-09T09:37:48Z</time>
      </trkpt>
      <trkpt lat="46.76236" lon="5.63557">
        <ele>373.4</ele>
        <time>2020-06-09T09:37:49Z</time>
      </trkpt>
      <trkpt lat="46.76233" lon="5.63553">
        <ele>373.4</ele>
        <time>2020-06-09T09:37:50Z</time>
      </trkpt>
      <trkpt lat="46.76231" lon="5.63548">
        <ele>373.8</ele>
        <time>2020-06-09T09:37:51Z</time>
      </trkpt>
      <trkpt lat="46.76228" lon="5.63544">
        <ele>374</ele>
        <time>2020-06-09T09:37:52Z</time>
      </trkpt>
      <trkpt lat="46.76226" lon="5.6354">
        <ele>374</ele>
        <time>2020-06-09T09:37:53Z</time>
      </trkpt>
      <trkpt lat="46.76224" lon="5.63535">
        <ele>374.2</ele>
        <time>2020-06-09T09:37:54Z</time>
      </trkpt>
      <trkpt lat="46.76221" lon="5.6353">
        <ele>374.2</ele>
        <time>2020-06-09T09:37:55Z</time>
      </trkpt>
      <trkpt lat="46.76218" lon="5.63526">
        <ele>374.8</ele>
        <time>2020-06-09T09:37:56Z</time>
      </trkpt>
      <trkpt lat="46.76215" lon="5.63521">
        <ele>374.8</ele>
        <time>2020-06-09T09:37:57Z</time>
      </trkpt>
      <trkpt lat="46.76212" lon="5.63516">
        <ele>375</ele>
        <time>2020-06-09T09:37:58Z</time>
      </trkpt>
      <trkpt lat="46.7621" lon="5.63512">
        <ele>375.2</ele>
        <time>2020-06-09T09:37:59Z</time>
      </trkpt>
      <trkpt lat="46.76207" lon="5.63507">
        <ele>375.2</ele>
        <time>2020-06-09T09:38:00Z</time>
      </trkpt>
      <trkpt lat="46.76205" lon="5.63502">
        <ele>375.6</ele>
        <time>2020-06-09T09:38:01Z</time>
      </trkpt>
      <trkpt lat="46.76202" lon="5.63498">
        <ele>375.6</ele>
        <time>2020-06-09T09:38:02Z</time>
      </trkpt>
      <trkpt lat="46.76199" lon="5.63493">
        <ele>375.8</ele>
        <time>2020-06-09T09:38:03Z</time>
      </trkpt>
      <trkpt lat="46.76196" lon="5.63489">
        <ele>375.8</ele>
        <time>2020-06-09T09:38:04Z</time>
      </trkpt>
      <trkpt lat="46.76193" lon="5.63485">
        <ele>376.2</ele>
        <time>2020-06-09T09:38:05Z</time>
      </trkpt>
      <trkpt lat="46.76189" lon="5.63482">
        <ele>376.2</ele>
        <time>2020-06-09T09:38:06Z</time>
      </trkpt>
      <trkpt lat="46.76184" lon="5.63479">
        <ele>376.4</ele>
        <time>2020-06-09T09:38:07Z</time>
      </trkpt>
      <trkpt lat="46.7618" lon="5.63476">
        <ele>376.4</ele>
        <time>2020-06-09T09:38:08Z</time>
      </trkpt>
      <trkpt lat="46.76176" lon="5.63473">
        <ele>376.6</ele>
        <time>2020-06-09T09:38:09Z</time>
      </trkpt>
      <trkpt lat="46.76172" lon="5.63471">
        <ele>376.6</ele>
        <time>2020-06-09T09:38:10Z</time>
      </trkpt>
      <trkpt lat="46.76168" lon="5.63469">
        <ele>376.8</ele>
        <time>2020-06-09T09:38:11Z</time>
      </trkpt>
      <trkpt lat="46.76163" lon="5.63466">
        <ele>376.8</ele>
        <time>2020-06-09T09:38:12Z</time>
      </trkpt>
      <trkpt lat="46.76159" lon="5.63464">
        <ele>377.2</ele>
        <time>2020-06-09T09:38:13Z</time>
      </trkpt>
      <trkpt lat="46.76155" lon="5.63461">
        <ele>377.2</ele>
        <time>2020-06-09T09:38:14Z</time>
      </trkpt>
      <trkpt lat="46.7615" lon="5.63458">
        <ele>377.4</ele>
        <time>2020-06-09T09:38:15Z</time>
      </trkpt>
      <trkpt lat="46.76146" lon="5.63456">
        <ele>377.4</ele>
        <time>2020-06-09T09:38:16Z</time>
      </trkpt>
      <trkpt lat="46.76142" lon="5.63453">
        <ele>377.4</ele>
        <time>2020-06-09T09:38:17Z</time>
      </trkpt>
      <trkpt lat="46.76138" lon="5.63451">
        <ele>377.6</ele>
        <time>2020-06-09T09:38:18Z</time>
      </trkpt>
      <trkpt lat="46.76133" lon="5.63449">
        <ele>377.6</ele>
        <time>2020-06-09T09:38:19Z</time>
      </trkpt>
      <trkpt lat="46.76129" lon="5.63447">
        <ele>377.6</ele>
        <time>2020-06-09T09:38:20Z</time>
      </trkpt>
      <trkpt lat="46.76125" lon="5.63444">
        <ele>378</ele>
        <time>2020-06-09T09:38:21Z</time>
      </trkpt>
      <trkpt lat="46.76121" lon="5.63442">
        <ele>378.2</ele>
        <time>2020-06-09T09:38:22Z</time>
      </trkpt>
      <trkpt lat="46.76117" lon="5.6344">
        <ele>378.2</ele>
        <time>2020-06-09T09:38:23Z</time>
      </trkpt>
      <trkpt lat="46.76113" lon="5.63438">
        <ele>378.2</ele>
        <time>2020-06-09T09:38:24Z</time>
      </trkpt>
      <trkpt lat="46.76108" lon="5.63436">
        <ele>378.2</ele>
        <time>2020-06-09T09:38:25Z</time>
      </trkpt>
      <trkpt lat="46.76104" lon="5.63434">
        <ele>378.2</ele>
        <time>2020-06-09T09:38:26Z</time>
      </trkpt>
      <trkpt lat="46.761" lon="5.63432">
        <ele>378.4</ele>
        <time>2020-06-09T09:38:27Z</time>
      </trkpt>
      <trkpt lat="46.76096" lon="5.63431">
        <ele>378.4</ele>
        <time>2020-06-09T09:38:28Z</time>
      </trkpt>
      <trkpt lat="46.76092" lon="5.63429">
        <ele>378.8</ele>
        <time>2020-06-09T09:38:29Z</time>
      </trkpt>
      <trkpt lat="46.76088" lon="5.63427">
        <ele>379</ele>
        <time>2020-06-09T09:38:30Z</time>
      </trkpt>
      <trkpt lat="46.76085" lon="5.63426">
        <ele>379.2</ele>
        <time>2020-06-09T09:38:31Z</time>
      </trkpt>
      <trkpt lat="46.76081" lon="5.63425">
        <ele>379.2</ele>
        <time>2020-06-09T09:38:32Z</time>
      </trkpt>
      <trkpt lat="46.76078" lon="5.63424">
        <ele>379.6</ele>
        <time>2020-06-09T09:38:33Z</time>
      </trkpt>
      <trkpt lat="46.76074" lon="5.63423">
        <ele>379.8</ele>
        <time>2020-06-09T09:38:34Z</time>
      </trkpt>
      <trkpt lat="46.76071" lon="5.63422">
        <ele>380.2</ele>
        <time>2020-06-09T09:38:35Z</time>
      </trkpt>
      <trkpt lat="46.76068" lon="5.63421">
        <ele>380.4</ele>
        <time>2020-06-09T09:38:36Z</time>
      </trkpt>
      <trkpt lat="46.76065" lon="5.63421">
        <ele>380.6</ele>
        <time>2020-06-09T09:38:37Z</time>
      </trkpt>
      <trkpt lat="46.76061" lon="5.6342">
        <ele>380.6</ele>
        <time>2020-06-09T09:38:38Z</time>
      </trkpt>
      <trkpt lat="46.76058" lon="5.63419">
        <ele>381</ele>
        <time>2020-06-09T09:38:39Z</time>
      </trkpt>
      <trkpt lat="46.76054" lon="5.63419">
        <ele>381</ele>
        <time>2020-06-09T09:38:40Z</time>
      </trkpt>
      <trkpt lat="46.7605" lon="5.63419">
        <ele>381.4</ele>
        <time>2020-06-09T09:38:41Z</time>
      </trkpt>
      <trkpt lat="46.76046" lon="5.63419">
        <ele>381.4</ele>
        <time>2020-06-09T09:38:42Z</time>
      </trkpt>
      <trkpt lat="46.76043" lon="5.63419">
        <ele>381.8</ele>
        <time>2020-06-09T09:38:43Z</time>
      </trkpt>
      <trkpt lat="46.76039" lon="5.63419">
        <ele>381.8</ele>
        <time>2020-06-09T09:38:44Z</time>
      </trkpt>
      <trkpt lat="46.76034" lon="5.63419">
        <ele>382</ele>
        <time>2020-06-09T09:38:45Z</time>
      </trkpt>
      <trkpt lat="46.7603" lon="5.63419">
        <ele>382</ele>
        <time>2020-06-09T09:38:46Z</time>
      </trkpt>
      <trkpt lat="46.76026" lon="5.63419">
        <ele>382.2</ele>
        <time>2020-06-09T09:38:47Z</time>
      </trkpt>
      <trkpt lat="46.76022" lon="5.63419">
        <ele>382.4</ele>
        <time>2020-06-09T09:38:48Z</time>
      </trkpt>
      <trkpt lat="46.76018" lon="5.63418">
        <ele>382.4</ele>
        <time>2020-06-09T09:38:49Z</time>
      </trkpt>
      <trkpt lat="46.76015" lon="5.63417">
        <ele>382.8</ele>
        <time>2020-06-09T09:38:50Z</time>
      </trkpt>
      <trkpt lat="46.76011" lon="5.63417">
        <ele>382.8</ele>
        <time>2020-06-09T09:38:51Z</time>
      </trkpt>
      <trkpt lat="46.76007" lon="5.63416">
        <ele>382.8</ele>
        <time>2020-06-09T09:38:52Z</time>
      </trkpt>
      <trkpt lat="46.76004" lon="5.63415">
        <ele>383</ele>
        <time>2020-06-09T09:38:53Z</time>
      </trkpt>
      <trkpt lat="46.76" lon="5.63415">
        <ele>383</ele>
        <time>2020-06-09T09:38:54Z</time>
      </trkpt>
      <trkpt lat="46.75996" lon="5.63414">
        <ele>383.4</ele>
        <time>2020-06-09T09:38:55Z</time>
      </trkpt>
      <trkpt lat="46.75992" lon="5.63413">
        <ele>383.4</ele>
        <time>2020-06-09T09:38:56Z</time>
      </trkpt>
      <trkpt lat="46.75989" lon="5.63412">
        <ele>383.6</ele>
        <time>2020-06-09T09:38:57Z</time>
      </trkpt>
      <trkpt lat="46.75985" lon="5.6341">
        <ele>383.6</ele>
        <time>2020-06-09T09:38:58Z</time>
      </trkpt>
      <trkpt lat="46.75981" lon="5.63408">
        <ele>383.8</ele>
        <time>2020-06-09T09:38:59Z</time>
      </trkpt>
      <trkpt lat="46.75978" lon="5.63407">
        <ele>384.2</ele>
        <time>2020-06-09T09:39:00Z</time>
      </trkpt>
      <trkpt lat="46.75974" lon="5.63405">
        <ele>384.2</ele>
        <time>2020-06-09T09:39:01Z</time>
      </trkpt>
      <trkpt lat="46.7597" lon="5.63403">
        <ele>384.4</ele>
        <time>2020-06-09T09:39:02Z</time>
      </trkpt>
      <trkpt lat="46.75967" lon="5.63401">
        <ele>384.4</ele>
        <time>2020-06-09T09:39:03Z</time>
      </trkpt>
      <trkpt lat="46.75963" lon="5.63399">
        <ele>384.8</ele>
        <time>2020-06-09T09:39:04Z</time>
      </trkpt>
      <trkpt lat="46.7596" lon="5.63397">
        <ele>384.8</ele>
        <time>2020-06-09T09:39:05Z</time>
      </trkpt>
      <trkpt lat="46.75957" lon="5.63394">
        <ele>385</ele>
        <time>2020-06-09T09:39:06Z</time>
      </trkpt>
      <trkpt lat="46.75954" lon="5.63391">
        <ele>385</ele>
        <time>2020-06-09T09:39:07Z</time>
      </trkpt>
      <trkpt lat="46.75951" lon="5.63389">
        <ele>385.4</ele>
        <time>2020-06-09T09:39:08Z</time>
      </trkpt>
      <trkpt lat="46.75949" lon="5.63388">
        <ele>385.4</ele>
        <time>2020-06-09T09:39:09Z</time>
      </trkpt>
      <trkpt lat="46.75946" lon="5.63385">
        <ele>385.8</ele>
        <time>2020-06-09T09:39:10Z</time>
      </trkpt>
      <trkpt lat="46.75943" lon="5.63383">
        <ele>386</ele>
        <time>2020-06-09T09:39:11Z</time>
      </trkpt>
      <trkpt lat="46.75941" lon="5.63381">
        <ele>386.2</ele>
        <time>2020-06-09T09:39:12Z</time>
      </trkpt>
      <trkpt lat="46.75938" lon="5.63379">
        <ele>386.4</ele>
        <time>2020-06-09T09:39:13Z</time>
      </trkpt>
      <trkpt lat="46.75937" lon="5.63376">
        <ele>386.8</ele>
        <time>2020-06-09T09:39:14Z</time>
      </trkpt>
      <trkpt lat="46.75935" lon="5.63374">
        <ele>387</ele>
        <time>2020-06-09T09:39:15Z</time>
      </trkpt>
      <trkpt lat="46.75933" lon="5.63373">
        <ele>387.2</ele>
        <time>2020-06-09T09:39:16Z</time>
      </trkpt>
      <trkpt lat="46.75932" lon="5.63371">
        <ele>387.6</ele>
        <time>2020-06-09T09:39:17Z</time>
      </trkpt>
      <trkpt lat="46.7593" lon="5.63369">
        <ele>387.8</ele>
        <time>2020-06-09T09:39:18Z</time>
      </trkpt>
      <trkpt lat="46.75929" lon="5.63367">
        <ele>387.8</ele>
        <time>2020-06-09T09:39:19Z</time>
      </trkpt>
      <trkpt lat="46.75927" lon="5.63365">
        <ele>388</ele>
        <time>2020-06-09T09:39:20Z</time>
      </trkpt>
      <trkpt lat="46.75925" lon="5.63362">
        <ele>388.4</ele>
        <time>2020-06-09T09:39:21Z</time>
      </trkpt>
      <trkpt lat="46.75923" lon="5.63359">
        <ele>388.6</ele>
        <time>2020-06-09T09:39:22Z</time>
      </trkpt>
      <trkpt lat="46.7592" lon="5.63356">
        <ele>388.8</ele>
        <time>2020-06-09T09:39:23Z</time>
      </trkpt>
      <trkpt lat="46.75918" lon="5.63354">
        <ele>389</ele>
        <time>2020-06-09T09:39:24Z</time>
      </trkpt>
      <trkpt lat="46.75915" lon="5.63352">
        <ele>389</ele>
        <time>2020-06-09T09:39:25Z</time>
      </trkpt>
      <trkpt lat="46.75912" lon="5.63349">
        <ele>389.4</ele>
        <time>2020-06-09T09:39:26Z</time>
      </trkpt>
      <trkpt lat="46.7591" lon="5.63346">
        <ele>389.4</ele>
        <time>2020-06-09T09:39:27Z</time>
      </trkpt>
      <trkpt lat="46.75908" lon="5.63343">
        <ele>389.8</ele>
        <time>2020-06-09T09:39:28Z</time>
      </trkpt>
      <trkpt lat="46.75906" lon="5.6334">
        <ele>390</ele>
        <time>2020-06-09T09:39:29Z</time>
      </trkpt>
      <trkpt lat="46.75904" lon="5.63338">
        <ele>390.4</ele>
        <time>2020-06-09T09:39:30Z</time>
      </trkpt>
      <trkpt lat="46.75902" lon="5.63335">
        <ele>390.4</ele>
        <time>2020-06-09T09:39:31Z</time>
      </trkpt>
      <trkpt lat="46.759" lon="5.63332">
        <ele>390.6</ele>
        <time>2020-06-09T09:39:32Z</time>
      </trkpt>
      <trkpt lat="46.75897" lon="5.63329">
        <ele>391</ele>
        <time>2020-06-09T09:39:33Z</time>
      </trkpt>
      <trkpt lat="46.75895" lon="5.63326">
        <ele>391.2</ele>
        <time>2020-06-09T09:39:34Z</time>
      </trkpt>
      <trkpt lat="46.75892" lon="5.63323">
        <ele>391.2</ele>
        <time>2020-06-09T09:39:35Z</time>
      </trkpt>
      <trkpt lat="46.7589" lon="5.6332">
        <ele>391.6</ele>
        <time>2020-06-09T09:39:36Z</time>
      </trkpt>
      <trkpt lat="46.75885" lon="5.63318">
        <ele>391.8</ele>
        <time>2020-06-09T09:39:37Z</time>
      </trkpt>
      <trkpt lat="46.75883" lon="5.63315">
        <ele>392</ele>
        <time>2020-06-09T09:39:38Z</time>
      </trkpt>
      <trkpt lat="46.75879" lon="5.63313">
        <ele>392</ele>
        <time>2020-06-09T09:39:39Z</time>
      </trkpt>
      <trkpt lat="46.75877" lon="5.6331">
        <ele>392.4</ele>
        <time>2020-06-09T09:39:40Z</time>
      </trkpt>
      <trkpt lat="46.75874" lon="5.63308">
        <ele>392.4</ele>
        <time>2020-06-09T09:39:41Z</time>
      </trkpt>
      <trkpt lat="46.75871" lon="5.63305">
        <ele>392.8</ele>
        <time>2020-06-09T09:39:42Z</time>
      </trkpt>
      <trkpt lat="46.75868" lon="5.63303">
        <ele>392.8</ele>
        <time>2020-06-09T09:39:43Z</time>
      </trkpt>
      <trkpt lat="46.75864" lon="5.63301">
        <ele>393.2</ele>
        <time>2020-06-09T09:39:44Z</time>
      </trkpt>
      <trkpt lat="46.7586" lon="5.63299">
        <ele>393.2</ele>
        <time>2020-06-09T09:39:45Z</time>
      </trkpt>
      <trkpt lat="46.75857" lon="5.63296">
        <ele>393.6</ele>
        <time>2020-06-09T09:39:46Z</time>
      </trkpt>
      <trkpt lat="46.75854" lon="5.63294">
        <ele>393.6</ele>
        <time>2020-06-09T09:39:47Z</time>
      </trkpt>
      <trkpt lat="46.75852" lon="5.63292">
        <ele>393.8</ele>
        <time>2020-06-09T09:39:48Z</time>
      </trkpt>
      <trkpt lat="46.75849" lon="5.6329">
        <ele>394</ele>
        <time>2020-06-09T09:39:49Z</time>
      </trkpt>
      <trkpt lat="46.75847" lon="5.63288">
        <ele>394.4</ele>
        <time>2020-06-09T09:39:50Z</time>
      </trkpt>
      <trkpt lat="46.75845" lon="5.63286">
        <ele>394.6</ele>
        <time>2020-06-09T09:39:51Z</time>
      </trkpt>
      <trkpt lat="46.75843" lon="5.63284">
        <ele>394.6</ele>
        <time>2020-06-09T09:39:52Z</time>
      </trkpt>
      <trkpt lat="46.7584" lon="5.63282">
        <ele>394.8</ele>
        <time>2020-06-09T09:39:53Z</time>
      </trkpt>
      <trkpt lat="46.75838" lon="5.63281">
        <ele>395</ele>
        <time>2020-06-09T09:39:54Z</time>
      </trkpt>
      <trkpt lat="46.75836" lon="5.63279">
        <ele>395</ele>
        <time>2020-06-09T09:39:55Z</time>
      </trkpt>
      <trkpt lat="46.75834" lon="5.63277">
        <ele>395.4</ele>
        <time>2020-06-09T09:39:56Z</time>
      </trkpt>
      <trkpt lat="46.75832" lon="5.63275">
        <ele>395.8</ele>
        <time>2020-06-09T09:39:57Z</time>
      </trkpt>
      <trkpt lat="46.7583" lon="5.63273">
        <ele>395.8</ele>
        <time>2020-06-09T09:39:58Z</time>
      </trkpt>
      <trkpt lat="46.75828" lon="5.6327">
        <ele>396</ele>
        <time>2020-06-09T09:39:59Z</time>
      </trkpt>
      <trkpt lat="46.75825" lon="5.63268">
        <ele>396.2</ele>
        <time>2020-06-09T09:40:00Z</time>
      </trkpt>
      <trkpt lat="46.7582" lon="5.63266">
        <ele>396.6</ele>
        <time>2020-06-09T09:40:01Z</time>
      </trkpt>
      <trkpt lat="46.75817" lon="5.63264">
        <ele>396.8</ele>
        <time>2020-06-09T09:40:02Z</time>
      </trkpt>
      <trkpt lat="46.75814" lon="5.63263">
        <ele>397</ele>
        <time>2020-06-09T09:40:03Z</time>
      </trkpt>
      <trkpt lat="46.75811" lon="5.63261">
        <ele>397</ele>
        <time>2020-06-09T09:40:04Z</time>
      </trkpt>
      <trkpt lat="46.75809" lon="5.6326">
        <ele>397.4</ele>
        <time>2020-06-09T09:40:05Z</time>
      </trkpt>
      <trkpt lat="46.75807" lon="5.6326">
        <ele>397.6</ele>
        <time>2020-06-09T09:40:06Z</time>
      </trkpt>
      <trkpt lat="46.75803" lon="5.63258">
        <ele>397.8</ele>
        <time>2020-06-09T09:40:07Z</time>
      </trkpt>
      <trkpt lat="46.758" lon="5.63257">
        <ele>397.8</ele>
        <time>2020-06-09T09:40:08Z</time>
      </trkpt>
      <trkpt lat="46.75796" lon="5.63255">
        <ele>398.4</ele>
        <time>2020-06-09T09:40:09Z</time>
      </trkpt>
      <trkpt lat="46.75792" lon="5.63254">
        <ele>398.4</ele>
        <time>2020-06-09T09:40:10Z</time>
      </trkpt>
      <trkpt lat="46.75789" lon="5.63253">
        <ele>398.8</ele>
        <time>2020-06-09T09:40:11Z</time>
      </trkpt>
      <trkpt lat="46.75787" lon="5.63252">
        <ele>398.8</ele>
        <time>2020-06-09T09:40:12Z</time>
      </trkpt>
      <trkpt lat="46.75785" lon="5.63251">
        <ele>399</ele>
        <time>2020-06-09T09:40:13Z</time>
      </trkpt>
      <trkpt lat="46.75782" lon="5.6325">
        <ele>399.2</ele>
        <time>2020-06-09T09:40:14Z</time>
      </trkpt>
      <trkpt lat="46.75779" lon="5.63249">
        <ele>399.4</ele>
        <time>2020-06-09T09:40:15Z</time>
      </trkpt>
      <trkpt lat="46.75778" lon="5.63248">
        <ele>399.4</ele>
        <time>2020-06-09T09:40:16Z</time>
      </trkpt>
      <trkpt lat="46.75776" lon="5.63247">
        <ele>399.8</ele>
        <time>2020-06-09T09:40:17Z</time>
      </trkpt>
      <trkpt lat="46.75775" lon="5.63245">
        <ele>399.8</ele>
        <time>2020-06-09T09:40:18Z</time>
      </trkpt>
      <trkpt lat="46.75774" lon="5.63244">
        <ele>400.2</ele>
        <time>2020-06-09T09:40:19Z</time>
      </trkpt>
      <trkpt lat="46.75772" lon="5.63242">
        <ele>400.2</ele>
        <time>2020-06-09T09:40:20Z</time>
      </trkpt>
      <trkpt lat="46.75771" lon="5.63241">
        <ele>400.4</ele>
        <time>2020-06-09T09:40:21Z</time>
      </trkpt>
      <trkpt lat="46.75769" lon="5.63239">
        <ele>400.4</ele>
        <time>2020-06-09T09:40:22Z</time>
      </trkpt>
      <trkpt lat="46.75768" lon="5.63237">
        <ele>400.6</ele>
        <time>2020-06-09T09:40:23Z</time>
      </trkpt>
      <trkpt lat="46.75767" lon="5.63236">
        <ele>400.6</ele>
        <time>2020-06-09T09:40:24Z</time>
      </trkpt>
      <trkpt lat="46.75765" lon="5.63234">
        <ele>401</ele>
        <time>2020-06-09T09:40:25Z</time>
      </trkpt>
      <trkpt lat="46.75764" lon="5.63232">
        <ele>401</ele>
        <time>2020-06-09T09:40:26Z</time>
      </trkpt>
      <trkpt lat="46.75763" lon="5.6323">
        <ele>401.4</ele>
        <time>2020-06-09T09:40:27Z</time>
      </trkpt>
      <trkpt lat="46.75762" lon="5.63228">
        <ele>401.6</ele>
        <time>2020-06-09T09:40:28Z</time>
      </trkpt>
      <trkpt lat="46.75761" lon="5.63226">
        <ele>401.8</ele>
        <time>2020-06-09T09:40:29Z</time>
      </trkpt>
      <trkpt lat="46.7576" lon="5.63224">
        <ele>401.8</ele>
        <time>2020-06-09T09:40:30Z</time>
      </trkpt>
      <trkpt lat="46.75757" lon="5.63221">
        <ele>402.2</ele>
        <time>2020-06-09T09:40:31Z</time>
      </trkpt>
      <trkpt lat="46.75756" lon="5.63218">
        <ele>402.4</ele>
        <time>2020-06-09T09:40:32Z</time>
      </trkpt>
      <trkpt lat="46.75754" lon="5.63215">
        <ele>402.8</ele>
        <time>2020-06-09T09:40:33Z</time>
      </trkpt>
      <trkpt lat="46.75747" lon="5.63207">
        <ele>402.8</ele>
        <time>2020-06-09T09:40:34Z</time>
      </trkpt>
      <trkpt lat="46.75743" lon="5.63202">
        <ele>403.2</ele>
        <time>2020-06-09T09:40:35Z</time>
      </trkpt>
      <trkpt lat="46.75739" lon="5.63197">
        <ele>403.4</ele>
        <time>2020-06-09T09:40:36Z</time>
      </trkpt>
      <trkpt lat="46.75737" lon="5.63193">
        <ele>403.8</ele>
        <time>2020-06-09T09:40:37Z</time>
      </trkpt>
      <trkpt lat="46.75736" lon="5.63189">
        <ele>403.8</ele>
        <time>2020-06-09T09:40:38Z</time>
      </trkpt>
      <trkpt lat="46.75734" lon="5.63186">
        <ele>404.2</ele>
        <time>2020-06-09T09:40:39Z</time>
      </trkpt>
      <trkpt lat="46.75733" lon="5.63182">
        <ele>404.2</ele>
        <time>2020-06-09T09:40:40Z</time>
      </trkpt>
      <trkpt lat="46.7573" lon="5.63178">
        <ele>404.6</ele>
        <time>2020-06-09T09:40:41Z</time>
      </trkpt>
      <trkpt lat="46.75727" lon="5.63174">
        <ele>404.8</ele>
        <time>2020-06-09T09:40:42Z</time>
      </trkpt>
      <trkpt lat="46.75723" lon="5.6317">
        <ele>404.8</ele>
        <time>2020-06-09T09:40:43Z</time>
      </trkpt>
      <trkpt lat="46.7572" lon="5.63166">
        <ele>405.2</ele>
        <time>2020-06-09T09:40:44Z</time>
      </trkpt>
      <trkpt lat="46.75717" lon="5.63161">
        <ele>405.4</ele>
        <time>2020-06-09T09:40:45Z</time>
      </trkpt>
      <trkpt lat="46.75714" lon="5.63157">
        <ele>405.6</ele>
        <time>2020-06-09T09:40:46Z</time>
      </trkpt>
      <trkpt lat="46.75711" lon="5.63154">
        <ele>405.8</ele>
        <time>2020-06-09T09:40:47Z</time>
      </trkpt>
      <trkpt lat="46.75708" lon="5.63151">
        <ele>406.2</ele>
        <time>2020-06-09T09:40:48Z</time>
      </trkpt>
      <trkpt lat="46.75704" lon="5.63148">
        <ele>406.2</ele>
        <time>2020-06-09T09:40:49Z</time>
      </trkpt>
      <trkpt lat="46.757" lon="5.63145">
        <ele>406.6</ele>
        <time>2020-06-09T09:40:50Z</time>
      </trkpt>
      <trkpt lat="46.75697" lon="5.63142">
        <ele>406.8</ele>
        <time>2020-06-09T09:40:51Z</time>
      </trkpt>
      <trkpt lat="46.75694" lon="5.63139">
        <ele>407</ele>
        <time>2020-06-09T09:40:52Z</time>
      </trkpt>
      <trkpt lat="46.75691" lon="5.63136">
        <ele>407.2</ele>
        <time>2020-06-09T09:40:53Z</time>
      </trkpt>
      <trkpt lat="46.75689" lon="5.63132">
        <ele>407.6</ele>
        <time>2020-06-09T09:40:54Z</time>
      </trkpt>
      <trkpt lat="46.75686" lon="5.63128">
        <ele>407.8</ele>
        <time>2020-06-09T09:40:55Z</time>
      </trkpt>
      <trkpt lat="46.75684" lon="5.63124">
        <ele>407.8</ele>
        <time>2020-06-09T09:40:56Z</time>
      </trkpt>
      <trkpt lat="46.75683" lon="5.6312">
        <ele>408.2</ele>
        <time>2020-06-09T09:40:57Z</time>
      </trkpt>
      <trkpt lat="46.75682" lon="5.63116">
        <ele>408.2</ele>
        <time>2020-06-09T09:40:58Z</time>
      </trkpt>
      <trkpt lat="46.7568" lon="5.63112">
        <ele>408.2</ele>
        <time>2020-06-09T09:40:59Z</time>
      </trkpt>
      <trkpt lat="46.75677" lon="5.63106">
        <ele>408.4</ele>
        <time>2020-06-09T09:41:00Z</time>
      </trkpt>
      <trkpt lat="46.75675" lon="5.631">
        <ele>408.4</ele>
        <time>2020-06-09T09:41:01Z</time>
      </trkpt>
      <trkpt lat="46.75672" lon="5.63094">
        <ele>408.4</ele>
        <time>2020-06-09T09:41:02Z</time>
      </trkpt>
      <trkpt lat="46.7567" lon="5.63088">
        <ele>408.4</ele>
        <time>2020-06-09T09:41:03Z</time>
      </trkpt>
      <trkpt lat="46.75668" lon="5.63081">
        <ele>408.4</ele>
        <time>2020-06-09T09:41:04Z</time>
      </trkpt>
      <trkpt lat="46.75666" lon="5.63075">
        <ele>408.4</ele>
        <time>2020-06-09T09:41:05Z</time>
      </trkpt>
      <trkpt lat="46.75664" lon="5.63069">
        <ele>408.8</ele>
        <time>2020-06-09T09:41:06Z</time>
      </trkpt>
      <trkpt lat="46.75661" lon="5.63063">
        <ele>408.8</ele>
        <time>2020-06-09T09:41:07Z</time>
      </trkpt>
      <trkpt lat="46.75659" lon="5.63058">
        <ele>408.8</ele>
        <time>2020-06-09T09:41:08Z</time>
      </trkpt>
      <trkpt lat="46.75657" lon="5.63053">
        <ele>409</ele>
        <time>2020-06-09T09:41:09Z</time>
      </trkpt>
      <trkpt lat="46.75655" lon="5.63048">
        <ele>409</ele>
        <time>2020-06-09T09:41:10Z</time>
      </trkpt>
      <trkpt lat="46.75653" lon="5.63043">
        <ele>409.4</ele>
        <time>2020-06-09T09:41:11Z</time>
      </trkpt>
      <trkpt lat="46.75652" lon="5.63039">
        <ele>409.4</ele>
        <time>2020-06-09T09:41:12Z</time>
      </trkpt>
      <trkpt lat="46.7565" lon="5.63035">
        <ele>409.8</ele>
        <time>2020-06-09T09:41:13Z</time>
      </trkpt>
      <trkpt lat="46.75649" lon="5.63031">
        <ele>409.8</ele>
        <time>2020-06-09T09:41:14Z</time>
      </trkpt>
      <trkpt lat="46.75648" lon="5.63026">
        <ele>410</ele>
        <time>2020-06-09T09:41:15Z</time>
      </trkpt>
      <trkpt lat="46.75646" lon="5.63022">
        <ele>410</ele>
        <time>2020-06-09T09:41:16Z</time>
      </trkpt>
      <trkpt lat="46.75645" lon="5.63018">
        <ele>410.4</ele>
        <time>2020-06-09T09:41:17Z</time>
      </trkpt>
      <trkpt lat="46.75643" lon="5.63014">
        <ele>410.6</ele>
        <time>2020-06-09T09:41:18Z</time>
      </trkpt>
      <trkpt lat="46.75642" lon="5.63011">
        <ele>410.6</ele>
        <time>2020-06-09T09:41:19Z</time>
      </trkpt>
      <trkpt lat="46.7564" lon="5.63007">
        <ele>411</ele>
        <time>2020-06-09T09:41:20Z</time>
      </trkpt>
      <trkpt lat="46.75639" lon="5.63004">
        <ele>411</ele>
        <time>2020-06-09T09:41:21Z</time>
      </trkpt>
      <trkpt lat="46.75637" lon="5.63">
        <ele>411.4</ele>
        <time>2020-06-09T09:41:22Z</time>
      </trkpt>
      <trkpt lat="46.75636" lon="5.62997">
        <ele>411.4</ele>
        <time>2020-06-09T09:41:23Z</time>
      </trkpt>
      <trkpt lat="46.75634" lon="5.62993">
        <ele>411.6</ele>
        <time>2020-06-09T09:41:24Z</time>
      </trkpt>
      <trkpt lat="46.75632" lon="5.6299">
        <ele>411.8</ele>
        <time>2020-06-09T09:41:25Z</time>
      </trkpt>
      <trkpt lat="46.7563" lon="5.62985">
        <ele>411.8</ele>
        <time>2020-06-09T09:41:26Z</time>
      </trkpt>
      <trkpt lat="46.75627" lon="5.62981">
        <ele>412.2</ele>
        <time>2020-06-09T09:41:27Z</time>
      </trkpt>
      <trkpt lat="46.75625" lon="5.62977">
        <ele>412.2</ele>
        <time>2020-06-09T09:41:28Z</time>
      </trkpt>
      <trkpt lat="46.75623" lon="5.62973">
        <ele>412.4</ele>
        <time>2020-06-09T09:41:29Z</time>
      </trkpt>
      <trkpt lat="46.75621" lon="5.62969">
        <ele>412.4</ele>
        <time>2020-06-09T09:41:30Z</time>
      </trkpt>
      <trkpt lat="46.75619" lon="5.62965">
        <ele>412.8</ele>
        <time>2020-06-09T09:41:31Z</time>
      </trkpt>
      <trkpt lat="46.75617" lon="5.62961">
        <ele>413</ele>
        <time>2020-06-09T09:41:32Z</time>
      </trkpt>
      <trkpt lat="46.75615" lon="5.62957">
        <ele>413</ele>
        <time>2020-06-09T09:41:33Z</time>
      </trkpt>
      <trkpt lat="46.75613" lon="5.62953">
        <ele>413</ele>
        <time>2020-06-09T09:41:34Z</time>
      </trkpt>
      <trkpt lat="46.75611" lon="5.62949">
        <ele>413.4</ele>
        <time>2020-06-09T09:41:35Z</time>
      </trkpt>
      <trkpt lat="46.7561" lon="5.62944">
        <ele>413.4</ele>
        <time>2020-06-09T09:41:36Z</time>
      </trkpt>
      <trkpt lat="46.75608" lon="5.6294">
        <ele>413.6</ele>
        <time>2020-06-09T09:41:37Z</time>
      </trkpt>
      <trkpt lat="46.75606" lon="5.62935">
        <ele>413.6</ele>
        <time>2020-06-09T09:41:38Z</time>
      </trkpt>
      <trkpt lat="46.75604" lon="5.62931">
        <ele>414</ele>
        <time>2020-06-09T09:41:39Z</time>
      </trkpt>
      <trkpt lat="46.75602" lon="5.62927">
        <ele>414</ele>
        <time>2020-06-09T09:41:40Z</time>
      </trkpt>
      <trkpt lat="46.75601" lon="5.62923">
        <ele>414.2</ele>
        <time>2020-06-09T09:41:41Z</time>
      </trkpt>
      <trkpt lat="46.756" lon="5.62919">
        <ele>414.4</ele>
        <time>2020-06-09T09:41:42Z</time>
      </trkpt>
      <trkpt lat="46.75599" lon="5.62916">
        <ele>414.6</ele>
        <time>2020-06-09T09:41:43Z</time>
      </trkpt>
      <trkpt lat="46.75598" lon="5.62912">
        <ele>414.6</ele>
        <time>2020-06-09T09:41:44Z</time>
      </trkpt>
      <trkpt lat="46.75596" lon="5.62909">
        <ele>414.6</ele>
        <time>2020-06-09T09:41:45Z</time>
      </trkpt>
      <trkpt lat="46.75596" lon="5.62905">
        <ele>415</ele>
        <time>2020-06-09T09:41:46Z</time>
      </trkpt>
      <trkpt lat="46.75595" lon="5.62902">
        <ele>415</ele>
        <time>2020-06-09T09:41:47Z</time>
      </trkpt>
      <trkpt lat="46.75594" lon="5.62897">
        <ele>415.4</ele>
        <time>2020-06-09T09:41:48Z</time>
      </trkpt>
      <trkpt lat="46.75593" lon="5.62891">
        <ele>415.4</ele>
        <time>2020-06-09T09:41:49Z</time>
      </trkpt>
      <trkpt lat="46.75592" lon="5.62886">
        <ele>415.8</ele>
        <time>2020-06-09T09:41:50Z</time>
      </trkpt>
      <trkpt lat="46.75591" lon="5.62881">
        <ele>415.8</ele>
        <time>2020-06-09T09:41:51Z</time>
      </trkpt>
      <trkpt lat="46.75591" lon="5.62875">
        <ele>416.2</ele>
        <time>2020-06-09T09:41:52Z</time>
      </trkpt>
      <trkpt lat="46.7559" lon="5.6287">
        <ele>416.4</ele>
        <time>2020-06-09T09:41:53Z</time>
      </trkpt>
      <trkpt lat="46.7559" lon="5.62866">
        <ele>416.4</ele>
        <time>2020-06-09T09:41:54Z</time>
      </trkpt>
      <trkpt lat="46.75589" lon="5.62861">
        <ele>416.8</ele>
        <time>2020-06-09T09:41:55Z</time>
      </trkpt>
      <trkpt lat="46.75588" lon="5.62857">
        <ele>417.2</ele>
        <time>2020-06-09T09:41:56Z</time>
      </trkpt>
      <trkpt lat="46.75587" lon="5.62852">
        <ele>417.2</ele>
        <time>2020-06-09T09:41:57Z</time>
      </trkpt>
      <trkpt lat="46.75586" lon="5.62848">
        <ele>417.6</ele>
        <time>2020-06-09T09:41:58Z</time>
      </trkpt>
      <trkpt lat="46.75587" lon="5.62843">
        <ele>417.8</ele>
        <time>2020-06-09T09:41:59Z</time>
      </trkpt>
      <trkpt lat="46.75587" lon="5.62839">
        <ele>417.8</ele>
        <time>2020-06-09T09:42:00Z</time>
      </trkpt>
      <trkpt lat="46.75586" lon="5.62834">
        <ele>418.2</ele>
        <time>2020-06-09T09:42:01Z</time>
      </trkpt>
      <trkpt lat="46.75586" lon="5.62829">
        <ele>418.2</ele>
        <time>2020-06-09T09:42:02Z</time>
      </trkpt>
      <trkpt lat="46.75586" lon="5.62825">
        <ele>418.6</ele>
        <time>2020-06-09T09:42:03Z</time>
      </trkpt>
      <trkpt lat="46.75587" lon="5.6282">
        <ele>418.6</ele>
        <time>2020-06-09T09:42:04Z</time>
      </trkpt>
      <trkpt lat="46.75587" lon="5.62816">
        <ele>419</ele>
        <time>2020-06-09T09:42:05Z</time>
      </trkpt>
      <trkpt lat="46.75587" lon="5.62811">
        <ele>419.2</ele>
        <time>2020-06-09T09:42:06Z</time>
      </trkpt>
      <trkpt lat="46.75587" lon="5.62806">
        <ele>419.2</ele>
        <time>2020-06-09T09:42:07Z</time>
      </trkpt>
      <trkpt lat="46.75587" lon="5.62801">
        <ele>419.6</ele>
        <time>2020-06-09T09:42:08Z</time>
      </trkpt>
      <trkpt lat="46.75587" lon="5.62796">
        <ele>419.6</ele>
        <time>2020-06-09T09:42:09Z</time>
      </trkpt>
      <trkpt lat="46.75587" lon="5.62791">
        <ele>419.8</ele>
        <time>2020-06-09T09:42:10Z</time>
      </trkpt>
      <trkpt lat="46.75588" lon="5.62787">
        <ele>419.8</ele>
        <time>2020-06-09T09:42:11Z</time>
      </trkpt>
      <trkpt lat="46.75588" lon="5.62782">
        <ele>420.2</ele>
        <time>2020-06-09T09:42:12Z</time>
      </trkpt>
      <trkpt lat="46.75589" lon="5.62777">
        <ele>420.4</ele>
        <time>2020-06-09T09:42:13Z</time>
      </trkpt>
      <trkpt lat="46.75589" lon="5.62773">
        <ele>420.8</ele>
        <time>2020-06-09T09:42:14Z</time>
      </trkpt>
      <trkpt lat="46.7559" lon="5.62768">
        <ele>420.8</ele>
        <time>2020-06-09T09:42:15Z</time>
      </trkpt>
      <trkpt lat="46.75591" lon="5.62764">
        <ele>421.2</ele>
        <time>2020-06-09T09:42:16Z</time>
      </trkpt>
      <trkpt lat="46.75591" lon="5.6276">
        <ele>421.2</ele>
        <time>2020-06-09T09:42:17Z</time>
      </trkpt>
      <trkpt lat="46.75592" lon="5.62755">
        <ele>421.6</ele>
        <time>2020-06-09T09:42:18Z</time>
      </trkpt>
      <trkpt lat="46.75593" lon="5.62751">
        <ele>421.8</ele>
        <time>2020-06-09T09:42:19Z</time>
      </trkpt>
      <trkpt lat="46.75594" lon="5.62747">
        <ele>422</ele>
        <time>2020-06-09T09:42:20Z</time>
      </trkpt>
      <trkpt lat="46.75594" lon="5.62743">
        <ele>422</ele>
        <time>2020-06-09T09:42:21Z</time>
      </trkpt>
      <trkpt lat="46.75594" lon="5.6274">
        <ele>422.4</ele>
        <time>2020-06-09T09:42:22Z</time>
      </trkpt>
      <trkpt lat="46.75595" lon="5.62736">
        <ele>422.4</ele>
        <time>2020-06-09T09:42:23Z</time>
      </trkpt>
      <trkpt lat="46.75595" lon="5.62732">
        <ele>422.8</ele>
        <time>2020-06-09T09:42:24Z</time>
      </trkpt>
      <trkpt lat="46.75596" lon="5.62728">
        <ele>423</ele>
        <time>2020-06-09T09:42:25Z</time>
      </trkpt>
      <trkpt lat="46.75597" lon="5.62725">
        <ele>423.4</ele>
        <time>2020-06-09T09:42:26Z</time>
      </trkpt>
      <trkpt lat="46.75599" lon="5.62721">
        <ele>423.6</ele>
        <time>2020-06-09T09:42:27Z</time>
      </trkpt>
      <trkpt lat="46.75601" lon="5.62718">
        <ele>423.8</ele>
        <time>2020-06-09T09:42:28Z</time>
      </trkpt>
      <trkpt lat="46.75603" lon="5.62715">
        <ele>423.8</ele>
        <time>2020-06-09T09:42:29Z</time>
      </trkpt>
      <trkpt lat="46.75605" lon="5.62712">
        <ele>424.2</ele>
        <time>2020-06-09T09:42:30Z</time>
      </trkpt>
      <trkpt lat="46.75607" lon="5.6271">
        <ele>424.2</ele>
        <time>2020-06-09T09:42:31Z</time>
      </trkpt>
      <trkpt lat="46.75609" lon="5.62708">
        <ele>424.6</ele>
        <time>2020-06-09T09:42:32Z</time>
      </trkpt>
      <trkpt lat="46.75611" lon="5.62706">
        <ele>424.6</ele>
        <time>2020-06-09T09:42:33Z</time>
      </trkpt>
      <trkpt lat="46.75613" lon="5.62705">
        <ele>425</ele>
        <time>2020-06-09T09:42:34Z</time>
      </trkpt>
      <trkpt lat="46.75615" lon="5.62705">
        <ele>425.2</ele>
        <time>2020-06-09T09:42:35Z</time>
      </trkpt>
      <trkpt lat="46.75617" lon="5.62704">
        <ele>425.4</ele>
        <time>2020-06-09T09:42:36Z</time>
      </trkpt>
      <trkpt lat="46.75619" lon="5.62704">
        <ele>425.4</ele>
        <time>2020-06-09T09:42:37Z</time>
      </trkpt>
      <trkpt lat="46.75621" lon="5.62704">
        <ele>425.8</ele>
        <time>2020-06-09T09:42:38Z</time>
      </trkpt>
      <trkpt lat="46.75623" lon="5.62703">
        <ele>425.8</ele>
        <time>2020-06-09T09:42:39Z</time>
      </trkpt>
      <trkpt lat="46.75625" lon="5.62703">
        <ele>426</ele>
        <time>2020-06-09T09:42:40Z</time>
      </trkpt>
      <trkpt lat="46.75627" lon="5.62703">
        <ele>426</ele>
        <time>2020-06-09T09:42:41Z</time>
      </trkpt>
      <trkpt lat="46.7563" lon="5.62703">
        <ele>426.4</ele>
        <time>2020-06-09T09:42:42Z</time>
      </trkpt>
      <trkpt lat="46.75633" lon="5.62704">
        <ele>426.4</ele>
        <time>2020-06-09T09:42:43Z</time>
      </trkpt>
      <trkpt lat="46.75636" lon="5.62704">
        <ele>426.8</ele>
        <time>2020-06-09T09:42:44Z</time>
      </trkpt>
      <trkpt lat="46.75639" lon="5.62705">
        <ele>427</ele>
        <time>2020-06-09T09:42:45Z</time>
      </trkpt>
      <trkpt lat="46.75643" lon="5.62705">
        <ele>427.2</ele>
        <time>2020-06-09T09:42:46Z</time>
      </trkpt>
      <trkpt lat="46.75645" lon="5.62705">
        <ele>427.4</ele>
        <time>2020-06-09T09:42:47Z</time>
      </trkpt>
      <trkpt lat="46.75648" lon="5.62706">
        <ele>427.6</ele>
        <time>2020-06-09T09:42:48Z</time>
      </trkpt>
      <trkpt lat="46.75651" lon="5.62706">
        <ele>427.6</ele>
        <time>2020-06-09T09:42:49Z</time>
      </trkpt>
      <trkpt lat="46.75653" lon="5.62706">
        <ele>428</ele>
        <time>2020-06-09T09:42:50Z</time>
      </trkpt>
      <trkpt lat="46.75656" lon="5.62707">
        <ele>428</ele>
        <time>2020-06-09T09:42:51Z</time>
      </trkpt>
      <trkpt lat="46.75659" lon="5.62708">
        <ele>428.4</ele>
        <time>2020-06-09T09:42:52Z</time>
      </trkpt>
      <trkpt lat="46.75662" lon="5.62709">
        <ele>428.4</ele>
        <time>2020-06-09T09:42:53Z</time>
      </trkpt>
      <trkpt lat="46.75665" lon="5.62709">
        <ele>428.8</ele>
        <time>2020-06-09T09:42:54Z</time>
      </trkpt>
      <trkpt lat="46.75668" lon="5.6271">
        <ele>428.8</ele>
        <time>2020-06-09T09:42:55Z</time>
      </trkpt>
      <trkpt lat="46.75671" lon="5.6271">
        <ele>429.2</ele>
        <time>2020-06-09T09:42:56Z</time>
      </trkpt>
      <trkpt lat="46.75675" lon="5.62711">
        <ele>429.2</ele>
        <time>2020-06-09T09:42:57Z</time>
      </trkpt>
      <trkpt lat="46.75678" lon="5.62711">
        <ele>429.4</ele>
        <time>2020-06-09T09:42:58Z</time>
      </trkpt>
      <trkpt lat="46.75682" lon="5.62712">
        <ele>429.4</ele>
        <time>2020-06-09T09:42:59Z</time>
      </trkpt>
      <trkpt lat="46.75685" lon="5.62713">
        <ele>429.6</ele>
        <time>2020-06-09T09:43:00Z</time>
      </trkpt>
      <trkpt lat="46.75689" lon="5.62713">
        <ele>429.6</ele>
        <time>2020-06-09T09:43:01Z</time>
      </trkpt>
      <trkpt lat="46.75692" lon="5.62713">
        <ele>430</ele>
        <time>2020-06-09T09:43:02Z</time>
      </trkpt>
      <trkpt lat="46.75695" lon="5.62713">
        <ele>430.2</ele>
        <time>2020-06-09T09:43:03Z</time>
      </trkpt>
      <trkpt lat="46.75698" lon="5.62713">
        <ele>430.2</ele>
        <time>2020-06-09T09:43:04Z</time>
      </trkpt>
      <trkpt lat="46.75701" lon="5.62712">
        <ele>430.6</ele>
        <time>2020-06-09T09:43:05Z</time>
      </trkpt>
      <trkpt lat="46.75704" lon="5.62711">
        <ele>430.8</ele>
        <time>2020-06-09T09:43:06Z</time>
      </trkpt>
      <trkpt lat="46.75707" lon="5.6271">
        <ele>430.8</ele>
        <time>2020-06-09T09:43:07Z</time>
      </trkpt>
      <trkpt lat="46.7571" lon="5.62709">
        <ele>431.2</ele>
        <time>2020-06-09T09:43:08Z</time>
      </trkpt>
      <trkpt lat="46.75712" lon="5.62708">
        <ele>431.4</ele>
        <time>2020-06-09T09:43:09Z</time>
      </trkpt>
      <trkpt lat="46.75715" lon="5.62707">
        <ele>431.6</ele>
        <time>2020-06-09T09:43:10Z</time>
      </trkpt>
      <trkpt lat="46.75717" lon="5.62706">
        <ele>431.6</ele>
        <time>2020-06-09T09:43:11Z</time>
      </trkpt>
      <trkpt lat="46.7572" lon="5.62706">
        <ele>431.8</ele>
        <time>2020-06-09T09:43:12Z</time>
      </trkpt>
      <trkpt lat="46.75722" lon="5.62705">
        <ele>431.8</ele>
        <time>2020-06-09T09:43:13Z</time>
      </trkpt>
      <trkpt lat="46.75724" lon="5.62704">
        <ele>432.2</ele>
        <time>2020-06-09T09:43:14Z</time>
      </trkpt>
      <trkpt lat="46.75726" lon="5.62703">
        <ele>432.2</ele>
        <time>2020-06-09T09:43:15Z</time>
      </trkpt>
      <trkpt lat="46.75728" lon="5.62701">
        <ele>432.4</ele>
        <time>2020-06-09T09:43:16Z</time>
      </trkpt>
      <trkpt lat="46.75729" lon="5.62699">
        <ele>432.4</ele>
        <time>2020-06-09T09:43:17Z</time>
      </trkpt>
      <trkpt lat="46.7573" lon="5.62698">
        <ele>432.4</ele>
        <time>2020-06-09T09:43:18Z</time>
      </trkpt>
      <trkpt lat="46.75732" lon="5.62696">
        <ele>432.8</ele>
        <time>2020-06-09T09:43:19Z</time>
      </trkpt>
      <trkpt lat="46.75733" lon="5.62694">
        <ele>432.8</ele>
        <time>2020-06-09T09:43:20Z</time>
      </trkpt>
      <trkpt lat="46.75734" lon="5.62693">
        <ele>432.8</ele>
        <time>2020-06-09T09:43:21Z</time>
      </trkpt>
      <trkpt lat="46.75735" lon="5.62691">
        <ele>432.8</ele>
        <time>2020-06-09T09:43:22Z</time>
      </trkpt>
      <trkpt lat="46.75736" lon="5.6269">
        <ele>432.8</ele>
        <time>2020-06-09T09:43:23Z</time>
      </trkpt>
      <trkpt lat="46.75736" lon="5.6269">
        <ele>432.8</ele>
        <time>2020-06-09T09:43:24Z</time>
      </trkpt>
      <trkpt lat="46.75731" lon="5.62689">
        <ele>432.8</ele>
        <time>2020-06-09T09:44:57Z</time>
      </trkpt>
      <trkpt lat="46.75729" lon="5.62688">
        <ele>432.8</ele>
        <time>2020-06-09T09:44:58Z</time>
      </trkpt>
      <trkpt lat="46.75727" lon="5.62687">
        <ele>433</ele>
        <time>2020-06-09T09:44:59Z</time>
      </trkpt>
      <trkpt lat="46.75725" lon="5.62686">
        <ele>433</ele>
        <time>2020-06-09T09:45:00Z</time>
      </trkpt>
      <trkpt lat="46.75723" lon="5.62684">
        <ele>433</ele>
        <time>2020-06-09T09:45:01Z</time>
      </trkpt>
      <trkpt lat="46.7572" lon="5.62683">
        <ele>433.2</ele>
        <time>2020-06-09T09:45:02Z</time>
      </trkpt>
      <trkpt lat="46.75718" lon="5.62681">
        <ele>433.2</ele>
        <time>2020-06-09T09:45:03Z</time>
      </trkpt>
      <trkpt lat="46.75715" lon="5.6268">
        <ele>433.2</ele>
        <time>2020-06-09T09:45:04Z</time>
      </trkpt>
      <trkpt lat="46.75713" lon="5.62678">
        <ele>433.4</ele>
        <time>2020-06-09T09:45:05Z</time>
      </trkpt>
      <trkpt lat="46.7571" lon="5.62677">
        <ele>433.4</ele>
        <time>2020-06-09T09:45:06Z</time>
      </trkpt>
      <trkpt lat="46.75707" lon="5.62677">
        <ele>433.6</ele>
        <time>2020-06-09T09:45:07Z</time>
      </trkpt>
      <trkpt lat="46.75704" lon="5.62676">
        <ele>433.6</ele>
        <time>2020-06-09T09:45:08Z</time>
      </trkpt>
      <trkpt lat="46.75702" lon="5.62674">
        <ele>434</ele>
        <time>2020-06-09T09:45:09Z</time>
      </trkpt>
      <trkpt lat="46.757" lon="5.62672">
        <ele>434</ele>
        <time>2020-06-09T09:45:10Z</time>
      </trkpt>
      <trkpt lat="46.75697" lon="5.6267">
        <ele>434.2</ele>
        <time>2020-06-09T09:45:11Z</time>
      </trkpt>
      <trkpt lat="46.75695" lon="5.62667">
        <ele>434.2</ele>
        <time>2020-06-09T09:45:12Z</time>
      </trkpt>
      <trkpt lat="46.75693" lon="5.62664">
        <ele>434.6</ele>
        <time>2020-06-09T09:45:13Z</time>
      </trkpt>
      <trkpt lat="46.7569" lon="5.62661">
        <ele>434.6</ele>
        <time>2020-06-09T09:45:14Z</time>
      </trkpt>
      <trkpt lat="46.75688" lon="5.62658">
        <ele>434.8</ele>
        <time>2020-06-09T09:45:15Z</time>
      </trkpt>
      <trkpt lat="46.75686" lon="5.62655">
        <ele>435.2</ele>
        <time>2020-06-09T09:45:16Z</time>
      </trkpt>
      <trkpt lat="46.75683" lon="5.62652">
        <ele>435.4</ele>
        <time>2020-06-09T09:45:17Z</time>
      </trkpt>
      <trkpt lat="46.75681" lon="5.62649">
        <ele>435.4</ele>
        <time>2020-06-09T09:45:18Z</time>
      </trkpt>
      <trkpt lat="46.75678" lon="5.62647">
        <ele>435.8</ele>
        <time>2020-06-09T09:45:19Z</time>
      </trkpt>
      <trkpt lat="46.75676" lon="5.62644">
        <ele>435.8</ele>
        <time>2020-06-09T09:45:20Z</time>
      </trkpt>
      <trkpt lat="46.75674" lon="5.62641">
        <ele>436</ele>
        <time>2020-06-09T09:45:21Z</time>
      </trkpt>
      <trkpt lat="46.75672" lon="5.62639">
        <ele>436.2</ele>
        <time>2020-06-09T09:45:22Z</time>
      </trkpt>
      <trkpt lat="46.7567" lon="5.62636">
        <ele>436.4</ele>
        <time>2020-06-09T09:45:23Z</time>
      </trkpt>
      <trkpt lat="46.75668" lon="5.62633">
        <ele>436.4</ele>
        <time>2020-06-09T09:45:24Z</time>
      </trkpt>
      <trkpt lat="46.75666" lon="5.6263">
        <ele>436.8</ele>
        <time>2020-06-09T09:45:25Z</time>
      </trkpt>
      <trkpt lat="46.75663" lon="5.62627">
        <ele>436.8</ele>
        <time>2020-06-09T09:45:26Z</time>
      </trkpt>
      <trkpt lat="46.75661" lon="5.62624">
        <ele>437</ele>
        <time>2020-06-09T09:45:27Z</time>
      </trkpt>
      <trkpt lat="46.75659" lon="5.6262">
        <ele>437</ele>
        <time>2020-06-09T09:45:28Z</time>
      </trkpt>
      <trkpt lat="46.75656" lon="5.62618">
        <ele>437.2</ele>
        <time>2020-06-09T09:45:29Z</time>
      </trkpt>
      <trkpt lat="46.75654" lon="5.62615">
        <ele>437.2</ele>
        <time>2020-06-09T09:45:30Z</time>
      </trkpt>
      <trkpt lat="46.75652" lon="5.62613">
        <ele>437.4</ele>
        <time>2020-06-09T09:45:31Z</time>
      </trkpt>
      <trkpt lat="46.7565" lon="5.62611">
        <ele>437.4</ele>
        <time>2020-06-09T09:45:32Z</time>
      </trkpt>
      <trkpt lat="46.75648" lon="5.62608">
        <ele>437.4</ele>
        <time>2020-06-09T09:45:33Z</time>
      </trkpt>
      <trkpt lat="46.75645" lon="5.62605">
        <ele>437.4</ele>
        <time>2020-06-09T09:45:34Z</time>
      </trkpt>
      <trkpt lat="46.75643" lon="5.62602">
        <ele>437.8</ele>
        <time>2020-06-09T09:45:35Z</time>
      </trkpt>
      <trkpt lat="46.75641" lon="5.62599">
        <ele>437.8</ele>
        <time>2020-06-09T09:45:36Z</time>
      </trkpt>
      <trkpt lat="46.75638" lon="5.62598">
        <ele>437.8</ele>
        <time>2020-06-09T09:45:37Z</time>
      </trkpt>
      <trkpt lat="46.75635" lon="5.62595">
        <ele>437.8</ele>
        <time>2020-06-09T09:45:38Z</time>
      </trkpt>
      <trkpt lat="46.75632" lon="5.62592">
        <ele>437.8</ele>
        <time>2020-06-09T09:45:39Z</time>
      </trkpt>
      <trkpt lat="46.7563" lon="5.6259">
        <ele>437.8</ele>
        <time>2020-06-09T09:45:40Z</time>
      </trkpt>
      <trkpt lat="46.75628" lon="5.62587">
        <ele>438</ele>
        <time>2020-06-09T09:45:41Z</time>
      </trkpt>
      <trkpt lat="46.75626" lon="5.62586">
        <ele>438</ele>
        <time>2020-06-09T09:45:42Z</time>
      </trkpt>
      <trkpt lat="46.75624" lon="5.62583">
        <ele>438</ele>
        <time>2020-06-09T09:45:43Z</time>
      </trkpt>
      <trkpt lat="46.75622" lon="5.62581">
        <ele>438</ele>
        <time>2020-06-09T09:45:44Z</time>
      </trkpt>
      <trkpt lat="46.7562" lon="5.62579">
        <ele>438</ele>
        <time>2020-06-09T09:45:45Z</time>
      </trkpt>
      <trkpt lat="46.75617" lon="5.62576">
        <ele>438</ele>
        <time>2020-06-09T09:45:46Z</time>
      </trkpt>
      <trkpt lat="46.75614" lon="5.62573">
        <ele>438</ele>
        <time>2020-06-09T09:45:47Z</time>
      </trkpt>
      <trkpt lat="46.75611" lon="5.6257">
        <ele>438</ele>
        <time>2020-06-09T09:45:48Z</time>
      </trkpt>
      <trkpt lat="46.75608" lon="5.62567">
        <ele>438</ele>
        <time>2020-06-09T09:45:49Z</time>
      </trkpt>
      <trkpt lat="46.75605" lon="5.62564">
        <ele>438</ele>
        <time>2020-06-09T09:45:50Z</time>
      </trkpt>
      <trkpt lat="46.756" lon="5.62562">
        <ele>438</ele>
        <time>2020-06-09T09:45:51Z</time>
      </trkpt>
      <trkpt lat="46.75596" lon="5.62561">
        <ele>438</ele>
        <time>2020-06-09T09:45:52Z</time>
      </trkpt>
      <trkpt lat="46.75591" lon="5.6256">
        <ele>438</ele>
        <time>2020-06-09T09:45:53Z</time>
      </trkpt>
      <trkpt lat="46.75586" lon="5.62561">
        <ele>438</ele>
        <time>2020-06-09T09:45:54Z</time>
      </trkpt>
      <trkpt lat="46.75582" lon="5.62562">
        <ele>438</ele>
        <time>2020-06-09T09:45:55Z</time>
      </trkpt>
      <trkpt lat="46.75577" lon="5.62563">
        <ele>438</ele>
        <time>2020-06-09T09:45:56Z</time>
      </trkpt>
      <trkpt lat="46.75573" lon="5.62565">
        <ele>438</ele>
        <time>2020-06-09T09:45:57Z</time>
      </trkpt>
      <trkpt lat="46.75568" lon="5.62567">
        <ele>438</ele>
        <time>2020-06-09T09:45:58Z</time>
      </trkpt>
      <trkpt lat="46.75564" lon="5.62569">
        <ele>438</ele>
        <time>2020-06-09T09:45:59Z</time>
      </trkpt>
      <trkpt lat="46.7556" lon="5.62571">
        <ele>438</ele>
        <time>2020-06-09T09:46:00Z</time>
      </trkpt>
      <trkpt lat="46.75556" lon="5.62573">
        <ele>438</ele>
        <time>2020-06-09T09:46:01Z</time>
      </trkpt>
      <trkpt lat="46.75553" lon="5.62574">
        <ele>438.2</ele>
        <time>2020-06-09T09:46:02Z</time>
      </trkpt>
      <trkpt lat="46.75549" lon="5.62576">
        <ele>438.2</ele>
        <time>2020-06-09T09:46:03Z</time>
      </trkpt>
      <trkpt lat="46.75546" lon="5.62576">
        <ele>438.2</ele>
        <time>2020-06-09T09:46:04Z</time>
      </trkpt>
      <trkpt lat="46.75542" lon="5.62577">
        <ele>438.6</ele>
        <time>2020-06-09T09:46:05Z</time>
      </trkpt>
      <trkpt lat="46.7554" lon="5.62578">
        <ele>438.6</ele>
        <time>2020-06-09T09:46:06Z</time>
      </trkpt>
      <trkpt lat="46.75537" lon="5.6258">
        <ele>438.8</ele>
        <time>2020-06-09T09:46:07Z</time>
      </trkpt>
      <trkpt lat="46.75534" lon="5.62581">
        <ele>438.8</ele>
        <time>2020-06-09T09:46:08Z</time>
      </trkpt>
      <trkpt lat="46.75531" lon="5.62583">
        <ele>439</ele>
        <time>2020-06-09T09:46:09Z</time>
      </trkpt>
      <trkpt lat="46.75528" lon="5.62584">
        <ele>439</ele>
        <time>2020-06-09T09:46:10Z</time>
      </trkpt>
      <trkpt lat="46.75525" lon="5.62586">
        <ele>439.4</ele>
        <time>2020-06-09T09:46:11Z</time>
      </trkpt>
      <trkpt lat="46.75522" lon="5.62587">
        <ele>439.4</ele>
        <time>2020-06-09T09:46:12Z</time>
      </trkpt>
      <trkpt lat="46.75519" lon="5.62588">
        <ele>439.6</ele>
        <time>2020-06-09T09:46:13Z</time>
      </trkpt>
      <trkpt lat="46.75516" lon="5.62589">
        <ele>439.8</ele>
        <time>2020-06-09T09:46:14Z</time>
      </trkpt>
      <trkpt lat="46.75513" lon="5.6259">
        <ele>440.2</ele>
        <time>2020-06-09T09:46:15Z</time>
      </trkpt>
      <trkpt lat="46.7551" lon="5.62591">
        <ele>440.4</ele>
        <time>2020-06-09T09:46:16Z</time>
      </trkpt>
      <trkpt lat="46.75507" lon="5.62593">
        <ele>440.6</ele>
        <time>2020-06-09T09:46:17Z</time>
      </trkpt>
      <trkpt lat="46.75504" lon="5.62595">
        <ele>440.8</ele>
        <time>2020-06-09T09:46:18Z</time>
      </trkpt>
      <trkpt lat="46.75501" lon="5.62597">
        <ele>441.2</ele>
        <time>2020-06-09T09:46:19Z</time>
      </trkpt>
      <trkpt lat="46.75499" lon="5.62599">
        <ele>441.4</ele>
        <time>2020-06-09T09:46:20Z</time>
      </trkpt>
      <trkpt lat="46.75498" lon="5.62601">
        <ele>441.4</ele>
        <time>2020-06-09T09:46:21Z</time>
      </trkpt>
      <trkpt lat="46.75497" lon="5.62603">
        <ele>441.6</ele>
        <time>2020-06-09T09:46:22Z</time>
      </trkpt>
      <trkpt lat="46.75496" lon="5.62604">
        <ele>441.6</ele>
        <time>2020-06-09T09:46:23Z</time>
      </trkpt>
      <trkpt lat="46.75483" lon="5.62618">
        <ele>443</ele>
        <time>2020-06-09T09:49:33Z</time>
      </trkpt>
      <trkpt lat="46.75481" lon="5.62619">
        <ele>443.4</ele>
        <time>2020-06-09T09:49:34Z</time>
      </trkpt>
      <trkpt lat="46.75478" lon="5.62621">
        <ele>443.4</ele>
        <time>2020-06-09T09:49:35Z</time>
      </trkpt>
      <trkpt lat="46.75477" lon="5.62622">
        <ele>443.8</ele>
        <time>2020-06-09T09:49:36Z</time>
      </trkpt>
      <trkpt lat="46.75476" lon="5.62624">
        <ele>443.8</ele>
        <time>2020-06-09T09:49:37Z</time>
      </trkpt>
      <trkpt lat="46.75474" lon="5.62625">
        <ele>443.8</ele>
        <time>2020-06-09T09:49:38Z</time>
      </trkpt>
      <trkpt lat="46.75473" lon="5.62627">
        <ele>444</ele>
        <time>2020-06-09T09:49:41Z</time>
      </trkpt>
      <trkpt lat="46.75472" lon="5.62628">
        <ele>444.2</ele>
        <time>2020-06-09T09:49:42Z</time>
      </trkpt>
      <trkpt lat="46.7547" lon="5.6263">
        <ele>444.2</ele>
        <time>2020-06-09T09:49:43Z</time>
      </trkpt>
      <trkpt lat="46.75468" lon="5.62632">
        <ele>444.2</ele>
        <time>2020-06-09T09:49:44Z</time>
      </trkpt>
      <trkpt lat="46.75465" lon="5.62633">
        <ele>444.2</ele>
        <time>2020-06-09T09:49:45Z</time>
      </trkpt>
      <trkpt lat="46.75463" lon="5.62635">
        <ele>444.6</ele>
        <time>2020-06-09T09:49:46Z</time>
      </trkpt>
      <trkpt lat="46.75461" lon="5.62637">
        <ele>444.6</ele>
        <time>2020-06-09T09:49:47Z</time>
      </trkpt>
      <trkpt lat="46.75458" lon="5.62639">
        <ele>444.8</ele>
        <time>2020-06-09T09:49:48Z</time>
      </trkpt>
      <trkpt lat="46.75456" lon="5.62641">
        <ele>444.8</ele>
        <time>2020-06-09T09:49:49Z</time>
      </trkpt>
      <trkpt lat="46.75453" lon="5.62643">
        <ele>444.8</ele>
        <time>2020-06-09T09:49:50Z</time>
      </trkpt>
      <trkpt lat="46.75451" lon="5.62645">
        <ele>445.2</ele>
        <time>2020-06-09T09:49:51Z</time>
      </trkpt>
      <trkpt lat="46.75448" lon="5.62647">
        <ele>445.2</ele>
        <time>2020-06-09T09:49:52Z</time>
      </trkpt>
      <trkpt lat="46.75446" lon="5.62649">
        <ele>445.2</ele>
        <time>2020-06-09T09:49:53Z</time>
      </trkpt>
      <trkpt lat="46.75443" lon="5.62651">
        <ele>445.4</ele>
        <time>2020-06-09T09:49:54Z</time>
      </trkpt>
      <trkpt lat="46.75441" lon="5.62652">
        <ele>445.4</ele>
        <time>2020-06-09T09:49:55Z</time>
      </trkpt>
      <trkpt lat="46.75439" lon="5.62654">
        <ele>445.6</ele>
        <time>2020-06-09T09:49:56Z</time>
      </trkpt>
      <trkpt lat="46.75436" lon="5.62656">
        <ele>445.6</ele>
        <time>2020-06-09T09:49:57Z</time>
      </trkpt>
      <trkpt lat="46.75434" lon="5.62658">
        <ele>446</ele>
        <time>2020-06-09T09:49:58Z</time>
      </trkpt>
      <trkpt lat="46.75432" lon="5.62659">
        <ele>446</ele>
        <time>2020-06-09T09:49:59Z</time>
      </trkpt>
      <trkpt lat="46.75429" lon="5.62661">
        <ele>446.2</ele>
        <time>2020-06-09T09:50:00Z</time>
      </trkpt>
      <trkpt lat="46.75427" lon="5.62662">
        <ele>446.6</ele>
        <time>2020-06-09T09:50:01Z</time>
      </trkpt>
      <trkpt lat="46.75425" lon="5.62663">
        <ele>446.6</ele>
        <time>2020-06-09T09:50:02Z</time>
      </trkpt>
      <trkpt lat="46.75422" lon="5.62664">
        <ele>447</ele>
        <time>2020-06-09T09:50:03Z</time>
      </trkpt>
      <trkpt lat="46.7542" lon="5.62666">
        <ele>447</ele>
        <time>2020-06-09T09:50:04Z</time>
      </trkpt>
      <trkpt lat="46.75417" lon="5.62667">
        <ele>447.2</ele>
        <time>2020-06-09T09:50:05Z</time>
      </trkpt>
      <trkpt lat="46.75415" lon="5.62668">
        <ele>447.2</ele>
        <time>2020-06-09T09:50:06Z</time>
      </trkpt>
      <trkpt lat="46.75414" lon="5.62669">
        <ele>447.4</ele>
        <time>2020-06-09T09:50:07Z</time>
      </trkpt>
      <trkpt lat="46.75412" lon="5.62669">
        <ele>447.4</ele>
        <time>2020-06-09T09:50:08Z</time>
      </trkpt>
      <trkpt lat="46.75395" lon="5.6268">
        <ele>449.4</ele>
        <time>2020-06-09T09:52:15Z</time>
      </trkpt>
      <trkpt lat="46.75393" lon="5.62681">
        <ele>449.4</ele>
        <time>2020-06-09T09:52:16Z</time>
      </trkpt>
      <trkpt lat="46.75392" lon="5.62682">
        <ele>449.6</ele>
        <time>2020-06-09T09:52:17Z</time>
      </trkpt>
      <trkpt lat="46.75391" lon="5.62683">
        <ele>449.6</ele>
        <time>2020-06-09T09:52:18Z</time>
      </trkpt>
      <trkpt lat="46.75391" lon="5.62684">
        <ele>449.6</ele>
        <time>2020-06-09T09:52:19Z</time>
      </trkpt>
      <trkpt lat="46.7539" lon="5.62685">
        <ele>449.6</ele>
        <time>2020-06-09T09:52:20Z</time>
      </trkpt>
      <trkpt lat="46.75389" lon="5.62686">
        <ele>450</ele>
        <time>2020-06-09T09:52:21Z</time>
      </trkpt>
      <trkpt lat="46.75388" lon="5.62687">
        <ele>450</ele>
        <time>2020-06-09T09:52:22Z</time>
      </trkpt>
      <trkpt lat="46.75388" lon="5.62689">
        <ele>450</ele>
        <time>2020-06-09T09:52:23Z</time>
      </trkpt>
      <trkpt lat="46.75387" lon="5.6269">
        <ele>450.2</ele>
        <time>2020-06-09T09:52:24Z</time>
      </trkpt>
      <trkpt lat="46.75386" lon="5.62692">
        <ele>450.2</ele>
        <time>2020-06-09T09:52:25Z</time>
      </trkpt>
      <trkpt lat="46.75385" lon="5.62694">
        <ele>450.4</ele>
        <time>2020-06-09T09:52:26Z</time>
      </trkpt>
      <trkpt lat="46.75384" lon="5.62697">
        <ele>450.4</ele>
        <time>2020-06-09T09:52:27Z</time>
      </trkpt>
      <trkpt lat="46.75383" lon="5.62699">
        <ele>450.6</ele>
        <time>2020-06-09T09:52:28Z</time>
      </trkpt>
      <trkpt lat="46.75382" lon="5.62701">
        <ele>450.6</ele>
        <time>2020-06-09T09:52:29Z</time>
      </trkpt>
      <trkpt lat="46.7538" lon="5.62704">
        <ele>451</ele>
        <time>2020-06-09T09:52:30Z</time>
      </trkpt>
      <trkpt lat="46.75379" lon="5.62707">
        <ele>451</ele>
        <time>2020-06-09T09:52:31Z</time>
      </trkpt>
      <trkpt lat="46.75378" lon="5.6271">
        <ele>451.2</ele>
        <time>2020-06-09T09:52:32Z</time>
      </trkpt>
      <trkpt lat="46.75376" lon="5.62713">
        <ele>451.2</ele>
        <time>2020-06-09T09:52:33Z</time>
      </trkpt>
      <trkpt lat="46.75376" lon="5.62717">
        <ele>451.4</ele>
        <time>2020-06-09T09:52:34Z</time>
      </trkpt>
      <trkpt lat="46.75375" lon="5.62721">
        <ele>451.4</ele>
        <time>2020-06-09T09:52:35Z</time>
      </trkpt>
      <trkpt lat="46.75374" lon="5.62725">
        <ele>451.8</ele>
        <time>2020-06-09T09:52:36Z</time>
      </trkpt>
      <trkpt lat="46.75373" lon="5.62729">
        <ele>452.2</ele>
        <time>2020-06-09T09:52:37Z</time>
      </trkpt>
      <trkpt lat="46.75373" lon="5.62734">
        <ele>452.2</ele>
        <time>2020-06-09T09:52:38Z</time>
      </trkpt>
      <trkpt lat="46.75372" lon="5.62738">
        <ele>452.4</ele>
        <time>2020-06-09T09:52:39Z</time>
      </trkpt>
      <trkpt lat="46.75371" lon="5.62743">
        <ele>452.4</ele>
        <time>2020-06-09T09:52:40Z</time>
      </trkpt>
      <trkpt lat="46.75371" lon="5.62748">
        <ele>452.4</ele>
        <time>2020-06-09T09:52:41Z</time>
      </trkpt>
      <trkpt lat="46.7537" lon="5.62752">
        <ele>452.4</ele>
        <time>2020-06-09T09:52:42Z</time>
      </trkpt>
      <trkpt lat="46.75371" lon="5.62757">
        <ele>452.4</ele>
        <time>2020-06-09T09:52:43Z</time>
      </trkpt>
      <trkpt lat="46.75371" lon="5.62762">
        <ele>452.4</ele>
        <time>2020-06-09T09:52:44Z</time>
      </trkpt>
      <trkpt lat="46.75372" lon="5.62767">
        <ele>452.6</ele>
        <time>2020-06-09T09:52:45Z</time>
      </trkpt>
      <trkpt lat="46.75373" lon="5.62772">
        <ele>452.8</ele>
        <time>2020-06-09T09:52:46Z</time>
      </trkpt>
      <trkpt lat="46.75374" lon="5.62776">
        <ele>452.8</ele>
        <time>2020-06-09T09:52:47Z</time>
      </trkpt>
      <trkpt lat="46.75374" lon="5.6278">
        <ele>453.2</ele>
        <time>2020-06-09T09:52:48Z</time>
      </trkpt>
      <trkpt lat="46.75375" lon="5.62785">
        <ele>453.2</ele>
        <time>2020-06-09T09:52:49Z</time>
      </trkpt>
      <trkpt lat="46.75375" lon="5.6279">
        <ele>453.6</ele>
        <time>2020-06-09T09:52:50Z</time>
      </trkpt>
      <trkpt lat="46.75376" lon="5.62795">
        <ele>453.6</ele>
        <time>2020-06-09T09:52:51Z</time>
      </trkpt>
      <trkpt lat="46.75378" lon="5.62799">
        <ele>453.6</ele>
        <time>2020-06-09T09:52:52Z</time>
      </trkpt>
      <trkpt lat="46.75379" lon="5.62804">
        <ele>453.6</ele>
        <time>2020-06-09T09:52:53Z</time>
      </trkpt>
      <trkpt lat="46.75381" lon="5.62808">
        <ele>453.6</ele>
        <time>2020-06-09T09:52:54Z</time>
      </trkpt>
      <trkpt lat="46.75382" lon="5.62812">
        <ele>453.6</ele>
        <time>2020-06-09T09:52:55Z</time>
      </trkpt>
      <trkpt lat="46.75383" lon="5.62816">
        <ele>453.6</ele>
        <time>2020-06-09T09:52:56Z</time>
      </trkpt>
      <trkpt lat="46.75384" lon="5.6282">
        <ele>453.8</ele>
        <time>2020-06-09T09:52:57Z</time>
      </trkpt>
      <trkpt lat="46.75385" lon="5.62824">
        <ele>453.8</ele>
        <time>2020-06-09T09:52:58Z</time>
      </trkpt>
      <trkpt lat="46.75386" lon="5.62829">
        <ele>453.8</ele>
        <time>2020-06-09T09:52:59Z</time>
      </trkpt>
      <trkpt lat="46.75388" lon="5.62833">
        <ele>453.8</ele>
        <time>2020-06-09T09:53:00Z</time>
      </trkpt>
      <trkpt lat="46.75389" lon="5.62838">
        <ele>453.8</ele>
        <time>2020-06-09T09:53:01Z</time>
      </trkpt>
      <trkpt lat="46.75391" lon="5.62842">
        <ele>453.8</ele>
        <time>2020-06-09T09:53:02Z</time>
      </trkpt>
      <trkpt lat="46.75393" lon="5.62846">
        <ele>453.8</ele>
        <time>2020-06-09T09:53:03Z</time>
      </trkpt>
      <trkpt lat="46.75395" lon="5.62849">
        <ele>453.8</ele>
        <time>2020-06-09T09:53:04Z</time>
      </trkpt>
      <trkpt lat="46.75398" lon="5.62852">
        <ele>453.8</ele>
        <time>2020-06-09T09:53:05Z</time>
      </trkpt>
      <trkpt lat="46.75399" lon="5.62856">
        <ele>453.8</ele>
        <time>2020-06-09T09:53:06Z</time>
      </trkpt>
      <trkpt lat="46.754" lon="5.6286">
        <ele>453.8</ele>
        <time>2020-06-09T09:53:07Z</time>
      </trkpt>
      <trkpt lat="46.75401" lon="5.62864">
        <ele>453.8</ele>
        <time>2020-06-09T09:53:08Z</time>
      </trkpt>
      <trkpt lat="46.75402" lon="5.62869">
        <ele>454.2</ele>
        <time>2020-06-09T09:53:09Z</time>
      </trkpt>
      <trkpt lat="46.75404" lon="5.62874">
        <ele>454.2</ele>
        <time>2020-06-09T09:53:10Z</time>
      </trkpt>
      <trkpt lat="46.75405" lon="5.62879">
        <ele>454.2</ele>
        <time>2020-06-09T09:53:11Z</time>
      </trkpt>
      <trkpt lat="46.75406" lon="5.62885">
        <ele>454.2</ele>
        <time>2020-06-09T09:53:12Z</time>
      </trkpt>
      <trkpt lat="46.75407" lon="5.6289">
        <ele>454.2</ele>
        <time>2020-06-09T09:53:13Z</time>
      </trkpt>
      <trkpt lat="46.75408" lon="5.62895">
        <ele>454.2</ele>
        <time>2020-06-09T09:53:14Z</time>
      </trkpt>
      <trkpt lat="46.75409" lon="5.62901">
        <ele>454.2</ele>
        <time>2020-06-09T09:53:15Z</time>
      </trkpt>
      <trkpt lat="46.75409" lon="5.62907">
        <ele>454.2</ele>
        <time>2020-06-09T09:53:16Z</time>
      </trkpt>
      <trkpt lat="46.75409" lon="5.62913">
        <ele>454.2</ele>
        <time>2020-06-09T09:53:17Z</time>
      </trkpt>
      <trkpt lat="46.7541" lon="5.62918">
        <ele>454.2</ele>
        <time>2020-06-09T09:53:18Z</time>
      </trkpt>
      <trkpt lat="46.75411" lon="5.62924">
        <ele>454.2</ele>
        <time>2020-06-09T09:53:19Z</time>
      </trkpt>
      <trkpt lat="46.75412" lon="5.6293">
        <ele>454.2</ele>
        <time>2020-06-09T09:53:20Z</time>
      </trkpt>
      <trkpt lat="46.75414" lon="5.62935">
        <ele>454.2</ele>
        <time>2020-06-09T09:53:21Z</time>
      </trkpt>
      <trkpt lat="46.75415" lon="5.62941">
        <ele>453.8</ele>
        <time>2020-06-09T09:53:22Z</time>
      </trkpt>
      <trkpt lat="46.75417" lon="5.62947">
        <ele>453.8</ele>
        <time>2020-06-09T09:53:23Z</time>
      </trkpt>
      <trkpt lat="46.75418" lon="5.62953">
        <ele>453.6</ele>
        <time>2020-06-09T09:53:24Z</time>
      </trkpt>
      <trkpt lat="46.75419" lon="5.62959">
        <ele>453.6</ele>
        <time>2020-06-09T09:53:25Z</time>
      </trkpt>
      <trkpt lat="46.75421" lon="5.62966">
        <ele>453.6</ele>
        <time>2020-06-09T09:53:26Z</time>
      </trkpt>
      <trkpt lat="46.75422" lon="5.62973">
        <ele>453.4</ele>
        <time>2020-06-09T09:53:27Z</time>
      </trkpt>
      <trkpt lat="46.75424" lon="5.6298">
        <ele>453.4</ele>
        <time>2020-06-09T09:53:28Z</time>
      </trkpt>
      <trkpt lat="46.75426" lon="5.62987">
        <ele>453.2</ele>
        <time>2020-06-09T09:53:29Z</time>
      </trkpt>
      <trkpt lat="46.75428" lon="5.62994">
        <ele>453.2</ele>
        <time>2020-06-09T09:53:30Z</time>
      </trkpt>
      <trkpt lat="46.7543" lon="5.63002">
        <ele>453.2</ele>
        <time>2020-06-09T09:53:31Z</time>
      </trkpt>
      <trkpt lat="46.75432" lon="5.63009">
        <ele>453.2</ele>
        <time>2020-06-09T09:53:32Z</time>
      </trkpt>
      <trkpt lat="46.75435" lon="5.63017">
        <ele>453.2</ele>
        <time>2020-06-09T09:53:33Z</time>
      </trkpt>
      <trkpt lat="46.75438" lon="5.63024">
        <ele>453.2</ele>
        <time>2020-06-09T09:53:34Z</time>
      </trkpt>
      <trkpt lat="46.75441" lon="5.63032">
        <ele>453.2</ele>
        <time>2020-06-09T09:53:35Z</time>
      </trkpt>
      <trkpt lat="46.75444" lon="5.63039">
        <ele>453</ele>
        <time>2020-06-09T09:53:36Z</time>
      </trkpt>
      <trkpt lat="46.75448" lon="5.63046">
        <ele>453</ele>
        <time>2020-06-09T09:53:37Z</time>
      </trkpt>
      <trkpt lat="46.75451" lon="5.63053">
        <ele>453</ele>
        <time>2020-06-09T09:53:38Z</time>
      </trkpt>
      <trkpt lat="46.75454" lon="5.6306">
        <ele>453</ele>
        <time>2020-06-09T09:53:39Z</time>
      </trkpt>
      <trkpt lat="46.75458" lon="5.63066">
        <ele>453.2</ele>
        <time>2020-06-09T09:53:40Z</time>
      </trkpt>
      <trkpt lat="46.75462" lon="5.63073">
        <ele>453.2</ele>
        <time>2020-06-09T09:53:41Z</time>
      </trkpt>
      <trkpt lat="46.75465" lon="5.63079">
        <ele>453.2</ele>
        <time>2020-06-09T09:53:42Z</time>
      </trkpt>
      <trkpt lat="46.75468" lon="5.63085">
        <ele>453.2</ele>
        <time>2020-06-09T09:53:43Z</time>
      </trkpt>
      <trkpt lat="46.75471" lon="5.63091">
        <ele>453.2</ele>
        <time>2020-06-09T09:53:44Z</time>
      </trkpt>
      <trkpt lat="46.75474" lon="5.63097">
        <ele>453.2</ele>
        <time>2020-06-09T09:53:45Z</time>
      </trkpt>
      <trkpt lat="46.75477" lon="5.63103">
        <ele>453.4</ele>
        <time>2020-06-09T09:53:46Z</time>
      </trkpt>
      <trkpt lat="46.7548" lon="5.63109">
        <ele>453.4</ele>
        <time>2020-06-09T09:53:47Z</time>
      </trkpt>
      <trkpt lat="46.75482" lon="5.63115">
        <ele>453.8</ele>
        <time>2020-06-09T09:53:48Z</time>
      </trkpt>
      <trkpt lat="46.75485" lon="5.6312">
        <ele>453.8</ele>
        <time>2020-06-09T09:53:49Z</time>
      </trkpt>
      <trkpt lat="46.75487" lon="5.63126">
        <ele>453.8</ele>
        <time>2020-06-09T09:53:50Z</time>
      </trkpt>
      <trkpt lat="46.75489" lon="5.63133">
        <ele>453.8</ele>
        <time>2020-06-09T09:53:51Z</time>
      </trkpt>
      <trkpt lat="46.7549" lon="5.63139">
        <ele>454</ele>
        <time>2020-06-09T09:53:52Z</time>
      </trkpt>
      <trkpt lat="46.75492" lon="5.63145">
        <ele>454.2</ele>
        <time>2020-06-09T09:53:53Z</time>
      </trkpt>
      <trkpt lat="46.75493" lon="5.63151">
        <ele>454.2</ele>
        <time>2020-06-09T09:53:54Z</time>
      </trkpt>
      <trkpt lat="46.75494" lon="5.63157">
        <ele>454.6</ele>
        <time>2020-06-09T09:53:55Z</time>
      </trkpt>
      <trkpt lat="46.75496" lon="5.63163">
        <ele>454.6</ele>
        <time>2020-06-09T09:53:56Z</time>
      </trkpt>
      <trkpt lat="46.75497" lon="5.63169">
        <ele>455</ele>
        <time>2020-06-09T09:53:57Z</time>
      </trkpt>
      <trkpt lat="46.75498" lon="5.63174">
        <ele>455.2</ele>
        <time>2020-06-09T09:53:58Z</time>
      </trkpt>
      <trkpt lat="46.75499" lon="5.6318">
        <ele>455.4</ele>
        <time>2020-06-09T09:53:59Z</time>
      </trkpt>
      <trkpt lat="46.755" lon="5.63185">
        <ele>455.6</ele>
        <time>2020-06-09T09:54:00Z</time>
      </trkpt>
      <trkpt lat="46.75501" lon="5.63191">
        <ele>455.6</ele>
        <time>2020-06-09T09:54:01Z</time>
      </trkpt>
      <trkpt lat="46.75502" lon="5.63196">
        <ele>456.2</ele>
        <time>2020-06-09T09:54:02Z</time>
      </trkpt>
      <trkpt lat="46.75504" lon="5.63201">
        <ele>456.2</ele>
        <time>2020-06-09T09:54:03Z</time>
      </trkpt>
      <trkpt lat="46.75505" lon="5.63207">
        <ele>456.6</ele>
        <time>2020-06-09T09:54:04Z</time>
      </trkpt>
      <trkpt lat="46.75506" lon="5.63212">
        <ele>456.8</ele>
        <time>2020-06-09T09:54:05Z</time>
      </trkpt>
      <trkpt lat="46.75508" lon="5.63218">
        <ele>457</ele>
        <time>2020-06-09T09:54:06Z</time>
      </trkpt>
      <trkpt lat="46.75509" lon="5.63223">
        <ele>457</ele>
        <time>2020-06-09T09:54:07Z</time>
      </trkpt>
      <trkpt lat="46.75511" lon="5.63229">
        <ele>457.2</ele>
        <time>2020-06-09T09:54:08Z</time>
      </trkpt>
      <trkpt lat="46.75512" lon="5.63234">
        <ele>457.2</ele>
        <time>2020-06-09T09:54:09Z</time>
      </trkpt>
      <trkpt lat="46.75514" lon="5.6324">
        <ele>457.6</ele>
        <time>2020-06-09T09:54:10Z</time>
      </trkpt>
      <trkpt lat="46.75515" lon="5.63245">
        <ele>457.6</ele>
        <time>2020-06-09T09:54:11Z</time>
      </trkpt>
      <trkpt lat="46.75516" lon="5.63251">
        <ele>458</ele>
        <time>2020-06-09T09:54:12Z</time>
      </trkpt>
      <trkpt lat="46.75517" lon="5.63256">
        <ele>458</ele>
        <time>2020-06-09T09:54:13Z</time>
      </trkpt>
      <trkpt lat="46.75518" lon="5.63262">
        <ele>458.4</ele>
        <time>2020-06-09T09:54:14Z</time>
      </trkpt>
      <trkpt lat="46.75518" lon="5.63268">
        <ele>458.4</ele>
        <time>2020-06-09T09:54:15Z</time>
      </trkpt>
      <trkpt lat="46.75519" lon="5.63274">
        <ele>458.6</ele>
        <time>2020-06-09T09:54:16Z</time>
      </trkpt>
      <trkpt lat="46.7552" lon="5.6328">
        <ele>458.6</ele>
        <time>2020-06-09T09:54:17Z</time>
      </trkpt>
      <trkpt lat="46.7552" lon="5.63286">
        <ele>458.6</ele>
        <time>2020-06-09T09:54:18Z</time>
      </trkpt>
      <trkpt lat="46.7552" lon="5.63292">
        <ele>458.6</ele>
        <time>2020-06-09T09:54:19Z</time>
      </trkpt>
      <trkpt lat="46.75521" lon="5.63299">
        <ele>458.6</ele>
        <time>2020-06-09T09:54:20Z</time>
      </trkpt>
      <trkpt lat="46.75521" lon="5.63305">
        <ele>459</ele>
        <time>2020-06-09T09:54:21Z</time>
      </trkpt>
      <trkpt lat="46.75521" lon="5.63311">
        <ele>459</ele>
        <time>2020-06-09T09:54:22Z</time>
      </trkpt>
      <trkpt lat="46.75521" lon="5.63318">
        <ele>459</ele>
        <time>2020-06-09T09:54:23Z</time>
      </trkpt>
      <trkpt lat="46.75521" lon="5.63324">
        <ele>459</ele>
        <time>2020-06-09T09:54:24Z</time>
      </trkpt>
      <trkpt lat="46.75521" lon="5.63331">
        <ele>459.2</ele>
        <time>2020-06-09T09:54:25Z</time>
      </trkpt>
      <trkpt lat="46.75521" lon="5.63337">
        <ele>459.2</ele>
        <time>2020-06-09T09:54:26Z</time>
      </trkpt>
      <trkpt lat="46.75521" lon="5.63343">
        <ele>459.2</ele>
        <time>2020-06-09T09:54:27Z</time>
      </trkpt>
      <trkpt lat="46.75521" lon="5.6335">
        <ele>459.2</ele>
        <time>2020-06-09T09:54:28Z</time>
      </trkpt>
      <trkpt lat="46.75521" lon="5.63356">
        <ele>459.4</ele>
        <time>2020-06-09T09:54:29Z</time>
      </trkpt>
      <trkpt lat="46.75521" lon="5.63362">
        <ele>459.4</ele>
        <time>2020-06-09T09:54:30Z</time>
      </trkpt>
      <trkpt lat="46.75521" lon="5.63368">
        <ele>459.6</ele>
        <time>2020-06-09T09:54:31Z</time>
      </trkpt>
      <trkpt lat="46.7552" lon="5.63375">
        <ele>459.6</ele>
        <time>2020-06-09T09:54:32Z</time>
      </trkpt>
      <trkpt lat="46.7552" lon="5.63381">
        <ele>459.6</ele>
        <time>2020-06-09T09:54:33Z</time>
      </trkpt>
      <trkpt lat="46.7552" lon="5.63387">
        <ele>460</ele>
        <time>2020-06-09T09:54:34Z</time>
      </trkpt>
      <trkpt lat="46.7552" lon="5.63393">
        <ele>460</ele>
        <time>2020-06-09T09:54:35Z</time>
      </trkpt>
      <trkpt lat="46.75521" lon="5.63399">
        <ele>460</ele>
        <time>2020-06-09T09:54:36Z</time>
      </trkpt>
      <trkpt lat="46.75521" lon="5.63406">
        <ele>460.2</ele>
        <time>2020-06-09T09:54:37Z</time>
      </trkpt>
      <trkpt lat="46.75521" lon="5.63412">
        <ele>460.2</ele>
        <time>2020-06-09T09:54:38Z</time>
      </trkpt>
      <trkpt lat="46.75521" lon="5.63419">
        <ele>460.2</ele>
        <time>2020-06-09T09:54:39Z</time>
      </trkpt>
      <trkpt lat="46.75522" lon="5.63425">
        <ele>460.2</ele>
        <time>2020-06-09T09:54:40Z</time>
      </trkpt>
      <trkpt lat="46.75522" lon="5.63432">
        <ele>460.2</ele>
        <time>2020-06-09T09:54:41Z</time>
      </trkpt>
      <trkpt lat="46.75522" lon="5.63439">
        <ele>460.2</ele>
        <time>2020-06-09T09:54:42Z</time>
      </trkpt>
      <trkpt lat="46.75523" lon="5.63446">
        <ele>460.2</ele>
        <time>2020-06-09T09:54:43Z</time>
      </trkpt>
      <trkpt lat="46.75524" lon="5.63453">
        <ele>460.2</ele>
        <time>2020-06-09T09:54:44Z</time>
      </trkpt>
      <trkpt lat="46.75524" lon="5.6346">
        <ele>460.2</ele>
        <time>2020-06-09T09:54:45Z</time>
      </trkpt>
      <trkpt lat="46.75525" lon="5.63467">
        <ele>460.2</ele>
        <time>2020-06-09T09:54:46Z</time>
      </trkpt>
      <trkpt lat="46.75526" lon="5.63474">
        <ele>460.2</ele>
        <time>2020-06-09T09:54:47Z</time>
      </trkpt>
      <trkpt lat="46.75527" lon="5.63482">
        <ele>460.2</ele>
        <time>2020-06-09T09:54:48Z</time>
      </trkpt>
      <trkpt lat="46.75528" lon="5.6349">
        <ele>460.2</ele>
        <time>2020-06-09T09:54:49Z</time>
      </trkpt>
      <trkpt lat="46.75529" lon="5.63498">
        <ele>460.2</ele>
        <time>2020-06-09T09:54:50Z</time>
      </trkpt>
      <trkpt lat="46.7553" lon="5.63506">
        <ele>460.2</ele>
        <time>2020-06-09T09:54:51Z</time>
      </trkpt>
      <trkpt lat="46.7553" lon="5.63514">
        <ele>460.2</ele>
        <time>2020-06-09T09:54:52Z</time>
      </trkpt>
      <trkpt lat="46.75531" lon="5.63522">
        <ele>460.2</ele>
        <time>2020-06-09T09:54:53Z</time>
      </trkpt>
      <trkpt lat="46.75532" lon="5.6353">
        <ele>460.2</ele>
        <time>2020-06-09T09:54:54Z</time>
      </trkpt>
      <trkpt lat="46.75533" lon="5.63538">
        <ele>460.2</ele>
        <time>2020-06-09T09:54:55Z</time>
      </trkpt>
      <trkpt lat="46.75534" lon="5.63547">
        <ele>460.2</ele>
        <time>2020-06-09T09:54:56Z</time>
      </trkpt>
      <trkpt lat="46.75535" lon="5.63555">
        <ele>460</ele>
        <time>2020-06-09T09:54:57Z</time>
      </trkpt>
      <trkpt lat="46.75536" lon="5.63564">
        <ele>460</ele>
        <time>2020-06-09T09:54:58Z</time>
      </trkpt>
      <trkpt lat="46.75537" lon="5.63572">
        <ele>460</ele>
        <time>2020-06-09T09:54:59Z</time>
      </trkpt>
      <trkpt lat="46.75538" lon="5.63581">
        <ele>459.8</ele>
        <time>2020-06-09T09:55:00Z</time>
      </trkpt>
      <trkpt lat="46.75539" lon="5.63589">
        <ele>459.8</ele>
        <time>2020-06-09T09:55:01Z</time>
      </trkpt>
      <trkpt lat="46.75539" lon="5.63597">
        <ele>459.8</ele>
        <time>2020-06-09T09:55:02Z</time>
      </trkpt>
      <trkpt lat="46.7554" lon="5.63606">
        <ele>459.8</ele>
        <time>2020-06-09T09:55:03Z</time>
      </trkpt>
      <trkpt lat="46.75541" lon="5.63614">
        <ele>459.8</ele>
        <time>2020-06-09T09:55:04Z</time>
      </trkpt>
      <trkpt lat="46.75542" lon="5.63622">
        <ele>459.8</ele>
        <time>2020-06-09T09:55:05Z</time>
      </trkpt>
      <trkpt lat="46.75543" lon="5.6363">
        <ele>459.8</ele>
        <time>2020-06-09T09:55:06Z</time>
      </trkpt>
      <trkpt lat="46.75545" lon="5.63638">
        <ele>460</ele>
        <time>2020-06-09T09:55:07Z</time>
      </trkpt>
      <trkpt lat="46.75545" lon="5.63646">
        <ele>460</ele>
        <time>2020-06-09T09:55:08Z</time>
      </trkpt>
      <trkpt lat="46.75546" lon="5.63653">
        <ele>460.2</ele>
        <time>2020-06-09T09:55:09Z</time>
      </trkpt>
      <trkpt lat="46.75547" lon="5.63661">
        <ele>460.2</ele>
        <time>2020-06-09T09:55:10Z</time>
      </trkpt>
      <trkpt lat="46.75548" lon="5.63669">
        <ele>460.2</ele>
        <time>2020-06-09T09:55:11Z</time>
      </trkpt>
      <trkpt lat="46.75549" lon="5.63677">
        <ele>460.2</ele>
        <time>2020-06-09T09:55:12Z</time>
      </trkpt>
      <trkpt lat="46.7555" lon="5.63684">
        <ele>460.2</ele>
        <time>2020-06-09T09:55:13Z</time>
      </trkpt>
      <trkpt lat="46.75552" lon="5.63692">
        <ele>460.2</ele>
        <time>2020-06-09T09:55:14Z</time>
      </trkpt>
      <trkpt lat="46.75553" lon="5.637">
        <ele>460</ele>
        <time>2020-06-09T09:55:15Z</time>
      </trkpt>
      <trkpt lat="46.75555" lon="5.63708">
        <ele>460</ele>
        <time>2020-06-09T09:55:16Z</time>
      </trkpt>
      <trkpt lat="46.75557" lon="5.63716">
        <ele>460</ele>
        <time>2020-06-09T09:55:17Z</time>
      </trkpt>
      <trkpt lat="46.75558" lon="5.63724">
        <ele>460</ele>
        <time>2020-06-09T09:55:18Z</time>
      </trkpt>
      <trkpt lat="46.7556" lon="5.63732">
        <ele>460</ele>
        <time>2020-06-09T09:55:19Z</time>
      </trkpt>
      <trkpt lat="46.75562" lon="5.6374">
        <ele>460</ele>
        <time>2020-06-09T09:55:20Z</time>
      </trkpt>
      <trkpt lat="46.75563" lon="5.63748">
        <ele>460</ele>
        <time>2020-06-09T09:55:21Z</time>
      </trkpt>
      <trkpt lat="46.75564" lon="5.63756">
        <ele>460</ele>
        <time>2020-06-09T09:55:22Z</time>
      </trkpt>
      <trkpt lat="46.75566" lon="5.63765">
        <ele>460</ele>
        <time>2020-06-09T09:55:23Z</time>
      </trkpt>
      <trkpt lat="46.75567" lon="5.63773">
        <ele>460</ele>
        <time>2020-06-09T09:55:24Z</time>
      </trkpt>
      <trkpt lat="46.75568" lon="5.63781">
        <ele>460</ele>
        <time>2020-06-09T09:55:25Z</time>
      </trkpt>
      <trkpt lat="46.7557" lon="5.6379">
        <ele>460</ele>
        <time>2020-06-09T09:55:26Z</time>
      </trkpt>
      <trkpt lat="46.75571" lon="5.63797">
        <ele>460</ele>
        <time>2020-06-09T09:55:27Z</time>
      </trkpt>
      <trkpt lat="46.75572" lon="5.63805">
        <ele>460</ele>
        <time>2020-06-09T09:55:28Z</time>
      </trkpt>
      <trkpt lat="46.75573" lon="5.63813">
        <ele>460</ele>
        <time>2020-06-09T09:55:29Z</time>
      </trkpt>
      <trkpt lat="46.75574" lon="5.6382">
        <ele>460.2</ele>
        <time>2020-06-09T09:55:30Z</time>
      </trkpt>
      <trkpt lat="46.75575" lon="5.63827">
        <ele>460.2</ele>
        <time>2020-06-09T09:55:31Z</time>
      </trkpt>
      <trkpt lat="46.75576" lon="5.63835">
        <ele>460.4</ele>
        <time>2020-06-09T09:55:32Z</time>
      </trkpt>
      <trkpt lat="46.75578" lon="5.63841">
        <ele>460.4</ele>
        <time>2020-06-09T09:55:33Z</time>
      </trkpt>
      <trkpt lat="46.75578" lon="5.63848">
        <ele>460.8</ele>
        <time>2020-06-09T09:55:34Z</time>
      </trkpt>
      <trkpt lat="46.75579" lon="5.63854">
        <ele>460.8</ele>
        <time>2020-06-09T09:55:35Z</time>
      </trkpt>
      <trkpt lat="46.7558" lon="5.6386">
        <ele>460.8</ele>
        <time>2020-06-09T09:55:36Z</time>
      </trkpt>
      <trkpt lat="46.75581" lon="5.63866">
        <ele>461.2</ele>
        <time>2020-06-09T09:55:37Z</time>
      </trkpt>
      <trkpt lat="46.75582" lon="5.63872">
        <ele>461.2</ele>
        <time>2020-06-09T09:55:38Z</time>
      </trkpt>
      <trkpt lat="46.75583" lon="5.63878">
        <ele>461.4</ele>
        <time>2020-06-09T09:55:39Z</time>
      </trkpt>
      <trkpt lat="46.75585" lon="5.63883">
        <ele>461.4</ele>
        <time>2020-06-09T09:55:40Z</time>
      </trkpt>
      <trkpt lat="46.75586" lon="5.63889">
        <ele>461.8</ele>
        <time>2020-06-09T09:55:41Z</time>
      </trkpt>
      <trkpt lat="46.75588" lon="5.63894">
        <ele>462</ele>
        <time>2020-06-09T09:55:42Z</time>
      </trkpt>
      <trkpt lat="46.7559" lon="5.639">
        <ele>462.2</ele>
        <time>2020-06-09T09:55:43Z</time>
      </trkpt>
      <trkpt lat="46.75592" lon="5.63905">
        <ele>462.4</ele>
        <time>2020-06-09T09:55:44Z</time>
      </trkpt>
      <trkpt lat="46.75594" lon="5.6391">
        <ele>462.4</ele>
        <time>2020-06-09T09:55:45Z</time>
      </trkpt>
      <trkpt lat="46.75595" lon="5.63915">
        <ele>462.8</ele>
        <time>2020-06-09T09:55:46Z</time>
      </trkpt>
      <trkpt lat="46.75597" lon="5.6392">
        <ele>463</ele>
        <time>2020-06-09T09:55:47Z</time>
      </trkpt>
      <trkpt lat="46.756" lon="5.63925">
        <ele>463.4</ele>
        <time>2020-06-09T09:55:48Z</time>
      </trkpt>
      <trkpt lat="46.75603" lon="5.6393">
        <ele>463.4</ele>
        <time>2020-06-09T09:55:49Z</time>
      </trkpt>
      <trkpt lat="46.75605" lon="5.63935">
        <ele>463.8</ele>
        <time>2020-06-09T09:55:50Z</time>
      </trkpt>
      <trkpt lat="46.75608" lon="5.6394">
        <ele>464</ele>
        <time>2020-06-09T09:55:51Z</time>
      </trkpt>
      <trkpt lat="46.75611" lon="5.63944">
        <ele>464.2</ele>
        <time>2020-06-09T09:55:52Z</time>
      </trkpt>
      <trkpt lat="46.75614" lon="5.63948">
        <ele>464.4</ele>
        <time>2020-06-09T09:55:53Z</time>
      </trkpt>
      <trkpt lat="46.75617" lon="5.63952">
        <ele>464.8</ele>
        <time>2020-06-09T09:55:54Z</time>
      </trkpt>
      <trkpt lat="46.7562" lon="5.63955">
        <ele>465</ele>
        <time>2020-06-09T09:55:55Z</time>
      </trkpt>
      <trkpt lat="46.75623" lon="5.63958">
        <ele>465.2</ele>
        <time>2020-06-09T09:55:56Z</time>
      </trkpt>
      <trkpt lat="46.75626" lon="5.63962">
        <ele>465.2</ele>
        <time>2020-06-09T09:55:57Z</time>
      </trkpt>
      <trkpt lat="46.75629" lon="5.63965">
        <ele>465.6</ele>
        <time>2020-06-09T09:55:58Z</time>
      </trkpt>
      <trkpt lat="46.75632" lon="5.63968">
        <ele>465.6</ele>
        <time>2020-06-09T09:55:59Z</time>
      </trkpt>
      <trkpt lat="46.75635" lon="5.63971">
        <ele>466</ele>
        <time>2020-06-09T09:56:00Z</time>
      </trkpt>
      <trkpt lat="46.75638" lon="5.63974">
        <ele>466</ele>
        <time>2020-06-09T09:56:01Z</time>
      </trkpt>
      <trkpt lat="46.7564" lon="5.63977">
        <ele>466.4</ele>
        <time>2020-06-09T09:56:02Z</time>
      </trkpt>
      <trkpt lat="46.75643" lon="5.6398">
        <ele>466.4</ele>
        <time>2020-06-09T09:56:03Z</time>
      </trkpt>
      <trkpt lat="46.75646" lon="5.63982">
        <ele>466.6</ele>
        <time>2020-06-09T09:56:04Z</time>
      </trkpt>
      <trkpt lat="46.75649" lon="5.63985">
        <ele>466.6</ele>
        <time>2020-06-09T09:56:05Z</time>
      </trkpt>
      <trkpt lat="46.75652" lon="5.63988">
        <ele>467</ele>
        <time>2020-06-09T09:56:06Z</time>
      </trkpt>
      <trkpt lat="46.75654" lon="5.63991">
        <ele>467.2</ele>
        <time>2020-06-09T09:56:07Z</time>
      </trkpt>
      <trkpt lat="46.75657" lon="5.63994">
        <ele>467.2</ele>
        <time>2020-06-09T09:56:08Z</time>
      </trkpt>
      <trkpt lat="46.7566" lon="5.63996">
        <ele>467.4</ele>
        <time>2020-06-09T09:56:09Z</time>
      </trkpt>
      <trkpt lat="46.75663" lon="5.63999">
        <ele>467.4</ele>
        <time>2020-06-09T09:56:10Z</time>
      </trkpt>
      <trkpt lat="46.75665" lon="5.64001">
        <ele>467.8</ele>
        <time>2020-06-09T09:56:11Z</time>
      </trkpt>
      <trkpt lat="46.75668" lon="5.64004">
        <ele>467.8</ele>
        <time>2020-06-09T09:56:12Z</time>
      </trkpt>
      <trkpt lat="46.75671" lon="5.64006">
        <ele>468</ele>
        <time>2020-06-09T09:56:13Z</time>
      </trkpt>
      <trkpt lat="46.75674" lon="5.64009">
        <ele>468</ele>
        <time>2020-06-09T09:56:14Z</time>
      </trkpt>
      <trkpt lat="46.75677" lon="5.64011">
        <ele>468</ele>
        <time>2020-06-09T09:56:15Z</time>
      </trkpt>
      <trkpt lat="46.7568" lon="5.64014">
        <ele>468.2</ele>
        <time>2020-06-09T09:56:16Z</time>
      </trkpt>
      <trkpt lat="46.75683" lon="5.64016">
        <ele>468.2</ele>
        <time>2020-06-09T09:56:17Z</time>
      </trkpt>
      <trkpt lat="46.75686" lon="5.64019">
        <ele>468.2</ele>
        <time>2020-06-09T09:56:18Z</time>
      </trkpt>
      <trkpt lat="46.75689" lon="5.64022">
        <ele>468.6</ele>
        <time>2020-06-09T09:56:19Z</time>
      </trkpt>
      <trkpt lat="46.75692" lon="5.64024">
        <ele>468.6</ele>
        <time>2020-06-09T09:56:20Z</time>
      </trkpt>
      <trkpt lat="46.75695" lon="5.64027">
        <ele>468.8</ele>
        <time>2020-06-09T09:56:21Z</time>
      </trkpt>
      <trkpt lat="46.75698" lon="5.6403">
        <ele>469</ele>
        <time>2020-06-09T09:56:22Z</time>
      </trkpt>
      <trkpt lat="46.75701" lon="5.64032">
        <ele>469</ele>
        <time>2020-06-09T09:56:23Z</time>
      </trkpt>
      <trkpt lat="46.75705" lon="5.64035">
        <ele>469</ele>
        <time>2020-06-09T09:56:24Z</time>
      </trkpt>
      <trkpt lat="46.75708" lon="5.64038">
        <ele>469</ele>
        <time>2020-06-09T09:56:25Z</time>
      </trkpt>
      <trkpt lat="46.75711" lon="5.64041">
        <ele>469</ele>
        <time>2020-06-09T09:56:26Z</time>
      </trkpt>
      <trkpt lat="46.75714" lon="5.64044">
        <ele>469.6</ele>
        <time>2020-06-09T09:56:27Z</time>
      </trkpt>
      <trkpt lat="46.75717" lon="5.64047">
        <ele>469.6</ele>
        <time>2020-06-09T09:56:28Z</time>
      </trkpt>
      <trkpt lat="46.75721" lon="5.6405">
        <ele>469.6</ele>
        <time>2020-06-09T09:56:29Z</time>
      </trkpt>
      <trkpt lat="46.75724" lon="5.64053">
        <ele>469.6</ele>
        <time>2020-06-09T09:56:30Z</time>
      </trkpt>
      <trkpt lat="46.75727" lon="5.64057">
        <ele>469.6</ele>
        <time>2020-06-09T09:56:31Z</time>
      </trkpt>
      <trkpt lat="46.7573" lon="5.6406">
        <ele>469.8</ele>
        <time>2020-06-09T09:56:32Z</time>
      </trkpt>
      <trkpt lat="46.75734" lon="5.64063">
        <ele>469.8</ele>
        <time>2020-06-09T09:56:33Z</time>
      </trkpt>
      <trkpt lat="46.75737" lon="5.64067">
        <ele>469.8</ele>
        <time>2020-06-09T09:56:34Z</time>
      </trkpt>
      <trkpt lat="46.7574" lon="5.6407">
        <ele>470</ele>
        <time>2020-06-09T09:56:35Z</time>
      </trkpt>
      <trkpt lat="46.75744" lon="5.64073">
        <ele>470</ele>
        <time>2020-06-09T09:56:36Z</time>
      </trkpt>
      <trkpt lat="46.75747" lon="5.64077">
        <ele>470.4</ele>
        <time>2020-06-09T09:56:37Z</time>
      </trkpt>
      <trkpt lat="46.75751" lon="5.64081">
        <ele>470.4</ele>
        <time>2020-06-09T09:56:38Z</time>
      </trkpt>
      <trkpt lat="46.75754" lon="5.64085">
        <ele>470.4</ele>
        <time>2020-06-09T09:56:39Z</time>
      </trkpt>
      <trkpt lat="46.75757" lon="5.64089">
        <ele>470.4</ele>
        <time>2020-06-09T09:56:40Z</time>
      </trkpt>
      <trkpt lat="46.75761" lon="5.64093">
        <ele>470.4</ele>
        <time>2020-06-09T09:56:41Z</time>
      </trkpt>
      <trkpt lat="46.75764" lon="5.64097">
        <ele>470.4</ele>
        <time>2020-06-09T09:56:42Z</time>
      </trkpt>
      <trkpt lat="46.75767" lon="5.64102">
        <ele>470.6</ele>
        <time>2020-06-09T09:56:43Z</time>
      </trkpt>
      <trkpt lat="46.75771" lon="5.64106">
        <ele>470.6</ele>
        <time>2020-06-09T09:56:44Z</time>
      </trkpt>
      <trkpt lat="46.75774" lon="5.6411">
        <ele>470.6</ele>
        <time>2020-06-09T09:56:45Z</time>
      </trkpt>
      <trkpt lat="46.75777" lon="5.64115">
        <ele>470.6</ele>
        <time>2020-06-09T09:56:46Z</time>
      </trkpt>
      <trkpt lat="46.7578" lon="5.6412">
        <ele>470.8</ele>
        <time>2020-06-09T09:56:47Z</time>
      </trkpt>
      <trkpt lat="46.75784" lon="5.64124">
        <ele>470.8</ele>
        <time>2020-06-09T09:56:48Z</time>
      </trkpt>
      <trkpt lat="46.75787" lon="5.64129">
        <ele>470.8</ele>
        <time>2020-06-09T09:56:49Z</time>
      </trkpt>
      <trkpt lat="46.7579" lon="5.64133">
        <ele>470.8</ele>
        <time>2020-06-09T09:56:50Z</time>
      </trkpt>
      <trkpt lat="46.75793" lon="5.64137">
        <ele>470.8</ele>
        <time>2020-06-09T09:56:51Z</time>
      </trkpt>
      <trkpt lat="46.75796" lon="5.64141">
        <ele>471</ele>
        <time>2020-06-09T09:56:52Z</time>
      </trkpt>
      <trkpt lat="46.75798" lon="5.64146">
        <ele>471</ele>
        <time>2020-06-09T09:56:53Z</time>
      </trkpt>
      <trkpt lat="46.75801" lon="5.6415">
        <ele>471</ele>
        <time>2020-06-09T09:56:54Z</time>
      </trkpt>
      <trkpt lat="46.75803" lon="5.64155">
        <ele>471.4</ele>
        <time>2020-06-09T09:56:55Z</time>
      </trkpt>
      <trkpt lat="46.75806" lon="5.6416">
        <ele>471.4</ele>
        <time>2020-06-09T09:56:56Z</time>
      </trkpt>
      <trkpt lat="46.75809" lon="5.64164">
        <ele>471.6</ele>
        <time>2020-06-09T09:56:57Z</time>
      </trkpt>
      <trkpt lat="46.75811" lon="5.64169">
        <ele>471.6</ele>
        <time>2020-06-09T09:56:58Z</time>
      </trkpt>
      <trkpt lat="46.75813" lon="5.64174">
        <ele>471.6</ele>
        <time>2020-06-09T09:56:59Z</time>
      </trkpt>
      <trkpt lat="46.75816" lon="5.64178">
        <ele>471.6</ele>
        <time>2020-06-09T09:57:00Z</time>
      </trkpt>
      <trkpt lat="46.75818" lon="5.64183">
        <ele>471.8</ele>
        <time>2020-06-09T09:57:01Z</time>
      </trkpt>
      <trkpt lat="46.7582" lon="5.64188">
        <ele>471.8</ele>
        <time>2020-06-09T09:57:02Z</time>
      </trkpt>
      <trkpt lat="46.75822" lon="5.64193">
        <ele>472.2</ele>
        <time>2020-06-09T09:57:03Z</time>
      </trkpt>
      <trkpt lat="46.75824" lon="5.64198">
        <ele>472.2</ele>
        <time>2020-06-09T09:57:04Z</time>
      </trkpt>
      <trkpt lat="46.75825" lon="5.64203">
        <ele>472.6</ele>
        <time>2020-06-09T09:57:05Z</time>
      </trkpt>
      <trkpt lat="46.75827" lon="5.64208">
        <ele>472.6</ele>
        <time>2020-06-09T09:57:06Z</time>
      </trkpt>
      <trkpt lat="46.75829" lon="5.64213">
        <ele>472.6</ele>
        <time>2020-06-09T09:57:07Z</time>
      </trkpt>
      <trkpt lat="46.75831" lon="5.64219">
        <ele>472.6</ele>
        <time>2020-06-09T09:57:08Z</time>
      </trkpt>
      <trkpt lat="46.75834" lon="5.64224">
        <ele>472.6</ele>
        <time>2020-06-09T09:57:09Z</time>
      </trkpt>
      <trkpt lat="46.75836" lon="5.64229">
        <ele>473</ele>
        <time>2020-06-09T09:57:10Z</time>
      </trkpt>
      <trkpt lat="46.75838" lon="5.64234">
        <ele>473</ele>
        <time>2020-06-09T09:57:11Z</time>
      </trkpt>
      <trkpt lat="46.7584" lon="5.64239">
        <ele>473</ele>
        <time>2020-06-09T09:57:12Z</time>
      </trkpt>
      <trkpt lat="46.75842" lon="5.64244">
        <ele>473.2</ele>
        <time>2020-06-09T09:57:13Z</time>
      </trkpt>
      <trkpt lat="46.75845" lon="5.64249">
        <ele>473.2</ele>
        <time>2020-06-09T09:57:14Z</time>
      </trkpt>
      <trkpt lat="46.75848" lon="5.64255">
        <ele>473.2</ele>
        <time>2020-06-09T09:57:15Z</time>
      </trkpt>
      <trkpt lat="46.75851" lon="5.6426">
        <ele>473.2</ele>
        <time>2020-06-09T09:57:16Z</time>
      </trkpt>
      <trkpt lat="46.75854" lon="5.64266">
        <ele>473.2</ele>
        <time>2020-06-09T09:57:17Z</time>
      </trkpt>
      <trkpt lat="46.75857" lon="5.64272">
        <ele>473.2</ele>
        <time>2020-06-09T09:57:18Z</time>
      </trkpt>
      <trkpt lat="46.75861" lon="5.64279">
        <ele>473.2</ele>
        <time>2020-06-09T09:57:19Z</time>
      </trkpt>
      <trkpt lat="46.75865" lon="5.64285">
        <ele>473.2</ele>
        <time>2020-06-09T09:57:20Z</time>
      </trkpt>
      <trkpt lat="46.75868" lon="5.64292">
        <ele>472.8</ele>
        <time>2020-06-09T09:57:21Z</time>
      </trkpt>
      <trkpt lat="46.75872" lon="5.64299">
        <ele>472.6</ele>
        <time>2020-06-09T09:57:22Z</time>
      </trkpt>
      <trkpt lat="46.75876" lon="5.64306">
        <ele>472.4</ele>
        <time>2020-06-09T09:57:23Z</time>
      </trkpt>
      <trkpt lat="46.7588" lon="5.64313">
        <ele>472.4</ele>
        <time>2020-06-09T09:57:24Z</time>
      </trkpt>
      <trkpt lat="46.75884" lon="5.64321">
        <ele>472</ele>
        <time>2020-06-09T09:57:25Z</time>
      </trkpt>
      <trkpt lat="46.75888" lon="5.64328">
        <ele>472</ele>
        <time>2020-06-09T09:57:26Z</time>
      </trkpt>
      <trkpt lat="46.75892" lon="5.64336">
        <ele>472</ele>
        <time>2020-06-09T09:57:27Z</time>
      </trkpt>
      <trkpt lat="46.75896" lon="5.64344">
        <ele>471.8</ele>
        <time>2020-06-09T09:57:28Z</time>
      </trkpt>
      <trkpt lat="46.75901" lon="5.64352">
        <ele>471.8</ele>
        <time>2020-06-09T09:57:29Z</time>
      </trkpt>
      <trkpt lat="46.75905" lon="5.64361">
        <ele>471.4</ele>
        <time>2020-06-09T09:57:30Z</time>
      </trkpt>
      <trkpt lat="46.75909" lon="5.64369">
        <ele>471.2</ele>
        <time>2020-06-09T09:57:31Z</time>
      </trkpt>
      <trkpt lat="46.75914" lon="5.64378">
        <ele>470.8</ele>
        <time>2020-06-09T09:57:32Z</time>
      </trkpt>
      <trkpt lat="46.75918" lon="5.64386">
        <ele>470.6</ele>
        <time>2020-06-09T09:57:33Z</time>
      </trkpt>
      <trkpt lat="46.75923" lon="5.64395">
        <ele>470.6</ele>
        <time>2020-06-09T09:57:34Z</time>
      </trkpt>
      <trkpt lat="46.75927" lon="5.64404">
        <ele>470.2</ele>
        <time>2020-06-09T09:57:35Z</time>
      </trkpt>
      <trkpt lat="46.75931" lon="5.64413">
        <ele>470</ele>
        <time>2020-06-09T09:57:36Z</time>
      </trkpt>
      <trkpt lat="46.75935" lon="5.64422">
        <ele>470</ele>
        <time>2020-06-09T09:57:37Z</time>
      </trkpt>
      <trkpt lat="46.75939" lon="5.64432">
        <ele>469.6</ele>
        <time>2020-06-09T09:57:38Z</time>
      </trkpt>
      <trkpt lat="46.75943" lon="5.64441">
        <ele>469.6</ele>
        <time>2020-06-09T09:57:39Z</time>
      </trkpt>
      <trkpt lat="46.75947" lon="5.6445">
        <ele>469.6</ele>
        <time>2020-06-09T09:57:40Z</time>
      </trkpt>
      <trkpt lat="46.75951" lon="5.64459">
        <ele>469.6</ele>
        <time>2020-06-09T09:57:41Z</time>
      </trkpt>
      <trkpt lat="46.75954" lon="5.64468">
        <ele>469.6</ele>
        <time>2020-06-09T09:57:42Z</time>
      </trkpt>
      <trkpt lat="46.75958" lon="5.64477">
        <ele>469.6</ele>
        <time>2020-06-09T09:57:43Z</time>
      </trkpt>
      <trkpt lat="46.75961" lon="5.64486">
        <ele>469.2</ele>
        <time>2020-06-09T09:57:44Z</time>
      </trkpt>
      <trkpt lat="46.75964" lon="5.64495">
        <ele>469.2</ele>
        <time>2020-06-09T09:57:45Z</time>
      </trkpt>
      <trkpt lat="46.75967" lon="5.64504">
        <ele>469.2</ele>
        <time>2020-06-09T09:57:46Z</time>
      </trkpt>
      <trkpt lat="46.7597" lon="5.64512">
        <ele>469.2</ele>
        <time>2020-06-09T09:57:47Z</time>
      </trkpt>
      <trkpt lat="46.75973" lon="5.64521">
        <ele>469</ele>
        <time>2020-06-09T09:57:48Z</time>
      </trkpt>
      <trkpt lat="46.75975" lon="5.6453">
        <ele>469</ele>
        <time>2020-06-09T09:57:49Z</time>
      </trkpt>
      <trkpt lat="46.75978" lon="5.64539">
        <ele>468.8</ele>
        <time>2020-06-09T09:57:50Z</time>
      </trkpt>
      <trkpt lat="46.7598" lon="5.64548">
        <ele>468.8</ele>
        <time>2020-06-09T09:57:51Z</time>
      </trkpt>
      <trkpt lat="46.75982" lon="5.64557">
        <ele>468.8</ele>
        <time>2020-06-09T09:57:52Z</time>
      </trkpt>
      <trkpt lat="46.75983" lon="5.64565">
        <ele>468.8</ele>
        <time>2020-06-09T09:57:53Z</time>
      </trkpt>
      <trkpt lat="46.75985" lon="5.64574">
        <ele>468.8</ele>
        <time>2020-06-09T09:57:54Z</time>
      </trkpt>
      <trkpt lat="46.75987" lon="5.64582">
        <ele>468.8</ele>
        <time>2020-06-09T09:57:55Z</time>
      </trkpt>
      <trkpt lat="46.75989" lon="5.64591">
        <ele>468.8</ele>
        <time>2020-06-09T09:57:56Z</time>
      </trkpt>
      <trkpt lat="46.7599" lon="5.64599">
        <ele>468.8</ele>
        <time>2020-06-09T09:57:57Z</time>
      </trkpt>
      <trkpt lat="46.75991" lon="5.64608">
        <ele>468.8</ele>
        <time>2020-06-09T09:57:58Z</time>
      </trkpt>
      <trkpt lat="46.75992" lon="5.64616">
        <ele>468.8</ele>
        <time>2020-06-09T09:57:59Z</time>
      </trkpt>
      <trkpt lat="46.75994" lon="5.64624">
        <ele>468.8</ele>
        <time>2020-06-09T09:58:00Z</time>
      </trkpt>
      <trkpt lat="46.75995" lon="5.64632">
        <ele>468.8</ele>
        <time>2020-06-09T09:58:01Z</time>
      </trkpt>
      <trkpt lat="46.75997" lon="5.64641">
        <ele>468.8</ele>
        <time>2020-06-09T09:58:02Z</time>
      </trkpt>
      <trkpt lat="46.75998" lon="5.64649">
        <ele>469</ele>
        <time>2020-06-09T09:58:03Z</time>
      </trkpt>
      <trkpt lat="46.76" lon="5.64657">
        <ele>469</ele>
        <time>2020-06-09T09:58:04Z</time>
      </trkpt>
      <trkpt lat="46.76001" lon="5.64664">
        <ele>469</ele>
        <time>2020-06-09T09:58:05Z</time>
      </trkpt>
      <trkpt lat="46.76002" lon="5.64672">
        <ele>469</ele>
        <time>2020-06-09T09:58:06Z</time>
      </trkpt>
      <trkpt lat="46.76003" lon="5.6468">
        <ele>469</ele>
        <time>2020-06-09T09:58:07Z</time>
      </trkpt>
      <trkpt lat="46.76005" lon="5.64687">
        <ele>469</ele>
        <time>2020-06-09T09:58:08Z</time>
      </trkpt>
      <trkpt lat="46.76006" lon="5.64694">
        <ele>469</ele>
        <time>2020-06-09T09:58:09Z</time>
      </trkpt>
      <trkpt lat="46.76008" lon="5.64701">
        <ele>469</ele>
        <time>2020-06-09T09:58:10Z</time>
      </trkpt>
      <trkpt lat="46.76009" lon="5.64708">
        <ele>469</ele>
        <time>2020-06-09T09:58:11Z</time>
      </trkpt>
      <trkpt lat="46.76011" lon="5.64715">
        <ele>469</ele>
        <time>2020-06-09T09:58:12Z</time>
      </trkpt>
      <trkpt lat="46.76012" lon="5.64722">
        <ele>469.2</ele>
        <time>2020-06-09T09:58:13Z</time>
      </trkpt>
      <trkpt lat="46.76014" lon="5.64729">
        <ele>469.2</ele>
        <time>2020-06-09T09:58:14Z</time>
      </trkpt>
      <trkpt lat="46.76015" lon="5.64737">
        <ele>469.2</ele>
        <time>2020-06-09T09:58:15Z</time>
      </trkpt>
      <trkpt lat="46.76017" lon="5.64744">
        <ele>469.4</ele>
        <time>2020-06-09T09:58:16Z</time>
      </trkpt>
      <trkpt lat="46.76018" lon="5.64751">
        <ele>469.4</ele>
        <time>2020-06-09T09:58:17Z</time>
      </trkpt>
      <trkpt lat="46.7602" lon="5.64758">
        <ele>469.4</ele>
        <time>2020-06-09T09:58:18Z</time>
      </trkpt>
      <trkpt lat="46.76021" lon="5.64765">
        <ele>469.4</ele>
        <time>2020-06-09T09:58:19Z</time>
      </trkpt>
      <trkpt lat="46.76023" lon="5.64772">
        <ele>469.4</ele>
        <time>2020-06-09T09:58:20Z</time>
      </trkpt>
      <trkpt lat="46.76024" lon="5.64779">
        <ele>469.4</ele>
        <time>2020-06-09T09:58:21Z</time>
      </trkpt>
      <trkpt lat="46.76026" lon="5.64785">
        <ele>469.4</ele>
        <time>2020-06-09T09:58:22Z</time>
      </trkpt>
      <trkpt lat="46.76027" lon="5.64792">
        <ele>469.8</ele>
        <time>2020-06-09T09:58:23Z</time>
      </trkpt>
      <trkpt lat="46.76028" lon="5.64798">
        <ele>470</ele>
        <time>2020-06-09T09:58:24Z</time>
      </trkpt>
      <trkpt lat="46.7603" lon="5.64805">
        <ele>470</ele>
        <time>2020-06-09T09:58:25Z</time>
      </trkpt>
      <trkpt lat="46.76031" lon="5.64811">
        <ele>470.2</ele>
        <time>2020-06-09T09:58:26Z</time>
      </trkpt>
      <trkpt lat="46.76032" lon="5.64817">
        <ele>470.6</ele>
        <time>2020-06-09T09:58:27Z</time>
      </trkpt>
      <trkpt lat="46.76034" lon="5.64824">
        <ele>470.6</ele>
        <time>2020-06-09T09:58:28Z</time>
      </trkpt>
      <trkpt lat="46.76035" lon="5.6483">
        <ele>470.8</ele>
        <time>2020-06-09T09:58:29Z</time>
      </trkpt>
      <trkpt lat="46.76036" lon="5.64836">
        <ele>470.8</ele>
        <time>2020-06-09T09:58:30Z</time>
      </trkpt>
      <trkpt lat="46.76038" lon="5.64841">
        <ele>471</ele>
        <time>2020-06-09T09:58:31Z</time>
      </trkpt>
      <trkpt lat="46.76039" lon="5.64847">
        <ele>471</ele>
        <time>2020-06-09T09:58:32Z</time>
      </trkpt>
      <trkpt lat="46.7604" lon="5.64853">
        <ele>471.4</ele>
        <time>2020-06-09T09:58:33Z</time>
      </trkpt>
      <trkpt lat="46.76042" lon="5.64858">
        <ele>471.4</ele>
        <time>2020-06-09T09:58:34Z</time>
      </trkpt>
      <trkpt lat="46.76043" lon="5.64864">
        <ele>471.6</ele>
        <time>2020-06-09T09:58:35Z</time>
      </trkpt>
      <trkpt lat="46.76044" lon="5.64869">
        <ele>471.6</ele>
        <time>2020-06-09T09:58:36Z</time>
      </trkpt>
      <trkpt lat="46.76045" lon="5.64875">
        <ele>471.8</ele>
        <time>2020-06-09T09:58:37Z</time>
      </trkpt>
      <trkpt lat="46.76047" lon="5.64881">
        <ele>471.8</ele>
        <time>2020-06-09T09:58:38Z</time>
      </trkpt>
      <trkpt lat="46.76048" lon="5.64886">
        <ele>471.8</ele>
        <time>2020-06-09T09:58:39Z</time>
      </trkpt>
      <trkpt lat="46.76049" lon="5.64892">
        <ele>472.2</ele>
        <time>2020-06-09T09:58:40Z</time>
      </trkpt>
      <trkpt lat="46.76051" lon="5.64897">
        <ele>472.4</ele>
        <time>2020-06-09T09:58:41Z</time>
      </trkpt>
      <trkpt lat="46.76052" lon="5.64902">
        <ele>472.8</ele>
        <time>2020-06-09T09:58:42Z</time>
      </trkpt>
      <trkpt lat="46.76053" lon="5.64908">
        <ele>472.8</ele>
        <time>2020-06-09T09:58:43Z</time>
      </trkpt>
      <trkpt lat="46.76055" lon="5.64913">
        <ele>473.2</ele>
        <time>2020-06-09T09:58:44Z</time>
      </trkpt>
      <trkpt lat="46.76056" lon="5.64918">
        <ele>473.2</ele>
        <time>2020-06-09T09:58:45Z</time>
      </trkpt>
      <trkpt lat="46.76058" lon="5.64923">
        <ele>473.6</ele>
        <time>2020-06-09T09:58:46Z</time>
      </trkpt>
      <trkpt lat="46.76059" lon="5.64928">
        <ele>473.6</ele>
        <time>2020-06-09T09:58:47Z</time>
      </trkpt>
      <trkpt lat="46.76061" lon="5.64933">
        <ele>474</ele>
        <time>2020-06-09T09:58:48Z</time>
      </trkpt>
      <trkpt lat="46.76062" lon="5.64938">
        <ele>474</ele>
        <time>2020-06-09T09:58:49Z</time>
      </trkpt>
      <trkpt lat="46.76064" lon="5.64943">
        <ele>474.2</ele>
        <time>2020-06-09T09:58:50Z</time>
      </trkpt>
      <trkpt lat="46.76065" lon="5.64948">
        <ele>474.2</ele>
        <time>2020-06-09T09:58:51Z</time>
      </trkpt>
      <trkpt lat="46.76067" lon="5.64953">
        <ele>474.6</ele>
        <time>2020-06-09T09:58:52Z</time>
      </trkpt>
      <trkpt lat="46.76068" lon="5.64957">
        <ele>474.6</ele>
        <time>2020-06-09T09:58:53Z</time>
      </trkpt>
      <trkpt lat="46.76069" lon="5.64962">
        <ele>474.8</ele>
        <time>2020-06-09T09:58:54Z</time>
      </trkpt>
      <trkpt lat="46.7607" lon="5.64967">
        <ele>474.8</ele>
        <time>2020-06-09T09:58:55Z</time>
      </trkpt>
      <trkpt lat="46.7607" lon="5.64972">
        <ele>474.8</ele>
        <time>2020-06-09T09:58:56Z</time>
      </trkpt>
      <trkpt lat="46.76071" lon="5.64978">
        <ele>475.2</ele>
        <time>2020-06-09T09:58:57Z</time>
      </trkpt>
      <trkpt lat="46.76071" lon="5.64983">
        <ele>475.2</ele>
        <time>2020-06-09T09:58:58Z</time>
      </trkpt>
      <trkpt lat="46.76072" lon="5.64988">
        <ele>475.4</ele>
        <time>2020-06-09T09:58:59Z</time>
      </trkpt>
      <trkpt lat="46.76072" lon="5.64994">
        <ele>475.4</ele>
        <time>2020-06-09T09:59:00Z</time>
      </trkpt>
      <trkpt lat="46.76072" lon="5.65">
        <ele>475.4</ele>
        <time>2020-06-09T09:59:01Z</time>
      </trkpt>
      <trkpt lat="46.76071" lon="5.65005">
        <ele>475.4</ele>
        <time>2020-06-09T09:59:02Z</time>
      </trkpt>
      <trkpt lat="46.76071" lon="5.65011">
        <ele>475.6</ele>
        <time>2020-06-09T09:59:03Z</time>
      </trkpt>
      <trkpt lat="46.76071" lon="5.65016">
        <ele>475.6</ele>
        <time>2020-06-09T09:59:04Z</time>
      </trkpt>
      <trkpt lat="46.7607" lon="5.65021">
        <ele>476</ele>
        <time>2020-06-09T09:59:05Z</time>
      </trkpt>
      <trkpt lat="46.7607" lon="5.65026">
        <ele>476</ele>
        <time>2020-06-09T09:59:06Z</time>
      </trkpt>
      <trkpt lat="46.76069" lon="5.65032">
        <ele>476.2</ele>
        <time>2020-06-09T09:59:07Z</time>
      </trkpt>
      <trkpt lat="46.76069" lon="5.65037">
        <ele>476.2</ele>
        <time>2020-06-09T09:59:08Z</time>
      </trkpt>
      <trkpt lat="46.76068" lon="5.65042">
        <ele>476.2</ele>
        <time>2020-06-09T09:59:09Z</time>
      </trkpt>
      <trkpt lat="46.76067" lon="5.65047">
        <ele>476.4</ele>
        <time>2020-06-09T09:59:10Z</time>
      </trkpt>
      <trkpt lat="46.76066" lon="5.65052">
        <ele>476.4</ele>
        <time>2020-06-09T09:59:11Z</time>
      </trkpt>
      <trkpt lat="46.76066" lon="5.65057">
        <ele>476.4</ele>
        <time>2020-06-09T09:59:12Z</time>
      </trkpt>
      <trkpt lat="46.76066" lon="5.65063">
        <ele>476.6</ele>
        <time>2020-06-09T09:59:13Z</time>
      </trkpt>
      <trkpt lat="46.76065" lon="5.65068">
        <ele>476.6</ele>
        <time>2020-06-09T09:59:14Z</time>
      </trkpt>
      <trkpt lat="46.76065" lon="5.65073">
        <ele>476.8</ele>
        <time>2020-06-09T09:59:15Z</time>
      </trkpt>
      <trkpt lat="46.76064" lon="5.65077">
        <ele>476.8</ele>
        <time>2020-06-09T09:59:16Z</time>
      </trkpt>
      <trkpt lat="46.76063" lon="5.65082">
        <ele>477.2</ele>
        <time>2020-06-09T09:59:17Z</time>
      </trkpt>
      <trkpt lat="46.76063" lon="5.65087">
        <ele>477.2</ele>
        <time>2020-06-09T09:59:18Z</time>
      </trkpt>
      <trkpt lat="46.76062" lon="5.65092">
        <ele>477.4</ele>
        <time>2020-06-09T09:59:19Z</time>
      </trkpt>
      <trkpt lat="46.76062" lon="5.65097">
        <ele>477.4</ele>
        <time>2020-06-09T09:59:20Z</time>
      </trkpt>
      <trkpt lat="46.76061" lon="5.65103">
        <ele>477.6</ele>
        <time>2020-06-09T09:59:21Z</time>
      </trkpt>
      <trkpt lat="46.7606" lon="5.65108">
        <ele>477.6</ele>
        <time>2020-06-09T09:59:22Z</time>
      </trkpt>
      <trkpt lat="46.7606" lon="5.65114">
        <ele>478</ele>
        <time>2020-06-09T09:59:23Z</time>
      </trkpt>
      <trkpt lat="46.76059" lon="5.65119">
        <ele>478</ele>
        <time>2020-06-09T09:59:24Z</time>
      </trkpt>
      <trkpt lat="46.76058" lon="5.65125">
        <ele>478</ele>
        <time>2020-06-09T09:59:25Z</time>
      </trkpt>
      <trkpt lat="46.76057" lon="5.6513">
        <ele>478.2</ele>
        <time>2020-06-09T09:59:26Z</time>
      </trkpt>
      <trkpt lat="46.76057" lon="5.65136">
        <ele>478.2</ele>
        <time>2020-06-09T09:59:27Z</time>
      </trkpt>
      <trkpt lat="46.76056" lon="5.65141">
        <ele>478.4</ele>
        <time>2020-06-09T09:59:28Z</time>
      </trkpt>
      <trkpt lat="46.76056" lon="5.65147">
        <ele>478.8</ele>
        <time>2020-06-09T09:59:29Z</time>
      </trkpt>
      <trkpt lat="46.76055" lon="5.65152">
        <ele>478.8</ele>
        <time>2020-06-09T09:59:30Z</time>
      </trkpt>
      <trkpt lat="46.76054" lon="5.65158">
        <ele>479.2</ele>
        <time>2020-06-09T09:59:31Z</time>
      </trkpt>
      <trkpt lat="46.76054" lon="5.65163">
        <ele>479.4</ele>
        <time>2020-06-09T09:59:32Z</time>
      </trkpt>
      <trkpt lat="46.76054" lon="5.65169">
        <ele>479.4</ele>
        <time>2020-06-09T09:59:33Z</time>
      </trkpt>
      <trkpt lat="46.76053" lon="5.65174">
        <ele>479.6</ele>
        <time>2020-06-09T09:59:34Z</time>
      </trkpt>
      <trkpt lat="46.76053" lon="5.65179">
        <ele>479.6</ele>
        <time>2020-06-09T09:59:35Z</time>
      </trkpt>
      <trkpt lat="46.76052" lon="5.65185">
        <ele>480</ele>
        <time>2020-06-09T09:59:36Z</time>
      </trkpt>
      <trkpt lat="46.76052" lon="5.6519">
        <ele>480</ele>
        <time>2020-06-09T09:59:37Z</time>
      </trkpt>
      <trkpt lat="46.76051" lon="5.65195">
        <ele>480.2</ele>
        <time>2020-06-09T09:59:38Z</time>
      </trkpt>
      <trkpt lat="46.7605" lon="5.652">
        <ele>480.2</ele>
        <time>2020-06-09T09:59:39Z</time>
      </trkpt>
      <trkpt lat="46.7605" lon="5.65205">
        <ele>480.6</ele>
        <time>2020-06-09T09:59:40Z</time>
      </trkpt>
      <trkpt lat="46.76049" lon="5.65211">
        <ele>480.6</ele>
        <time>2020-06-09T09:59:41Z</time>
      </trkpt>
      <trkpt lat="46.76049" lon="5.65216">
        <ele>481</ele>
        <time>2020-06-09T09:59:42Z</time>
      </trkpt>
      <trkpt lat="46.76049" lon="5.65221">
        <ele>481</ele>
        <time>2020-06-09T09:59:43Z</time>
      </trkpt>
      <trkpt lat="46.76049" lon="5.65226">
        <ele>481</ele>
        <time>2020-06-09T09:59:44Z</time>
      </trkpt>
      <trkpt lat="46.76048" lon="5.65231">
        <ele>481.2</ele>
        <time>2020-06-09T09:59:45Z</time>
      </trkpt>
      <trkpt lat="46.76048" lon="5.65236">
        <ele>481.4</ele>
        <time>2020-06-09T09:59:46Z</time>
      </trkpt>
      <trkpt lat="46.76048" lon="5.65241">
        <ele>481.4</ele>
        <time>2020-06-09T09:59:47Z</time>
      </trkpt>
      <trkpt lat="46.76048" lon="5.65245">
        <ele>481.8</ele>
        <time>2020-06-09T09:59:48Z</time>
      </trkpt>
      <trkpt lat="46.76048" lon="5.6525">
        <ele>482</ele>
        <time>2020-06-09T09:59:49Z</time>
      </trkpt>
      <trkpt lat="46.76048" lon="5.65255">
        <ele>482.4</ele>
        <time>2020-06-09T09:59:50Z</time>
      </trkpt>
      <trkpt lat="46.76048" lon="5.6526">
        <ele>482.4</ele>
        <time>2020-06-09T09:59:51Z</time>
      </trkpt>
      <trkpt lat="46.76048" lon="5.65265">
        <ele>482.8</ele>
        <time>2020-06-09T09:59:52Z</time>
      </trkpt>
      <trkpt lat="46.76047" lon="5.6527">
        <ele>482.8</ele>
        <time>2020-06-09T09:59:53Z</time>
      </trkpt>
      <trkpt lat="46.76047" lon="5.65275">
        <ele>483</ele>
        <time>2020-06-09T09:59:54Z</time>
      </trkpt>
      <trkpt lat="46.76047" lon="5.6528">
        <ele>483</ele>
        <time>2020-06-09T09:59:55Z</time>
      </trkpt>
      <trkpt lat="46.76047" lon="5.65285">
        <ele>483.4</ele>
        <time>2020-06-09T09:59:56Z</time>
      </trkpt>
      <trkpt lat="46.76046" lon="5.6529">
        <ele>483.8</ele>
        <time>2020-06-09T09:59:57Z</time>
      </trkpt>
      <trkpt lat="46.76046" lon="5.65295">
        <ele>483.8</ele>
        <time>2020-06-09T09:59:58Z</time>
      </trkpt>
      <trkpt lat="46.76046" lon="5.653">
        <ele>483.8</ele>
        <time>2020-06-09T09:59:59Z</time>
      </trkpt>
      <trkpt lat="46.76046" lon="5.65305">
        <ele>484</ele>
        <time>2020-06-09T10:00:00Z</time>
      </trkpt>
      <trkpt lat="46.76046" lon="5.6531">
        <ele>484</ele>
        <time>2020-06-09T10:00:01Z</time>
      </trkpt>
      <trkpt lat="46.76045" lon="5.65315">
        <ele>484.4</ele>
        <time>2020-06-09T10:00:02Z</time>
      </trkpt>
      <trkpt lat="46.76045" lon="5.6532">
        <ele>484.6</ele>
        <time>2020-06-09T10:00:03Z</time>
      </trkpt>
      <trkpt lat="46.76045" lon="5.65325">
        <ele>484.6</ele>
        <time>2020-06-09T10:00:04Z</time>
      </trkpt>
      <trkpt lat="46.76045" lon="5.6533">
        <ele>485</ele>
        <time>2020-06-09T10:00:05Z</time>
      </trkpt>
      <trkpt lat="46.76045" lon="5.65335">
        <ele>485</ele>
        <time>2020-06-09T10:00:06Z</time>
      </trkpt>
      <trkpt lat="46.76044" lon="5.65341">
        <ele>485.4</ele>
        <time>2020-06-09T10:00:07Z</time>
      </trkpt>
      <trkpt lat="46.76044" lon="5.65346">
        <ele>485.4</ele>
        <time>2020-06-09T10:00:08Z</time>
      </trkpt>
      <trkpt lat="46.76044" lon="5.65351">
        <ele>485.8</ele>
        <time>2020-06-09T10:00:09Z</time>
      </trkpt>
      <trkpt lat="46.76044" lon="5.65356">
        <ele>485.8</ele>
        <time>2020-06-09T10:00:10Z</time>
      </trkpt>
      <trkpt lat="46.76044" lon="5.65362">
        <ele>485.8</ele>
        <time>2020-06-09T10:00:11Z</time>
      </trkpt>
      <trkpt lat="46.76043" lon="5.65367">
        <ele>486</ele>
        <time>2020-06-09T10:00:12Z</time>
      </trkpt>
      <trkpt lat="46.76043" lon="5.65373">
        <ele>486</ele>
        <time>2020-06-09T10:00:13Z</time>
      </trkpt>
      <trkpt lat="46.76043" lon="5.65378">
        <ele>486.4</ele>
        <time>2020-06-09T10:00:14Z</time>
      </trkpt>
      <trkpt lat="46.76043" lon="5.65383">
        <ele>486.4</ele>
        <time>2020-06-09T10:00:15Z</time>
      </trkpt>
      <trkpt lat="46.76042" lon="5.65389">
        <ele>486.4</ele>
        <time>2020-06-09T10:00:16Z</time>
      </trkpt>
      <trkpt lat="46.76042" lon="5.65394">
        <ele>486.4</ele>
        <time>2020-06-09T10:00:17Z</time>
      </trkpt>
      <trkpt lat="46.76042" lon="5.654">
        <ele>486.6</ele>
        <time>2020-06-09T10:00:18Z</time>
      </trkpt>
      <trkpt lat="46.76042" lon="5.65405">
        <ele>486.6</ele>
        <time>2020-06-09T10:00:19Z</time>
      </trkpt>
      <trkpt lat="46.76041" lon="5.65411">
        <ele>486.6</ele>
        <time>2020-06-09T10:00:20Z</time>
      </trkpt>
      <trkpt lat="46.76041" lon="5.65416">
        <ele>486.8</ele>
        <time>2020-06-09T10:00:21Z</time>
      </trkpt>
      <trkpt lat="46.76041" lon="5.65422">
        <ele>486.8</ele>
        <time>2020-06-09T10:00:22Z</time>
      </trkpt>
      <trkpt lat="46.76041" lon="5.65427">
        <ele>486.8</ele>
        <time>2020-06-09T10:00:23Z</time>
      </trkpt>
      <trkpt lat="46.76041" lon="5.65433">
        <ele>487</ele>
        <time>2020-06-09T10:00:24Z</time>
      </trkpt>
      <trkpt lat="46.76041" lon="5.65438">
        <ele>487</ele>
        <time>2020-06-09T10:00:25Z</time>
      </trkpt>
      <trkpt lat="46.76041" lon="5.65444">
        <ele>487.2</ele>
        <time>2020-06-09T10:00:26Z</time>
      </trkpt>
      <trkpt lat="46.76041" lon="5.65449">
        <ele>487.4</ele>
        <time>2020-06-09T10:00:27Z</time>
      </trkpt>
      <trkpt lat="46.76041" lon="5.65455">
        <ele>487.4</ele>
        <time>2020-06-09T10:00:28Z</time>
      </trkpt>
      <trkpt lat="46.76041" lon="5.6546">
        <ele>487.4</ele>
        <time>2020-06-09T10:00:29Z</time>
      </trkpt>
      <trkpt lat="46.76041" lon="5.65466">
        <ele>487.8</ele>
        <time>2020-06-09T10:00:30Z</time>
      </trkpt>
      <trkpt lat="46.76041" lon="5.65471">
        <ele>488</ele>
        <time>2020-06-09T10:00:31Z</time>
      </trkpt>
      <trkpt lat="46.76041" lon="5.65477">
        <ele>488</ele>
        <time>2020-06-09T10:00:32Z</time>
      </trkpt>
      <trkpt lat="46.76041" lon="5.65483">
        <ele>488.2</ele>
        <time>2020-06-09T10:00:33Z</time>
      </trkpt>
      <trkpt lat="46.76041" lon="5.65489">
        <ele>488.2</ele>
        <time>2020-06-09T10:00:34Z</time>
      </trkpt>
      <trkpt lat="46.76041" lon="5.65494">
        <ele>488.2</ele>
        <time>2020-06-09T10:00:35Z</time>
      </trkpt>
      <trkpt lat="46.76041" lon="5.655">
        <ele>488.2</ele>
        <time>2020-06-09T10:00:36Z</time>
      </trkpt>
      <trkpt lat="46.76041" lon="5.65506">
        <ele>488.6</ele>
        <time>2020-06-09T10:00:37Z</time>
      </trkpt>
      <trkpt lat="46.76041" lon="5.65512">
        <ele>488.8</ele>
        <time>2020-06-09T10:00:38Z</time>
      </trkpt>
      <trkpt lat="46.76041" lon="5.65517">
        <ele>488.8</ele>
        <time>2020-06-09T10:00:39Z</time>
      </trkpt>
      <trkpt lat="46.7604" lon="5.65523">
        <ele>489.2</ele>
        <time>2020-06-09T10:00:40Z</time>
      </trkpt>
      <trkpt lat="46.7604" lon="5.65529">
        <ele>489.2</ele>
        <time>2020-06-09T10:00:41Z</time>
      </trkpt>
      <trkpt lat="46.7604" lon="5.65534">
        <ele>489.6</ele>
        <time>2020-06-09T10:00:42Z</time>
      </trkpt>
      <trkpt lat="46.7604" lon="5.6554">
        <ele>489.6</ele>
        <time>2020-06-09T10:00:43Z</time>
      </trkpt>
      <trkpt lat="46.7604" lon="5.65546">
        <ele>489.8</ele>
        <time>2020-06-09T10:00:44Z</time>
      </trkpt>
      <trkpt lat="46.7604" lon="5.65551">
        <ele>489.8</ele>
        <time>2020-06-09T10:00:45Z</time>
      </trkpt>
      <trkpt lat="46.7604" lon="5.65556">
        <ele>490.2</ele>
        <time>2020-06-09T10:00:46Z</time>
      </trkpt>
      <trkpt lat="46.7604" lon="5.65561">
        <ele>490.2</ele>
        <time>2020-06-09T10:00:47Z</time>
      </trkpt>
      <trkpt lat="46.7604" lon="5.65566">
        <ele>490.6</ele>
        <time>2020-06-09T10:00:48Z</time>
      </trkpt>
      <trkpt lat="46.7604" lon="5.65572">
        <ele>490.6</ele>
        <time>2020-06-09T10:00:49Z</time>
      </trkpt>
      <trkpt lat="46.76039" lon="5.65577">
        <ele>491</ele>
        <time>2020-06-09T10:00:50Z</time>
      </trkpt>
      <trkpt lat="46.76039" lon="5.65582">
        <ele>491</ele>
        <time>2020-06-09T10:00:51Z</time>
      </trkpt>
      <trkpt lat="46.76039" lon="5.65588">
        <ele>491.2</ele>
        <time>2020-06-09T10:00:52Z</time>
      </trkpt>
      <trkpt lat="46.76039" lon="5.65593">
        <ele>491.4</ele>
        <time>2020-06-09T10:00:53Z</time>
      </trkpt>
      <trkpt lat="46.76039" lon="5.65598">
        <ele>491.8</ele>
        <time>2020-06-09T10:00:54Z</time>
      </trkpt>
      <trkpt lat="46.76039" lon="5.65604">
        <ele>492</ele>
        <time>2020-06-09T10:00:55Z</time>
      </trkpt>
      <trkpt lat="46.76038" lon="5.65609">
        <ele>492.2</ele>
        <time>2020-06-09T10:00:56Z</time>
      </trkpt>
      <trkpt lat="46.76039" lon="5.65614">
        <ele>492.4</ele>
        <time>2020-06-09T10:00:57Z</time>
      </trkpt>
      <trkpt lat="46.76039" lon="5.65619">
        <ele>492.6</ele>
        <time>2020-06-09T10:00:58Z</time>
      </trkpt>
      <trkpt lat="46.76039" lon="5.65623">
        <ele>493</ele>
        <time>2020-06-09T10:00:59Z</time>
      </trkpt>
      <trkpt lat="46.7604" lon="5.65628">
        <ele>493.2</ele>
        <time>2020-06-09T10:01:00Z</time>
      </trkpt>
      <trkpt lat="46.7604" lon="5.65632">
        <ele>493.2</ele>
        <time>2020-06-09T10:01:01Z</time>
      </trkpt>
      <trkpt lat="46.76041" lon="5.65637">
        <ele>493.4</ele>
        <time>2020-06-09T10:01:02Z</time>
      </trkpt>
      <trkpt lat="46.76041" lon="5.65642">
        <ele>493.8</ele>
        <time>2020-06-09T10:01:03Z</time>
      </trkpt>
      <trkpt lat="46.76042" lon="5.65646">
        <ele>494</ele>
        <time>2020-06-09T10:01:04Z</time>
      </trkpt>
      <trkpt lat="46.76044" lon="5.65651">
        <ele>494.2</ele>
        <time>2020-06-09T10:01:05Z</time>
      </trkpt>
      <trkpt lat="46.76045" lon="5.65655">
        <ele>494.2</ele>
        <time>2020-06-09T10:01:06Z</time>
      </trkpt>
      <trkpt lat="46.76046" lon="5.65659">
        <ele>494.6</ele>
        <time>2020-06-09T10:01:07Z</time>
      </trkpt>
      <trkpt lat="46.76048" lon="5.65663">
        <ele>494.8</ele>
        <time>2020-06-09T10:01:08Z</time>
      </trkpt>
      <trkpt lat="46.7605" lon="5.65667">
        <ele>495</ele>
        <time>2020-06-09T10:01:09Z</time>
      </trkpt>
      <trkpt lat="46.76052" lon="5.65671">
        <ele>495</ele>
        <time>2020-06-09T10:01:10Z</time>
      </trkpt>
      <trkpt lat="46.76053" lon="5.65675">
        <ele>495.4</ele>
        <time>2020-06-09T10:01:11Z</time>
      </trkpt>
      <trkpt lat="46.76055" lon="5.65678">
        <ele>495.4</ele>
        <time>2020-06-09T10:01:12Z</time>
      </trkpt>
      <trkpt lat="46.76056" lon="5.65683">
        <ele>495.8</ele>
        <time>2020-06-09T10:01:13Z</time>
      </trkpt>
      <trkpt lat="46.76058" lon="5.65687">
        <ele>496</ele>
        <time>2020-06-09T10:01:14Z</time>
      </trkpt>
      <trkpt lat="46.7606" lon="5.65691">
        <ele>496</ele>
        <time>2020-06-09T10:01:15Z</time>
      </trkpt>
      <trkpt lat="46.76061" lon="5.65694">
        <ele>496.2</ele>
        <time>2020-06-09T10:01:16Z</time>
      </trkpt>
      <trkpt lat="46.76063" lon="5.65698">
        <ele>496.2</ele>
        <time>2020-06-09T10:01:17Z</time>
      </trkpt>
      <trkpt lat="46.76065" lon="5.65701">
        <ele>496.6</ele>
        <time>2020-06-09T10:01:18Z</time>
      </trkpt>
      <trkpt lat="46.76067" lon="5.65705">
        <ele>496.8</ele>
        <time>2020-06-09T10:01:19Z</time>
      </trkpt>
      <trkpt lat="46.76069" lon="5.65708">
        <ele>496.8</ele>
        <time>2020-06-09T10:01:20Z</time>
      </trkpt>
      <trkpt lat="46.76071" lon="5.65711">
        <ele>497.2</ele>
        <time>2020-06-09T10:01:21Z</time>
      </trkpt>
      <trkpt lat="46.76073" lon="5.65714">
        <ele>497.4</ele>
        <time>2020-06-09T10:01:22Z</time>
      </trkpt>
      <trkpt lat="46.76076" lon="5.65717">
        <ele>497.4</ele>
        <time>2020-06-09T10:01:23Z</time>
      </trkpt>
      <trkpt lat="46.76078" lon="5.6572">
        <ele>497.6</ele>
        <time>2020-06-09T10:01:24Z</time>
      </trkpt>
      <trkpt lat="46.7608" lon="5.65723">
        <ele>497.6</ele>
        <time>2020-06-09T10:01:25Z</time>
      </trkpt>
      <trkpt lat="46.76082" lon="5.65726">
        <ele>498</ele>
        <time>2020-06-09T10:01:26Z</time>
      </trkpt>
      <trkpt lat="46.76084" lon="5.65729">
        <ele>498.2</ele>
        <time>2020-06-09T10:01:27Z</time>
      </trkpt>
      <trkpt lat="46.76086" lon="5.65732">
        <ele>498.2</ele>
        <time>2020-06-09T10:01:28Z</time>
      </trkpt>
      <trkpt lat="46.76088" lon="5.65735">
        <ele>498.6</ele>
        <time>2020-06-09T10:01:29Z</time>
      </trkpt>
      <trkpt lat="46.7609" lon="5.65737">
        <ele>498.6</ele>
        <time>2020-06-09T10:01:30Z</time>
      </trkpt>
      <trkpt lat="46.76092" lon="5.6574">
        <ele>498.8</ele>
        <time>2020-06-09T10:01:31Z</time>
      </trkpt>
      <trkpt lat="46.76094" lon="5.65743">
        <ele>498.8</ele>
        <time>2020-06-09T10:01:32Z</time>
      </trkpt>
      <trkpt lat="46.76096" lon="5.65747">
        <ele>499</ele>
        <time>2020-06-09T10:01:33Z</time>
      </trkpt>
      <trkpt lat="46.76098" lon="5.6575">
        <ele>499.2</ele>
        <time>2020-06-09T10:01:34Z</time>
      </trkpt>
      <trkpt lat="46.761" lon="5.65753">
        <ele>499.2</ele>
        <time>2020-06-09T10:01:35Z</time>
      </trkpt>
      <trkpt lat="46.76102" lon="5.65756">
        <ele>499.6</ele>
        <time>2020-06-09T10:01:36Z</time>
      </trkpt>
      <trkpt lat="46.76104" lon="5.65758">
        <ele>499.6</ele>
        <time>2020-06-09T10:01:37Z</time>
      </trkpt>
      <trkpt lat="46.76106" lon="5.65761">
        <ele>500</ele>
        <time>2020-06-09T10:01:38Z</time>
      </trkpt>
      <trkpt lat="46.76109" lon="5.65764">
        <ele>500</ele>
        <time>2020-06-09T10:01:39Z</time>
      </trkpt>
      <trkpt lat="46.76111" lon="5.65766">
        <ele>500.4</ele>
        <time>2020-06-09T10:01:40Z</time>
      </trkpt>
      <trkpt lat="46.76113" lon="5.65769">
        <ele>500.4</ele>
        <time>2020-06-09T10:01:41Z</time>
      </trkpt>
      <trkpt lat="46.76114" lon="5.65772">
        <ele>500.8</ele>
        <time>2020-06-09T10:01:42Z</time>
      </trkpt>
      <trkpt lat="46.76116" lon="5.65775">
        <ele>500.8</ele>
        <time>2020-06-09T10:01:43Z</time>
      </trkpt>
      <trkpt lat="46.76117" lon="5.65778">
        <ele>501</ele>
        <time>2020-06-09T10:01:44Z</time>
      </trkpt>
      <trkpt lat="46.76119" lon="5.65781">
        <ele>501</ele>
        <time>2020-06-09T10:01:45Z</time>
      </trkpt>
      <trkpt lat="46.76121" lon="5.65783">
        <ele>501.2</ele>
        <time>2020-06-09T10:01:46Z</time>
      </trkpt>
      <trkpt lat="46.76123" lon="5.65786">
        <ele>501.2</ele>
        <time>2020-06-09T10:01:47Z</time>
      </trkpt>
      <trkpt lat="46.76126" lon="5.65789">
        <ele>501.6</ele>
        <time>2020-06-09T10:01:48Z</time>
      </trkpt>
      <trkpt lat="46.76128" lon="5.65792">
        <ele>501.6</ele>
        <time>2020-06-09T10:01:49Z</time>
      </trkpt>
      <trkpt lat="46.76131" lon="5.65795">
        <ele>502</ele>
        <time>2020-06-09T10:01:50Z</time>
      </trkpt>
      <trkpt lat="46.76133" lon="5.65798">
        <ele>502</ele>
        <time>2020-06-09T10:01:51Z</time>
      </trkpt>
      <trkpt lat="46.76136" lon="5.65801">
        <ele>502.4</ele>
        <time>2020-06-09T10:01:52Z</time>
      </trkpt>
      <trkpt lat="46.76139" lon="5.65803">
        <ele>502.4</ele>
        <time>2020-06-09T10:01:53Z</time>
      </trkpt>
      <trkpt lat="46.76141" lon="5.65806">
        <ele>502.8</ele>
        <time>2020-06-09T10:01:54Z</time>
      </trkpt>
      <trkpt lat="46.76144" lon="5.65808">
        <ele>502.8</ele>
        <time>2020-06-09T10:01:55Z</time>
      </trkpt>
      <trkpt lat="46.76146" lon="5.65811">
        <ele>503.2</ele>
        <time>2020-06-09T10:01:56Z</time>
      </trkpt>
      <trkpt lat="46.76149" lon="5.65813">
        <ele>503.2</ele>
        <time>2020-06-09T10:01:57Z</time>
      </trkpt>
      <trkpt lat="46.76151" lon="5.65816">
        <ele>503.6</ele>
        <time>2020-06-09T10:01:58Z</time>
      </trkpt>
      <trkpt lat="46.76153" lon="5.65818">
        <ele>503.8</ele>
        <time>2020-06-09T10:01:59Z</time>
      </trkpt>
      <trkpt lat="46.76155" lon="5.6582">
        <ele>504</ele>
        <time>2020-06-09T10:02:00Z</time>
      </trkpt>
      <trkpt lat="46.76158" lon="5.65823">
        <ele>504</ele>
        <time>2020-06-09T10:02:01Z</time>
      </trkpt>
      <trkpt lat="46.76161" lon="5.65826">
        <ele>504.2</ele>
        <time>2020-06-09T10:02:02Z</time>
      </trkpt>
      <trkpt lat="46.76164" lon="5.65828">
        <ele>504.6</ele>
        <time>2020-06-09T10:02:03Z</time>
      </trkpt>
      <trkpt lat="46.76166" lon="5.65829">
        <ele>504.6</ele>
        <time>2020-06-09T10:02:04Z</time>
      </trkpt>
      <trkpt lat="46.76168" lon="5.65831">
        <ele>504.8</ele>
        <time>2020-06-09T10:02:05Z</time>
      </trkpt>
      <trkpt lat="46.7617" lon="5.65833">
        <ele>505.2</ele>
        <time>2020-06-09T10:02:06Z</time>
      </trkpt>
      <trkpt lat="46.76172" lon="5.65835">
        <ele>505.2</ele>
        <time>2020-06-09T10:02:07Z</time>
      </trkpt>
      <trkpt lat="46.76175" lon="5.65836">
        <ele>505.4</ele>
        <time>2020-06-09T10:02:08Z</time>
      </trkpt>
      <trkpt lat="46.76177" lon="5.65838">
        <ele>505.8</ele>
        <time>2020-06-09T10:02:09Z</time>
      </trkpt>
      <trkpt lat="46.76179" lon="5.6584">
        <ele>505.8</ele>
        <time>2020-06-09T10:02:10Z</time>
      </trkpt>
      <trkpt lat="46.76181" lon="5.6584">
        <ele>506.2</ele>
        <time>2020-06-09T10:02:11Z</time>
      </trkpt>
      <trkpt lat="46.76183" lon="5.65842">
        <ele>506.2</ele>
        <time>2020-06-09T10:02:12Z</time>
      </trkpt>
      <trkpt lat="46.76186" lon="5.65843">
        <ele>506.4</ele>
        <time>2020-06-09T10:02:13Z</time>
      </trkpt>
      <trkpt lat="46.76189" lon="5.65845">
        <ele>506.4</ele>
        <time>2020-06-09T10:02:14Z</time>
      </trkpt>
      <trkpt lat="46.76193" lon="5.65846">
        <ele>506.6</ele>
        <time>2020-06-09T10:02:15Z</time>
      </trkpt>
      <trkpt lat="46.76196" lon="5.65848">
        <ele>506.6</ele>
        <time>2020-06-09T10:02:16Z</time>
      </trkpt>
      <trkpt lat="46.76198" lon="5.65851">
        <ele>507</ele>
        <time>2020-06-09T10:02:17Z</time>
      </trkpt>
      <trkpt lat="46.76201" lon="5.65853">
        <ele>507</ele>
        <time>2020-06-09T10:02:18Z</time>
      </trkpt>
      <trkpt lat="46.76203" lon="5.65855">
        <ele>507.4</ele>
        <time>2020-06-09T10:02:19Z</time>
      </trkpt>
      <trkpt lat="46.76206" lon="5.65857">
        <ele>507.4</ele>
        <time>2020-06-09T10:02:20Z</time>
      </trkpt>
      <trkpt lat="46.76208" lon="5.65861">
        <ele>507.6</ele>
        <time>2020-06-09T10:02:21Z</time>
      </trkpt>
      <trkpt lat="46.76211" lon="5.65864">
        <ele>507.6</ele>
        <time>2020-06-09T10:02:22Z</time>
      </trkpt>
      <trkpt lat="46.76213" lon="5.65867">
        <ele>508</ele>
        <time>2020-06-09T10:02:23Z</time>
      </trkpt>
      <trkpt lat="46.76215" lon="5.6587">
        <ele>508.2</ele>
        <time>2020-06-09T10:02:24Z</time>
      </trkpt>
      <trkpt lat="46.76218" lon="5.65874">
        <ele>508.2</ele>
        <time>2020-06-09T10:02:25Z</time>
      </trkpt>
      <trkpt lat="46.76219" lon="5.65878">
        <ele>508.4</ele>
        <time>2020-06-09T10:02:26Z</time>
      </trkpt>
      <trkpt lat="46.76221" lon="5.65881">
        <ele>508.4</ele>
        <time>2020-06-09T10:02:27Z</time>
      </trkpt>
      <trkpt lat="46.76223" lon="5.65885">
        <ele>508.8</ele>
        <time>2020-06-09T10:02:28Z</time>
      </trkpt>
      <trkpt lat="46.76224" lon="5.65889">
        <ele>508.8</ele>
        <time>2020-06-09T10:02:29Z</time>
      </trkpt>
      <trkpt lat="46.76226" lon="5.65892">
        <ele>509</ele>
        <time>2020-06-09T10:02:30Z</time>
      </trkpt>
      <trkpt lat="46.76228" lon="5.65895">
        <ele>509</ele>
        <time>2020-06-09T10:02:31Z</time>
      </trkpt>
      <trkpt lat="46.7623" lon="5.65899">
        <ele>509.4</ele>
        <time>2020-06-09T10:02:32Z</time>
      </trkpt>
      <trkpt lat="46.76232" lon="5.65903">
        <ele>509.8</ele>
        <time>2020-06-09T10:02:33Z</time>
      </trkpt>
      <trkpt lat="46.76234" lon="5.65906">
        <ele>509.8</ele>
        <time>2020-06-09T10:02:34Z</time>
      </trkpt>
      <trkpt lat="46.76236" lon="5.6591">
        <ele>510</ele>
        <time>2020-06-09T10:02:35Z</time>
      </trkpt>
      <trkpt lat="46.76239" lon="5.65913">
        <ele>510</ele>
        <time>2020-06-09T10:02:36Z</time>
      </trkpt>
      <trkpt lat="46.76242" lon="5.65915">
        <ele>510.2</ele>
        <time>2020-06-09T10:02:37Z</time>
      </trkpt>
      <trkpt lat="46.76245" lon="5.65919">
        <ele>510.2</ele>
        <time>2020-06-09T10:02:38Z</time>
      </trkpt>
      <trkpt lat="46.76247" lon="5.65922">
        <ele>510.6</ele>
        <time>2020-06-09T10:02:39Z</time>
      </trkpt>
      <trkpt lat="46.7625" lon="5.65927">
        <ele>510.6</ele>
        <time>2020-06-09T10:02:40Z</time>
      </trkpt>
      <trkpt lat="46.76253" lon="5.6593">
        <ele>511</ele>
        <time>2020-06-09T10:02:41Z</time>
      </trkpt>
      <trkpt lat="46.76255" lon="5.65934">
        <ele>511</ele>
        <time>2020-06-09T10:02:42Z</time>
      </trkpt>
      <trkpt lat="46.76257" lon="5.65937">
        <ele>511.4</ele>
        <time>2020-06-09T10:02:43Z</time>
      </trkpt>
      <trkpt lat="46.7626" lon="5.6594">
        <ele>511.4</ele>
        <time>2020-06-09T10:02:44Z</time>
      </trkpt>
      <trkpt lat="46.76262" lon="5.65943">
        <ele>511.6</ele>
        <time>2020-06-09T10:02:45Z</time>
      </trkpt>
      <trkpt lat="46.76264" lon="5.65946">
        <ele>511.6</ele>
        <time>2020-06-09T10:02:46Z</time>
      </trkpt>
      <trkpt lat="46.76266" lon="5.65949">
        <ele>512</ele>
        <time>2020-06-09T10:02:47Z</time>
      </trkpt>
      <trkpt lat="46.76269" lon="5.65954">
        <ele>512</ele>
        <time>2020-06-09T10:02:48Z</time>
      </trkpt>
      <trkpt lat="46.76271" lon="5.65957">
        <ele>512.2</ele>
        <time>2020-06-09T10:02:49Z</time>
      </trkpt>
      <trkpt lat="46.76273" lon="5.65962">
        <ele>512.2</ele>
        <time>2020-06-09T10:02:50Z</time>
      </trkpt>
      <trkpt lat="46.76275" lon="5.65965">
        <ele>512.6</ele>
        <time>2020-06-09T10:02:51Z</time>
      </trkpt>
      <trkpt lat="46.76277" lon="5.65969">
        <ele>512.6</ele>
        <time>2020-06-09T10:02:52Z</time>
      </trkpt>
      <trkpt lat="46.76279" lon="5.65972">
        <ele>513</ele>
        <time>2020-06-09T10:02:53Z</time>
      </trkpt>
      <trkpt lat="46.76281" lon="5.65975">
        <ele>513</ele>
        <time>2020-06-09T10:02:54Z</time>
      </trkpt>
      <trkpt lat="46.76283" lon="5.65979">
        <ele>513.2</ele>
        <time>2020-06-09T10:02:55Z</time>
      </trkpt>
      <trkpt lat="46.76285" lon="5.65982">
        <ele>513.2</ele>
        <time>2020-06-09T10:02:56Z</time>
      </trkpt>
      <trkpt lat="46.76287" lon="5.65985">
        <ele>513.6</ele>
        <time>2020-06-09T10:02:57Z</time>
      </trkpt>
      <trkpt lat="46.76289" lon="5.65988">
        <ele>513.6</ele>
        <time>2020-06-09T10:02:58Z</time>
      </trkpt>
      <trkpt lat="46.76291" lon="5.65992">
        <ele>514</ele>
        <time>2020-06-09T10:02:59Z</time>
      </trkpt>
      <trkpt lat="46.76293" lon="5.65995">
        <ele>514.2</ele>
        <time>2020-06-09T10:03:00Z</time>
      </trkpt>
      <trkpt lat="46.76296" lon="5.65998">
        <ele>514.4</ele>
        <time>2020-06-09T10:03:01Z</time>
      </trkpt>
      <trkpt lat="46.76298" lon="5.66002">
        <ele>514.4</ele>
        <time>2020-06-09T10:03:02Z</time>
      </trkpt>
      <trkpt lat="46.763" lon="5.66005">
        <ele>514.8</ele>
        <time>2020-06-09T10:03:03Z</time>
      </trkpt>
      <trkpt lat="46.76302" lon="5.66008">
        <ele>514.8</ele>
        <time>2020-06-09T10:03:04Z</time>
      </trkpt>
      <trkpt lat="46.76305" lon="5.66011">
        <ele>515.2</ele>
        <time>2020-06-09T10:03:05Z</time>
      </trkpt>
      <trkpt lat="46.76307" lon="5.66014">
        <ele>515.2</ele>
        <time>2020-06-09T10:03:06Z</time>
      </trkpt>
      <trkpt lat="46.76309" lon="5.66017">
        <ele>515.4</ele>
        <time>2020-06-09T10:03:07Z</time>
      </trkpt>
      <trkpt lat="46.76311" lon="5.6602">
        <ele>515.4</ele>
        <time>2020-06-09T10:03:08Z</time>
      </trkpt>
      <trkpt lat="46.76313" lon="5.66023">
        <ele>515.6</ele>
        <time>2020-06-09T10:03:09Z</time>
      </trkpt>
      <trkpt lat="46.76315" lon="5.66026">
        <ele>515.6</ele>
        <time>2020-06-09T10:03:10Z</time>
      </trkpt>
      <trkpt lat="46.76317" lon="5.66029">
        <ele>515.8</ele>
        <time>2020-06-09T10:03:11Z</time>
      </trkpt>
      <trkpt lat="46.76319" lon="5.66032">
        <ele>515.8</ele>
        <time>2020-06-09T10:03:12Z</time>
      </trkpt>
      <trkpt lat="46.76321" lon="5.66035">
        <ele>516.2</ele>
        <time>2020-06-09T10:03:13Z</time>
      </trkpt>
      <trkpt lat="46.76322" lon="5.66038">
        <ele>516.2</ele>
        <time>2020-06-09T10:03:14Z</time>
      </trkpt>
      <trkpt lat="46.76324" lon="5.6604">
        <ele>516.6</ele>
        <time>2020-06-09T10:03:15Z</time>
      </trkpt>
      <trkpt lat="46.76326" lon="5.66043">
        <ele>516.6</ele>
        <time>2020-06-09T10:03:16Z</time>
      </trkpt>
      <trkpt lat="46.76328" lon="5.66046">
        <ele>517</ele>
        <time>2020-06-09T10:03:17Z</time>
      </trkpt>
      <trkpt lat="46.76331" lon="5.6605">
        <ele>517</ele>
        <time>2020-06-09T10:03:18Z</time>
      </trkpt>
      <trkpt lat="46.76334" lon="5.66053">
        <ele>517.2</ele>
        <time>2020-06-09T10:03:19Z</time>
      </trkpt>
      <trkpt lat="46.76336" lon="5.66056">
        <ele>517.4</ele>
        <time>2020-06-09T10:03:20Z</time>
      </trkpt>
      <trkpt lat="46.76339" lon="5.66059">
        <ele>517.4</ele>
        <time>2020-06-09T10:03:21Z</time>
      </trkpt>
      <trkpt lat="46.76342" lon="5.66062">
        <ele>517.8</ele>
        <time>2020-06-09T10:03:22Z</time>
      </trkpt>
      <trkpt lat="46.76343" lon="5.66065">
        <ele>518</ele>
        <time>2020-06-09T10:03:23Z</time>
      </trkpt>
      <trkpt lat="46.76345" lon="5.66067">
        <ele>518.2</ele>
        <time>2020-06-09T10:03:24Z</time>
      </trkpt>
      <trkpt lat="46.76348" lon="5.6607">
        <ele>518.4</ele>
        <time>2020-06-09T10:03:25Z</time>
      </trkpt>
      <trkpt lat="46.7635" lon="5.66073">
        <ele>518.4</ele>
        <time>2020-06-09T10:03:26Z</time>
      </trkpt>
      <trkpt lat="46.76353" lon="5.66076">
        <ele>518.8</ele>
        <time>2020-06-09T10:03:27Z</time>
      </trkpt>
      <trkpt lat="46.76356" lon="5.6608">
        <ele>518.8</ele>
        <time>2020-06-09T10:03:28Z</time>
      </trkpt>
      <trkpt lat="46.76358" lon="5.66084">
        <ele>519.2</ele>
        <time>2020-06-09T10:03:29Z</time>
      </trkpt>
      <trkpt lat="46.76361" lon="5.66087">
        <ele>519.2</ele>
        <time>2020-06-09T10:03:30Z</time>
      </trkpt>
      <trkpt lat="46.76363" lon="5.66091">
        <ele>519.6</ele>
        <time>2020-06-09T10:03:31Z</time>
      </trkpt>
      <trkpt lat="46.76366" lon="5.66095">
        <ele>519.8</ele>
        <time>2020-06-09T10:03:32Z</time>
      </trkpt>
      <trkpt lat="46.76368" lon="5.66099">
        <ele>520.2</ele>
        <time>2020-06-09T10:03:33Z</time>
      </trkpt>
      <trkpt lat="46.7637" lon="5.66102">
        <ele>520.4</ele>
        <time>2020-06-09T10:03:34Z</time>
      </trkpt>
      <trkpt lat="46.76372" lon="5.66106">
        <ele>520.6</ele>
        <time>2020-06-09T10:03:35Z</time>
      </trkpt>
      <trkpt lat="46.76375" lon="5.6611">
        <ele>520.8</ele>
        <time>2020-06-09T10:03:36Z</time>
      </trkpt>
      <trkpt lat="46.76377" lon="5.66114">
        <ele>520.8</ele>
        <time>2020-06-09T10:03:37Z</time>
      </trkpt>
      <trkpt lat="46.7638" lon="5.66117">
        <ele>521</ele>
        <time>2020-06-09T10:03:38Z</time>
      </trkpt>
      <trkpt lat="46.76383" lon="5.66119">
        <ele>521.4</ele>
        <time>2020-06-09T10:03:39Z</time>
      </trkpt>
      <trkpt lat="46.76387" lon="5.66122">
        <ele>521.6</ele>
        <time>2020-06-09T10:03:40Z</time>
      </trkpt>
      <trkpt lat="46.76389" lon="5.66126">
        <ele>521.8</ele>
        <time>2020-06-09T10:03:41Z</time>
      </trkpt>
      <trkpt lat="46.76391" lon="5.6613">
        <ele>521.8</ele>
        <time>2020-06-09T10:03:42Z</time>
      </trkpt>
      <trkpt lat="46.76394" lon="5.66134">
        <ele>522.2</ele>
        <time>2020-06-09T10:03:43Z</time>
      </trkpt>
      <trkpt lat="46.76396" lon="5.66138">
        <ele>522.2</ele>
        <time>2020-06-09T10:03:44Z</time>
      </trkpt>
      <trkpt lat="46.76398" lon="5.66141">
        <ele>522.6</ele>
        <time>2020-06-09T10:03:45Z</time>
      </trkpt>
      <trkpt lat="46.764" lon="5.66145">
        <ele>522.8</ele>
        <time>2020-06-09T10:03:46Z</time>
      </trkpt>
      <trkpt lat="46.76402" lon="5.66148">
        <ele>523</ele>
        <time>2020-06-09T10:03:47Z</time>
      </trkpt>
      <trkpt lat="46.76404" lon="5.66152">
        <ele>523</ele>
        <time>2020-06-09T10:03:48Z</time>
      </trkpt>
      <trkpt lat="46.76407" lon="5.66154">
        <ele>523.2</ele>
        <time>2020-06-09T10:03:49Z</time>
      </trkpt>
      <trkpt lat="46.7641" lon="5.66158">
        <ele>523.4</ele>
        <time>2020-06-09T10:03:50Z</time>
      </trkpt>
      <trkpt lat="46.76412" lon="5.66162">
        <ele>523.4</ele>
        <time>2020-06-09T10:03:51Z</time>
      </trkpt>
      <trkpt lat="46.76414" lon="5.66166">
        <ele>523.6</ele>
        <time>2020-06-09T10:03:52Z</time>
      </trkpt>
      <trkpt lat="46.76416" lon="5.6617">
        <ele>523.8</ele>
        <time>2020-06-09T10:03:53Z</time>
      </trkpt>
      <trkpt lat="46.76419" lon="5.66174">
        <ele>523.8</ele>
        <time>2020-06-09T10:03:54Z</time>
      </trkpt>
      <trkpt lat="46.76422" lon="5.66177">
        <ele>524.2</ele>
        <time>2020-06-09T10:03:55Z</time>
      </trkpt>
      <trkpt lat="46.76425" lon="5.66181">
        <ele>524.2</ele>
        <time>2020-06-09T10:03:56Z</time>
      </trkpt>
      <trkpt lat="46.76428" lon="5.66183">
        <ele>524.6</ele>
        <time>2020-06-09T10:03:57Z</time>
      </trkpt>
      <trkpt lat="46.76431" lon="5.66186">
        <ele>524.8</ele>
        <time>2020-06-09T10:03:58Z</time>
      </trkpt>
      <trkpt lat="46.76433" lon="5.66189">
        <ele>524.8</ele>
        <time>2020-06-09T10:03:59Z</time>
      </trkpt>
      <trkpt lat="46.76435" lon="5.66192">
        <ele>525.2</ele>
        <time>2020-06-09T10:04:00Z</time>
      </trkpt>
      <trkpt lat="46.76438" lon="5.66196">
        <ele>525.4</ele>
        <time>2020-06-09T10:04:01Z</time>
      </trkpt>
      <trkpt lat="46.76441" lon="5.66198">
        <ele>525.6</ele>
        <time>2020-06-09T10:04:02Z</time>
      </trkpt>
      <trkpt lat="46.76443" lon="5.66201">
        <ele>525.6</ele>
        <time>2020-06-09T10:04:03Z</time>
      </trkpt>
      <trkpt lat="46.76445" lon="5.66204">
        <ele>526</ele>
        <time>2020-06-09T10:04:04Z</time>
      </trkpt>
      <trkpt lat="46.76448" lon="5.66208">
        <ele>526</ele>
        <time>2020-06-09T10:04:05Z</time>
      </trkpt>
      <trkpt lat="46.7645" lon="5.66212">
        <ele>526.2</ele>
        <time>2020-06-09T10:04:06Z</time>
      </trkpt>
      <trkpt lat="46.76452" lon="5.66215">
        <ele>526.2</ele>
        <time>2020-06-09T10:04:07Z</time>
      </trkpt>
      <trkpt lat="46.76455" lon="5.66218">
        <ele>526.6</ele>
        <time>2020-06-09T10:04:08Z</time>
      </trkpt>
      <trkpt lat="46.76457" lon="5.66221">
        <ele>526.8</ele>
        <time>2020-06-09T10:04:09Z</time>
      </trkpt>
      <trkpt lat="46.7646" lon="5.66225">
        <ele>526.8</ele>
        <time>2020-06-09T10:04:10Z</time>
      </trkpt>
      <trkpt lat="46.76463" lon="5.66228">
        <ele>527</ele>
        <time>2020-06-09T10:04:11Z</time>
      </trkpt>
      <trkpt lat="46.76465" lon="5.66232">
        <ele>527.2</ele>
        <time>2020-06-09T10:04:12Z</time>
      </trkpt>
      <trkpt lat="46.76467" lon="5.66234">
        <ele>527.2</ele>
        <time>2020-06-09T10:04:13Z</time>
      </trkpt>
      <trkpt lat="46.7647" lon="5.66238">
        <ele>527.6</ele>
        <time>2020-06-09T10:04:14Z</time>
      </trkpt>
      <trkpt lat="46.76473" lon="5.66242">
        <ele>527.8</ele>
        <time>2020-06-09T10:04:15Z</time>
      </trkpt>
      <trkpt lat="46.76475" lon="5.66245">
        <ele>527.8</ele>
        <time>2020-06-09T10:04:16Z</time>
      </trkpt>
      <trkpt lat="46.76477" lon="5.66249">
        <ele>528.2</ele>
        <time>2020-06-09T10:04:17Z</time>
      </trkpt>
      <trkpt lat="46.7648" lon="5.66253">
        <ele>528.2</ele>
        <time>2020-06-09T10:04:18Z</time>
      </trkpt>
      <trkpt lat="46.76482" lon="5.66256">
        <ele>528.6</ele>
        <time>2020-06-09T10:04:19Z</time>
      </trkpt>
      <trkpt lat="46.76485" lon="5.66259">
        <ele>528.6</ele>
        <time>2020-06-09T10:04:20Z</time>
      </trkpt>
      <trkpt lat="46.76487" lon="5.66262">
        <ele>528.8</ele>
        <time>2020-06-09T10:04:21Z</time>
      </trkpt>
      <trkpt lat="46.76489" lon="5.66266">
        <ele>528.8</ele>
        <time>2020-06-09T10:04:22Z</time>
      </trkpt>
      <trkpt lat="46.76491" lon="5.66268">
        <ele>529.2</ele>
        <time>2020-06-09T10:04:23Z</time>
      </trkpt>
      <trkpt lat="46.76493" lon="5.66271">
        <ele>529.2</ele>
        <time>2020-06-09T10:04:24Z</time>
      </trkpt>
      <trkpt lat="46.76495" lon="5.66274">
        <ele>529.6</ele>
        <time>2020-06-09T10:04:25Z</time>
      </trkpt>
      <trkpt lat="46.76497" lon="5.66277">
        <ele>529.6</ele>
        <time>2020-06-09T10:04:26Z</time>
      </trkpt>
      <trkpt lat="46.76499" lon="5.6628">
        <ele>529.8</ele>
        <time>2020-06-09T10:04:27Z</time>
      </trkpt>
      <trkpt lat="46.76501" lon="5.66282">
        <ele>529.8</ele>
        <time>2020-06-09T10:04:28Z</time>
      </trkpt>
      <trkpt lat="46.76502" lon="5.66285">
        <ele>530.2</ele>
        <time>2020-06-09T10:04:29Z</time>
      </trkpt>
      <trkpt lat="46.76504" lon="5.66289">
        <ele>530.2</ele>
        <time>2020-06-09T10:04:30Z</time>
      </trkpt>
      <trkpt lat="46.76507" lon="5.66292">
        <ele>530.4</ele>
        <time>2020-06-09T10:04:31Z</time>
      </trkpt>
      <trkpt lat="46.76508" lon="5.66296">
        <ele>530.4</ele>
        <time>2020-06-09T10:04:32Z</time>
      </trkpt>
      <trkpt lat="46.7651" lon="5.663">
        <ele>530.8</ele>
        <time>2020-06-09T10:04:33Z</time>
      </trkpt>
      <trkpt lat="46.76512" lon="5.66303">
        <ele>531</ele>
        <time>2020-06-09T10:04:34Z</time>
      </trkpt>
      <trkpt lat="46.76514" lon="5.66306">
        <ele>531</ele>
        <time>2020-06-09T10:04:35Z</time>
      </trkpt>
      <trkpt lat="46.76516" lon="5.6631">
        <ele>531.4</ele>
        <time>2020-06-09T10:04:36Z</time>
      </trkpt>
      <trkpt lat="46.76518" lon="5.66313">
        <ele>531.4</ele>
        <time>2020-06-09T10:04:37Z</time>
      </trkpt>
      <trkpt lat="46.7652" lon="5.66317">
        <ele>531.6</ele>
        <time>2020-06-09T10:04:38Z</time>
      </trkpt>
      <trkpt lat="46.76523" lon="5.6632">
        <ele>531.8</ele>
        <time>2020-06-09T10:04:39Z</time>
      </trkpt>
      <trkpt lat="46.76525" lon="5.66324">
        <ele>531.8</ele>
        <time>2020-06-09T10:04:40Z</time>
      </trkpt>
      <trkpt lat="46.76527" lon="5.66328">
        <ele>532.2</ele>
        <time>2020-06-09T10:04:41Z</time>
      </trkpt>
      <trkpt lat="46.76528" lon="5.66332">
        <ele>532.4</ele>
        <time>2020-06-09T10:04:42Z</time>
      </trkpt>
      <trkpt lat="46.76531" lon="5.66336">
        <ele>532.6</ele>
        <time>2020-06-09T10:04:43Z</time>
      </trkpt>
      <trkpt lat="46.76533" lon="5.66339">
        <ele>532.6</ele>
        <time>2020-06-09T10:04:44Z</time>
      </trkpt>
      <trkpt lat="46.76535" lon="5.66342">
        <ele>533</ele>
        <time>2020-06-09T10:04:45Z</time>
      </trkpt>
      <trkpt lat="46.76537" lon="5.66345">
        <ele>533</ele>
        <time>2020-06-09T10:04:46Z</time>
      </trkpt>
      <trkpt lat="46.7654" lon="5.66348">
        <ele>533.2</ele>
        <time>2020-06-09T10:04:47Z</time>
      </trkpt>
      <trkpt lat="46.76542" lon="5.66351">
        <ele>533.2</ele>
        <time>2020-06-09T10:04:48Z</time>
      </trkpt>
      <trkpt lat="46.76545" lon="5.66354">
        <ele>533.6</ele>
        <time>2020-06-09T10:04:49Z</time>
      </trkpt>
      <trkpt lat="46.76547" lon="5.66358">
        <ele>533.8</ele>
        <time>2020-06-09T10:04:50Z</time>
      </trkpt>
      <trkpt lat="46.76549" lon="5.66361">
        <ele>533.8</ele>
        <time>2020-06-09T10:04:51Z</time>
      </trkpt>
      <trkpt lat="46.76552" lon="5.66365">
        <ele>534.2</ele>
        <time>2020-06-09T10:04:52Z</time>
      </trkpt>
      <trkpt lat="46.76554" lon="5.66369">
        <ele>534.4</ele>
        <time>2020-06-09T10:04:53Z</time>
      </trkpt>
      <trkpt lat="46.76556" lon="5.66372">
        <ele>534.4</ele>
        <time>2020-06-09T10:04:54Z</time>
      </trkpt>
      <trkpt lat="46.76557" lon="5.66376">
        <ele>534.6</ele>
        <time>2020-06-09T10:04:55Z</time>
      </trkpt>
      <trkpt lat="46.76559" lon="5.6638">
        <ele>534.6</ele>
        <time>2020-06-09T10:04:56Z</time>
      </trkpt>
      <trkpt lat="46.76561" lon="5.66384">
        <ele>535</ele>
        <time>2020-06-09T10:04:57Z</time>
      </trkpt>
      <trkpt lat="46.76563" lon="5.66388">
        <ele>535</ele>
        <time>2020-06-09T10:04:58Z</time>
      </trkpt>
      <trkpt lat="46.76565" lon="5.66391">
        <ele>535.2</ele>
        <time>2020-06-09T10:04:59Z</time>
      </trkpt>
      <trkpt lat="46.76567" lon="5.66394">
        <ele>535.4</ele>
        <time>2020-06-09T10:05:00Z</time>
      </trkpt>
      <trkpt lat="46.76568" lon="5.66398">
        <ele>535.4</ele>
        <time>2020-06-09T10:05:01Z</time>
      </trkpt>
      <trkpt lat="46.7657" lon="5.66401">
        <ele>535.8</ele>
        <time>2020-06-09T10:05:02Z</time>
      </trkpt>
      <trkpt lat="46.76572" lon="5.66405">
        <ele>535.8</ele>
        <time>2020-06-09T10:05:03Z</time>
      </trkpt>
      <trkpt lat="46.76575" lon="5.66408">
        <ele>536.2</ele>
        <time>2020-06-09T10:05:04Z</time>
      </trkpt>
      <trkpt lat="46.76577" lon="5.66412">
        <ele>536.2</ele>
        <time>2020-06-09T10:05:05Z</time>
      </trkpt>
      <trkpt lat="46.7658" lon="5.66415">
        <ele>536.4</ele>
        <time>2020-06-09T10:05:06Z</time>
      </trkpt>
      <trkpt lat="46.76582" lon="5.66419">
        <ele>536.4</ele>
        <time>2020-06-09T10:05:07Z</time>
      </trkpt>
      <trkpt lat="46.76584" lon="5.66422">
        <ele>536.6</ele>
        <time>2020-06-09T10:05:08Z</time>
      </trkpt>
      <trkpt lat="46.76586" lon="5.66425">
        <ele>536.6</ele>
        <time>2020-06-09T10:05:09Z</time>
      </trkpt>
      <trkpt lat="46.76589" lon="5.66428">
        <ele>537</ele>
        <time>2020-06-09T10:05:10Z</time>
      </trkpt>
      <trkpt lat="46.76591" lon="5.66431">
        <ele>537</ele>
        <time>2020-06-09T10:05:11Z</time>
      </trkpt>
      <trkpt lat="46.76594" lon="5.66434">
        <ele>537.4</ele>
        <time>2020-06-09T10:05:12Z</time>
      </trkpt>
      <trkpt lat="46.76596" lon="5.66437">
        <ele>537.4</ele>
        <time>2020-06-09T10:05:13Z</time>
      </trkpt>
      <trkpt lat="46.76598" lon="5.6644">
        <ele>537.6</ele>
        <time>2020-06-09T10:05:14Z</time>
      </trkpt>
      <trkpt lat="46.766" lon="5.66442">
        <ele>537.6</ele>
        <time>2020-06-09T10:05:15Z</time>
      </trkpt>
      <trkpt lat="46.76602" lon="5.66446">
        <ele>538</ele>
        <time>2020-06-09T10:05:16Z</time>
      </trkpt>
      <trkpt lat="46.76604" lon="5.66449">
        <ele>538</ele>
        <time>2020-06-09T10:05:17Z</time>
      </trkpt>
      <trkpt lat="46.76607" lon="5.66452">
        <ele>538.4</ele>
        <time>2020-06-09T10:05:18Z</time>
      </trkpt>
      <trkpt lat="46.7661" lon="5.66455">
        <ele>538.4</ele>
        <time>2020-06-09T10:05:19Z</time>
      </trkpt>
      <trkpt lat="46.76612" lon="5.66459">
        <ele>538.8</ele>
        <time>2020-06-09T10:05:20Z</time>
      </trkpt>
      <trkpt lat="46.76614" lon="5.66462">
        <ele>538.8</ele>
        <time>2020-06-09T10:05:21Z</time>
      </trkpt>
      <trkpt lat="46.76616" lon="5.66466">
        <ele>539</ele>
        <time>2020-06-09T10:05:22Z</time>
      </trkpt>
      <trkpt lat="46.76619" lon="5.6647">
        <ele>539.4</ele>
        <time>2020-06-09T10:05:23Z</time>
      </trkpt>
      <trkpt lat="46.76621" lon="5.66475">
        <ele>539.6</ele>
        <time>2020-06-09T10:05:24Z</time>
      </trkpt>
      <trkpt lat="46.76623" lon="5.66479">
        <ele>539.6</ele>
        <time>2020-06-09T10:05:25Z</time>
      </trkpt>
      <trkpt lat="46.76625" lon="5.66483">
        <ele>539.8</ele>
        <time>2020-06-09T10:05:26Z</time>
      </trkpt>
      <trkpt lat="46.76626" lon="5.66487">
        <ele>539.8</ele>
        <time>2020-06-09T10:05:27Z</time>
      </trkpt>
      <trkpt lat="46.76628" lon="5.66492">
        <ele>540.2</ele>
        <time>2020-06-09T10:05:28Z</time>
      </trkpt>
      <trkpt lat="46.76629" lon="5.66496">
        <ele>540.2</ele>
        <time>2020-06-09T10:05:29Z</time>
      </trkpt>
      <trkpt lat="46.76632" lon="5.66498">
        <ele>540.4</ele>
        <time>2020-06-09T10:05:30Z</time>
      </trkpt>
      <trkpt lat="46.76633" lon="5.66502">
        <ele>540.4</ele>
        <time>2020-06-09T10:05:31Z</time>
      </trkpt>
      <trkpt lat="46.76634" lon="5.66504">
        <ele>540.4</ele>
        <time>2020-06-09T10:05:32Z</time>
      </trkpt>
      <trkpt lat="46.76634" lon="5.66508">
        <ele>540.6</ele>
        <time>2020-06-09T10:05:33Z</time>
      </trkpt>
      <trkpt lat="46.76635" lon="5.66512">
        <ele>540.8</ele>
        <time>2020-06-09T10:05:34Z</time>
      </trkpt>
      <trkpt lat="46.76634" lon="5.66517">
        <ele>541.2</ele>
        <time>2020-06-09T10:05:35Z</time>
      </trkpt>
      <trkpt lat="46.76633" lon="5.66522">
        <ele>541.2</ele>
        <time>2020-06-09T10:05:36Z</time>
      </trkpt>
      <trkpt lat="46.76632" lon="5.66527">
        <ele>541.4</ele>
        <time>2020-06-09T10:05:37Z</time>
      </trkpt>
      <trkpt lat="46.76632" lon="5.66532">
        <ele>541.4</ele>
        <time>2020-06-09T10:05:38Z</time>
      </trkpt>
      <trkpt lat="46.76631" lon="5.66537">
        <ele>541.8</ele>
        <time>2020-06-09T10:05:39Z</time>
      </trkpt>
      <trkpt lat="46.76631" lon="5.66541">
        <ele>541.8</ele>
        <time>2020-06-09T10:05:40Z</time>
      </trkpt>
      <trkpt lat="46.7663" lon="5.66545">
        <ele>542.2</ele>
        <time>2020-06-09T10:05:41Z</time>
      </trkpt>
      <trkpt lat="46.76629" lon="5.66549">
        <ele>542.4</ele>
        <time>2020-06-09T10:05:42Z</time>
      </trkpt>
      <trkpt lat="46.76629" lon="5.66553">
        <ele>542.8</ele>
        <time>2020-06-09T10:05:43Z</time>
      </trkpt>
      <trkpt lat="46.76628" lon="5.66558">
        <ele>542.8</ele>
        <time>2020-06-09T10:05:44Z</time>
      </trkpt>
      <trkpt lat="46.76627" lon="5.66562">
        <ele>543</ele>
        <time>2020-06-09T10:05:45Z</time>
      </trkpt>
      <trkpt lat="46.76626" lon="5.66566">
        <ele>543.2</ele>
        <time>2020-06-09T10:05:46Z</time>
      </trkpt>
      <trkpt lat="46.76625" lon="5.66569">
        <ele>543.4</ele>
        <time>2020-06-09T10:05:47Z</time>
      </trkpt>
      <trkpt lat="46.76624" lon="5.66572">
        <ele>543.6</ele>
        <time>2020-06-09T10:05:48Z</time>
      </trkpt>
      <trkpt lat="46.76622" lon="5.66575">
        <ele>544</ele>
        <time>2020-06-09T10:05:49Z</time>
      </trkpt>
      <trkpt lat="46.76621" lon="5.66578">
        <ele>544</ele>
        <time>2020-06-09T10:05:50Z</time>
      </trkpt>
      <trkpt lat="46.7662" lon="5.6658">
        <ele>544.4</ele>
        <time>2020-06-09T10:05:51Z</time>
      </trkpt>
      <trkpt lat="46.76618" lon="5.66582">
        <ele>544.4</ele>
        <time>2020-06-09T10:05:52Z</time>
      </trkpt>
      <trkpt lat="46.76617" lon="5.66584">
        <ele>544.6</ele>
        <time>2020-06-09T10:05:53Z</time>
      </trkpt>
      <trkpt lat="46.76616" lon="5.66585">
        <ele>544.6</ele>
        <time>2020-06-09T10:05:54Z</time>
      </trkpt>
      <trkpt lat="46.76615" lon="5.66586">
        <ele>545</ele>
        <time>2020-06-09T10:05:55Z</time>
      </trkpt>
      <trkpt lat="46.76613" lon="5.66588">
        <ele>545</ele>
        <time>2020-06-09T10:05:56Z</time>
      </trkpt>
      <trkpt lat="46.76611" lon="5.66589">
        <ele>545.4</ele>
        <time>2020-06-09T10:05:57Z</time>
      </trkpt>
      <trkpt lat="46.76609" lon="5.6659">
        <ele>545.4</ele>
        <time>2020-06-09T10:05:58Z</time>
      </trkpt>
      <trkpt lat="46.76607" lon="5.66592">
        <ele>545.8</ele>
        <time>2020-06-09T10:05:59Z</time>
      </trkpt>
      <trkpt lat="46.76606" lon="5.66593">
        <ele>545.8</ele>
        <time>2020-06-09T10:06:00Z</time>
      </trkpt>
      <trkpt lat="46.76605" lon="5.66595">
        <ele>546</ele>
        <time>2020-06-09T10:06:01Z</time>
      </trkpt>
      <trkpt lat="46.76603" lon="5.66599">
        <ele>546.2</ele>
        <time>2020-06-09T10:06:02Z</time>
      </trkpt>
      <trkpt lat="46.76601" lon="5.66602">
        <ele>546.2</ele>
        <time>2020-06-09T10:06:03Z</time>
      </trkpt>
      <trkpt lat="46.76599" lon="5.66604">
        <ele>546.6</ele>
        <time>2020-06-09T10:06:04Z</time>
      </trkpt>
      <trkpt lat="46.76597" lon="5.66605">
        <ele>546.6</ele>
        <time>2020-06-09T10:06:05Z</time>
      </trkpt>
      <trkpt lat="46.76595" lon="5.66607">
        <ele>547</ele>
        <time>2020-06-09T10:06:06Z</time>
      </trkpt>
      <trkpt lat="46.76593" lon="5.66609">
        <ele>547</ele>
        <time>2020-06-09T10:06:07Z</time>
      </trkpt>
      <trkpt lat="46.76591" lon="5.66611">
        <ele>547</ele>
        <time>2020-06-09T10:06:08Z</time>
      </trkpt>
      <trkpt lat="46.76589" lon="5.66612">
        <ele>547.2</ele>
        <time>2020-06-09T10:06:09Z</time>
      </trkpt>
      <trkpt lat="46.76586" lon="5.66614">
        <ele>547.2</ele>
        <time>2020-06-09T10:06:10Z</time>
      </trkpt>
      <trkpt lat="46.76584" lon="5.66616">
        <ele>547.2</ele>
        <time>2020-06-09T10:06:11Z</time>
      </trkpt>
      <trkpt lat="46.76582" lon="5.66618">
        <ele>547.2</ele>
        <time>2020-06-09T10:06:12Z</time>
      </trkpt>
      <trkpt lat="46.76579" lon="5.66619">
        <ele>547.2</ele>
        <time>2020-06-09T10:06:13Z</time>
      </trkpt>
      <trkpt lat="46.76575" lon="5.66621">
        <ele>547.2</ele>
        <time>2020-06-09T10:06:14Z</time>
      </trkpt>
      <trkpt lat="46.76572" lon="5.66624">
        <ele>547.2</ele>
        <time>2020-06-09T10:06:15Z</time>
      </trkpt>
      <trkpt lat="46.76569" lon="5.66628">
        <ele>547.2</ele>
        <time>2020-06-09T10:06:16Z</time>
      </trkpt>
      <trkpt lat="46.76565" lon="5.66632">
        <ele>547.2</ele>
        <time>2020-06-09T10:06:17Z</time>
      </trkpt>
      <trkpt lat="46.76561" lon="5.66636">
        <ele>547.2</ele>
        <time>2020-06-09T10:06:18Z</time>
      </trkpt>
      <trkpt lat="46.76557" lon="5.66641">
        <ele>547.2</ele>
        <time>2020-06-09T10:06:19Z</time>
      </trkpt>
      <trkpt lat="46.76553" lon="5.66645">
        <ele>547.2</ele>
        <time>2020-06-09T10:06:20Z</time>
      </trkpt>
      <trkpt lat="46.76549" lon="5.66649">
        <ele>547.2</ele>
        <time>2020-06-09T10:06:21Z</time>
      </trkpt>
      <trkpt lat="46.76545" lon="5.66652">
        <ele>546.8</ele>
        <time>2020-06-09T10:06:22Z</time>
      </trkpt>
      <trkpt lat="46.7654" lon="5.66655">
        <ele>546.8</ele>
        <time>2020-06-09T10:06:23Z</time>
      </trkpt>
      <trkpt lat="46.76536" lon="5.66658">
        <ele>546.8</ele>
        <time>2020-06-09T10:06:24Z</time>
      </trkpt>
      <trkpt lat="46.76531" lon="5.66661">
        <ele>546.4</ele>
        <time>2020-06-09T10:06:25Z</time>
      </trkpt>
      <trkpt lat="46.76527" lon="5.66664">
        <ele>546.4</ele>
        <time>2020-06-09T10:06:26Z</time>
      </trkpt>
      <trkpt lat="46.76522" lon="5.66667">
        <ele>546</ele>
        <time>2020-06-09T10:06:27Z</time>
      </trkpt>
      <trkpt lat="46.76517" lon="5.66673">
        <ele>545.8</ele>
        <time>2020-06-09T10:06:28Z</time>
      </trkpt>
      <trkpt lat="46.76512" lon="5.66678">
        <ele>545.8</ele>
        <time>2020-06-09T10:06:29Z</time>
      </trkpt>
      <trkpt lat="46.76507" lon="5.66686">
        <ele>545.4</ele>
        <time>2020-06-09T10:06:30Z</time>
      </trkpt>
      <trkpt lat="46.76502" lon="5.66695">
        <ele>545.2</ele>
        <time>2020-06-09T10:06:31Z</time>
      </trkpt>
    </trkseg>
  </trk>
</gpx>